<?xml version='1.0' encoding='UTF-8'?>
<gpx version="1.1" creator="https://www.komoot.de" xmlns="http://www.topografix.com/GPX/1/1" xmlns:xsi="http://www.w3.org/2001/XMLSchema-instance" xsi:schemaLocation="http://www.topografix.com/GPX/1/1 http://www.topografix.com/GPX/1/1/gpx.xsd">
  <metadata>
    <name>GRAVEL VCN LEONIDAS</name>
    <author>
      <link href="https://www.komoot.de">
        <text>komoot</text>
        <type>text/html</type>
      </link>
    </author>
  </metadata>
  <trk>
    <name>GRAVEL VCN LEONIDAS</name>
    <trkseg>
      <trkpt lat="48.884312" lon="2.269595">
        <ele>39.108246</ele>
        <time>2025-02-05T15:17:48.221Z</time>
      </trkpt>
      <trkpt lat="48.884289" lon="2.269697">
        <ele>39.108246</ele>
        <time>2025-02-05T15:17:49.702Z</time>
      </trkpt>
      <trkpt lat="48.884371" lon="2.269759">
        <ele>39.108246</ele>
        <time>2025-02-05T15:17:51.503Z</time>
      </trkpt>
      <trkpt lat="48.885106" lon="2.270313">
        <ele>39.101424</ele>
        <time>2025-02-05T15:18:09.001Z</time>
      </trkpt>
      <trkpt lat="48.885171" lon="2.270363">
        <ele>39.095473</ele>
        <time>2025-02-05T15:18:10.556Z</time>
      </trkpt>
      <trkpt lat="48.885457" lon="2.269824">
        <ele>39.058261</ele>
        <time>2025-02-05T15:18:20.733Z</time>
      </trkpt>
      <trkpt lat="48.885688" lon="2.269388">
        <ele>39.028178</ele>
        <time>2025-02-05T15:18:29.333Z</time>
      </trkpt>
      <trkpt lat="48.885949" lon="2.268894">
        <ele>38.994130</ele>
        <time>2025-02-05T15:18:39.253Z</time>
      </trkpt>
      <trkpt lat="48.885991" lon="2.268944">
        <ele>38.989772</ele>
        <time>2025-02-05T15:18:42.952Z</time>
      </trkpt>
      <trkpt lat="48.886016" lon="2.268974">
        <ele>38.987170</ele>
        <time>2025-02-05T15:18:45.151Z</time>
      </trkpt>
      <trkpt lat="48.886025" lon="2.268956">
        <ele>38.985955</ele>
        <time>2025-02-05T15:18:46.195Z</time>
      </trkpt>
      <trkpt lat="48.886046" lon="2.268916">
        <ele>38.983205</ele>
        <time>2025-02-05T15:18:48.535Z</time>
      </trkpt>
      <trkpt lat="48.887113" lon="2.270210">
        <ele>38.245976</ele>
        <time>2025-02-05T15:19:16.775Z</time>
      </trkpt>
      <trkpt lat="48.887430" lon="2.270601">
        <ele>37.979699</ele>
        <time>2025-02-05T15:19:24.828Z</time>
      </trkpt>
      <trkpt lat="48.887643" lon="2.270862">
        <ele>37.801246</ele>
        <time>2025-02-05T15:19:30.336Z</time>
      </trkpt>
      <trkpt lat="48.887895" lon="2.271171">
        <ele>37.667664</ele>
        <time>2025-02-05T15:19:37.027Z</time>
      </trkpt>
      <trkpt lat="48.888217" lon="2.271571">
        <ele>37.502839</ele>
        <time>2025-02-05T15:19:45.791Z</time>
      </trkpt>
      <trkpt lat="48.888926" lon="2.272423">
        <ele>37.144611</ele>
        <time>2025-02-05T15:20:04.660Z</time>
      </trkpt>
      <trkpt lat="48.889283" lon="2.272850">
        <ele>37.091337</ele>
        <time>2025-02-05T15:20:15.677Z</time>
      </trkpt>
      <trkpt lat="48.889344" lon="2.272921">
        <ele>37.095903</ele>
        <time>2025-02-05T15:20:17.563Z</time>
      </trkpt>
      <trkpt lat="48.889410" lon="2.272999">
        <ele>37.100872</ele>
        <time>2025-02-05T15:20:19.608Z</time>
      </trkpt>
      <trkpt lat="48.889982" lon="2.273696">
        <ele>37.144441</ele>
        <time>2025-02-05T15:20:36.895Z</time>
      </trkpt>
      <trkpt lat="48.890037" lon="2.273764">
        <ele>37.148654</ele>
        <time>2025-02-05T15:20:38.568Z</time>
      </trkpt>
      <trkpt lat="48.890524" lon="2.274360">
        <ele>37.119481</ele>
        <time>2025-02-05T15:20:52.767Z</time>
      </trkpt>
      <trkpt lat="48.891206" lon="2.275183">
        <ele>36.331425</ele>
        <time>2025-02-05T15:21:10.280Z</time>
      </trkpt>
      <trkpt lat="48.891244" lon="2.275289">
        <ele>36.259571</ele>
        <time>2025-02-05T15:21:11.807Z</time>
      </trkpt>
      <trkpt lat="48.892300" lon="2.274393">
        <ele>35.134880</ele>
        <time>2025-02-05T15:21:35.242Z</time>
      </trkpt>
      <trkpt lat="48.892381" lon="2.274322">
        <ele>35.043694</ele>
        <time>2025-02-05T15:21:37.165Z</time>
      </trkpt>
      <trkpt lat="48.892416" lon="2.274407">
        <ele>34.979378</ele>
        <time>2025-02-05T15:21:38.494Z</time>
      </trkpt>
      <trkpt lat="48.892825" lon="2.275392">
        <ele>34.232297</ele>
        <time>2025-02-05T15:21:53.477Z</time>
      </trkpt>
      <trkpt lat="48.893035" lon="2.275895">
        <ele>33.850200</ele>
        <time>2025-02-05T15:22:01.462Z</time>
      </trkpt>
      <trkpt lat="48.893203" lon="2.276284">
        <ele>33.835642</ele>
        <time>2025-02-05T15:22:08.017Z</time>
      </trkpt>
      <trkpt lat="48.893266" lon="2.276431">
        <ele>33.852177</ele>
        <time>2025-02-05T15:22:10.476Z</time>
      </trkpt>
      <trkpt lat="48.893459" lon="2.276971">
        <ele>33.910092</ele>
        <time>2025-02-05T15:22:19.301Z</time>
      </trkpt>
      <trkpt lat="48.893480" lon="2.277030">
        <ele>33.916414</ele>
        <time>2025-02-05T15:22:20.335Z</time>
      </trkpt>
      <trkpt lat="48.893569" lon="2.277308">
        <ele>33.945549</ele>
        <time>2025-02-05T15:22:24.873Z</time>
      </trkpt>
      <trkpt lat="48.893608" lon="2.277423">
        <ele>33.957742</ele>
        <time>2025-02-05T15:22:26.684Z</time>
      </trkpt>
      <trkpt lat="48.893871" lon="2.278198">
        <ele>34.039922</ele>
        <time>2025-02-05T15:22:41.545Z</time>
      </trkpt>
      <trkpt lat="48.893984" lon="2.278523">
        <ele>34.080222</ele>
        <time>2025-02-05T15:22:48.498Z</time>
      </trkpt>
      <trkpt lat="48.894115" lon="2.278898">
        <ele>34.133163</ele>
        <time>2025-02-05T15:22:55.980Z</time>
      </trkpt>
      <trkpt lat="48.894129" lon="2.278938">
        <ele>34.138812</ele>
        <time>2025-02-05T15:22:56.710Z</time>
      </trkpt>
      <trkpt lat="48.894430" lon="2.279683">
        <ele>34.247826</ele>
        <time>2025-02-05T15:23:10.073Z</time>
      </trkpt>
      <trkpt lat="48.894935" lon="2.280942">
        <ele>34.398343</ele>
        <time>2025-02-05T15:23:30.840Z</time>
      </trkpt>
      <trkpt lat="48.895395" lon="2.282037">
        <ele>34.399433</ele>
        <time>2025-02-05T15:23:49.680Z</time>
      </trkpt>
      <trkpt lat="48.895819" lon="2.283023">
        <ele>34.403258</ele>
        <time>2025-02-05T15:24:07.640Z</time>
      </trkpt>
      <trkpt lat="48.896224" lon="2.283948">
        <ele>34.688464</ele>
        <time>2025-02-05T15:24:24.190Z</time>
      </trkpt>
      <trkpt lat="48.896426" lon="2.284450">
        <ele>34.839506</ele>
        <time>2025-02-05T15:24:33.011Z</time>
      </trkpt>
      <trkpt lat="48.896422" lon="2.285072">
        <ele>34.999134</ele>
        <time>2025-02-05T15:24:42.766Z</time>
      </trkpt>
      <trkpt lat="48.896393" lon="2.286586">
        <ele>35.571435</ele>
        <time>2025-02-05T15:25:11.964Z</time>
      </trkpt>
      <trkpt lat="48.896618" lon="2.287441">
        <ele>35.959864</ele>
        <time>2025-02-05T15:25:27.960Z</time>
      </trkpt>
      <trkpt lat="48.896638" lon="2.287517">
        <ele>35.994390</ele>
        <time>2025-02-05T15:25:29.147Z</time>
      </trkpt>
      <trkpt lat="48.896845" lon="2.288375">
        <ele>36.166696</ele>
        <time>2025-02-05T15:25:41.807Z</time>
      </trkpt>
      <trkpt lat="48.897065" lon="2.289326">
        <ele>35.857584</ele>
        <time>2025-02-05T15:25:55.260Z</time>
      </trkpt>
      <trkpt lat="48.897401" lon="2.290682">
        <ele>35.416864</ele>
        <time>2025-02-05T15:26:14.916Z</time>
      </trkpt>
      <trkpt lat="48.897712" lon="2.291974">
        <ele>35.347900</ele>
        <time>2025-02-05T15:26:36.857Z</time>
      </trkpt>
      <trkpt lat="48.897895" lon="2.292721">
        <ele>35.307943</ele>
        <time>2025-02-05T15:26:48.220Z</time>
      </trkpt>
      <trkpt lat="48.898534" lon="2.293048">
        <ele>35.034389</ele>
        <time>2025-02-05T15:27:02.740Z</time>
      </trkpt>
      <trkpt lat="48.899285" lon="2.293464">
        <ele>34.406811</ele>
        <time>2025-02-05T15:27:18.863Z</time>
      </trkpt>
      <trkpt lat="48.899989" lon="2.292832">
        <ele>33.693121</ele>
        <time>2025-02-05T15:27:35.109Z</time>
      </trkpt>
      <trkpt lat="48.900216" lon="2.292710">
        <ele>33.372494</ele>
        <time>2025-02-05T15:27:39.853Z</time>
      </trkpt>
      <trkpt lat="48.900298" lon="2.292693">
        <ele>33.262279</ele>
        <time>2025-02-05T15:27:41.452Z</time>
      </trkpt>
      <trkpt lat="48.900752" lon="2.292668">
        <ele>32.657255</ele>
        <time>2025-02-05T15:27:50.015Z</time>
      </trkpt>
      <trkpt lat="48.900835" lon="2.292712">
        <ele>32.540198</ele>
        <time>2025-02-05T15:27:51.682Z</time>
      </trkpt>
      <trkpt lat="48.900895" lon="2.292787">
        <ele>32.436775</ele>
        <time>2025-02-05T15:27:53.164Z</time>
      </trkpt>
      <trkpt lat="48.901064" lon="2.293191">
        <ele>32.017549</ele>
        <time>2025-02-05T15:27:59.185Z</time>
      </trkpt>
      <trkpt lat="48.901196" lon="2.293534">
        <ele>31.669593</ele>
        <time>2025-02-05T15:28:04.274Z</time>
      </trkpt>
      <trkpt lat="48.901201" lon="2.293545">
        <ele>31.657885</ele>
        <time>2025-02-05T15:28:04.439Z</time>
      </trkpt>
      <trkpt lat="48.901541" lon="2.294418">
        <ele>31.477749</ele>
        <time>2025-02-05T15:28:17.367Z</time>
      </trkpt>
      <trkpt lat="48.901640" lon="2.294656">
        <ele>31.479515</ele>
        <time>2025-02-05T15:28:21.098Z</time>
      </trkpt>
      <trkpt lat="48.901673" lon="2.294741">
        <ele>31.480134</ele>
        <time>2025-02-05T15:28:22.396Z</time>
      </trkpt>
      <trkpt lat="48.901730" lon="2.294878">
        <ele>31.481151</ele>
        <time>2025-02-05T15:28:24.747Z</time>
      </trkpt>
      <trkpt lat="48.902112" lon="2.295634">
        <ele>31.487131</ele>
        <time>2025-02-05T15:28:40.748Z</time>
      </trkpt>
      <trkpt lat="48.902609" lon="2.296579">
        <ele>32.362790</ele>
        <time>2025-02-05T15:29:03.966Z</time>
      </trkpt>
      <trkpt lat="48.902887" lon="2.296963">
        <ele>33.007630</ele>
        <time>2025-02-05T15:29:16.365Z</time>
      </trkpt>
      <trkpt lat="48.902989" lon="2.297196">
        <ele>33.323639</ele>
        <time>2025-02-05T15:29:22.696Z</time>
      </trkpt>
      <trkpt lat="48.903051" lon="2.297319">
        <ele>33.498610</ele>
        <time>2025-02-05T15:29:26.127Z</time>
      </trkpt>
      <trkpt lat="48.903356" lon="2.297821">
        <ele>34.270269</ele>
        <time>2025-02-05T15:29:40.909Z</time>
      </trkpt>
      <trkpt lat="48.903701" lon="2.298389">
        <ele>34.464321</ele>
        <time>2025-02-05T15:29:56.308Z</time>
      </trkpt>
      <trkpt lat="48.904162" lon="2.299148">
        <ele>34.228066</ele>
        <time>2025-02-05T15:30:11.717Z</time>
      </trkpt>
      <trkpt lat="48.904228" lon="2.299300">
        <ele>34.186419</ele>
        <time>2025-02-05T15:30:14.024Z</time>
      </trkpt>
      <trkpt lat="48.904924" lon="2.300730">
        <ele>33.362146</ele>
        <time>2025-02-05T15:30:35.627Z</time>
      </trkpt>
      <trkpt lat="48.905236" lon="2.301365">
        <ele>32.744692</ele>
        <time>2025-02-05T15:30:45.636Z</time>
      </trkpt>
      <trkpt lat="48.905462" lon="2.301814">
        <ele>32.304247</ele>
        <time>2025-02-05T15:30:53.166Z</time>
      </trkpt>
      <trkpt lat="48.906109" lon="2.302991">
        <ele>31.790530</ele>
        <time>2025-02-05T15:31:14.370Z</time>
      </trkpt>
      <trkpt lat="48.906224" lon="2.303197">
        <ele>31.781254</ele>
        <time>2025-02-05T15:31:18.089Z</time>
      </trkpt>
      <trkpt lat="48.906266" lon="2.303155">
        <ele>31.778630</ele>
        <time>2025-02-05T15:31:19.174Z</time>
      </trkpt>
      <trkpt lat="48.906640" lon="2.302785">
        <ele>31.755338</ele>
        <time>2025-02-05T15:31:28.955Z</time>
      </trkpt>
      <trkpt lat="48.906866" lon="2.302562">
        <ele>31.741274</ele>
        <time>2025-02-05T15:31:35.207Z</time>
      </trkpt>
      <trkpt lat="48.907221" lon="2.302172">
        <ele>31.796008</ele>
        <time>2025-02-05T15:31:46.447Z</time>
      </trkpt>
      <trkpt lat="48.907534" lon="2.301562">
        <ele>31.983842</ele>
        <time>2025-02-05T15:32:00.778Z</time>
      </trkpt>
      <trkpt lat="48.907598" lon="2.301428">
        <ele>32.024046</ele>
        <time>2025-02-05T15:32:03.852Z</time>
      </trkpt>
      <trkpt lat="48.907920" lon="2.300816">
        <ele>32.214321</ele>
        <time>2025-02-05T15:32:17.080Z</time>
      </trkpt>
      <trkpt lat="48.908072" lon="2.300528">
        <ele>32.303970</ele>
        <time>2025-02-05T15:32:22.330Z</time>
      </trkpt>
      <trkpt lat="48.908232" lon="2.300369">
        <ele>32.374542</ele>
        <time>2025-02-05T15:32:26.305Z</time>
      </trkpt>
      <trkpt lat="48.908408" lon="2.300322">
        <ele>32.263967</ele>
        <time>2025-02-05T15:32:29.902Z</time>
      </trkpt>
      <trkpt lat="48.908437" lon="2.300308">
        <ele>32.234131</ele>
        <time>2025-02-05T15:32:30.500Z</time>
      </trkpt>
      <trkpt lat="48.908453" lon="2.300290">
        <ele>32.214618</ele>
        <time>2025-02-05T15:32:30.899Z</time>
      </trkpt>
      <trkpt lat="48.908478" lon="2.300263">
        <ele>32.184554</ele>
        <time>2025-02-05T15:32:31.509Z</time>
      </trkpt>
      <trkpt lat="48.908552" lon="2.300180">
        <ele>32.094400</ele>
        <time>2025-02-05T15:32:33.301Z</time>
      </trkpt>
      <trkpt lat="48.908589" lon="2.300139">
        <ele>32.049514</ele>
        <time>2025-02-05T15:32:34.176Z</time>
      </trkpt>
      <trkpt lat="48.908599" lon="2.300127">
        <ele>32.037025</ele>
        <time>2025-02-05T15:32:34.425Z</time>
      </trkpt>
      <trkpt lat="48.908613" lon="2.300125">
        <ele>32.023235</ele>
        <time>2025-02-05T15:32:34.717Z</time>
      </trkpt>
      <trkpt lat="48.908675" lon="2.300118">
        <ele>31.962270</ele>
        <time>2025-02-05T15:32:35.951Z</time>
      </trkpt>
      <trkpt lat="48.908702" lon="2.300115">
        <ele>31.935722</ele>
        <time>2025-02-05T15:32:36.502Z</time>
      </trkpt>
      <trkpt lat="48.908723" lon="2.300112">
        <ele>31.915038</ele>
        <time>2025-02-05T15:32:36.917Z</time>
      </trkpt>
      <trkpt lat="48.908744" lon="2.300109">
        <ele>31.894355</ele>
        <time>2025-02-05T15:32:37.333Z</time>
      </trkpt>
      <trkpt lat="48.908745" lon="2.300077">
        <ele>31.873707</ele>
        <time>2025-02-05T15:32:37.762Z</time>
      </trkpt>
      <trkpt lat="48.908802" lon="2.299957">
        <ele>31.778280</ele>
        <time>2025-02-05T15:32:39.657Z</time>
      </trkpt>
      <trkpt lat="48.910582" lon="2.299152">
        <ele>30.823434</ele>
        <time>2025-02-05T15:33:18.192Z</time>
      </trkpt>
      <trkpt lat="48.910666" lon="2.299112">
        <ele>30.848512</ele>
        <time>2025-02-05T15:33:20.827Z</time>
      </trkpt>
      <trkpt lat="48.911056" lon="2.298947">
        <ele>30.963846</ele>
        <time>2025-02-05T15:33:32.714Z</time>
      </trkpt>
      <trkpt lat="48.911077" lon="2.298942">
        <ele>30.969902</ele>
        <time>2025-02-05T15:33:33.368Z</time>
      </trkpt>
      <trkpt lat="48.911090" lon="2.298937">
        <ele>30.973722</ele>
        <time>2025-02-05T15:33:33.781Z</time>
      </trkpt>
      <trkpt lat="48.911130" lon="2.298922">
        <ele>30.985460</ele>
        <time>2025-02-05T15:33:35.040Z</time>
      </trkpt>
      <trkpt lat="48.911179" lon="2.298902">
        <ele>30.999914</ele>
        <time>2025-02-05T15:33:36.522Z</time>
      </trkpt>
      <trkpt lat="48.911218" lon="2.298872">
        <ele>31.012366</ele>
        <time>2025-02-05T15:33:38.010Z</time>
      </trkpt>
      <trkpt lat="48.911303" lon="2.298811">
        <ele>31.039142</ele>
        <time>2025-02-05T15:33:40.851Z</time>
      </trkpt>
      <trkpt lat="48.911341" lon="2.298770">
        <ele>31.052415</ele>
        <time>2025-02-05T15:33:42.455Z</time>
      </trkpt>
      <trkpt lat="48.911421" lon="2.298712">
        <ele>31.077664</ele>
        <time>2025-02-05T15:33:45.279Z</time>
      </trkpt>
      <trkpt lat="48.913107" lon="2.297872">
        <ele>31.538072</ele>
        <time>2025-02-05T15:34:28.577Z</time>
      </trkpt>
      <trkpt lat="48.913380" lon="2.297704">
        <ele>31.550969</ele>
        <time>2025-02-05T15:34:34.649Z</time>
      </trkpt>
      <trkpt lat="48.914477" lon="2.296951">
        <ele>30.292045</ele>
        <time>2025-02-05T15:34:58.300Z</time>
      </trkpt>
      <trkpt lat="48.915034" lon="2.296477">
        <ele>29.682039</ele>
        <time>2025-02-05T15:35:10.431Z</time>
      </trkpt>
      <trkpt lat="48.915052" lon="2.296503">
        <ele>29.671790</ele>
        <time>2025-02-05T15:35:10.901Z</time>
      </trkpt>
      <trkpt lat="48.915036" lon="2.296527">
        <ele>29.662512</ele>
        <time>2025-02-05T15:35:11.340Z</time>
      </trkpt>
      <trkpt lat="48.915057" lon="2.296554">
        <ele>29.651159</ele>
        <time>2025-02-05T15:35:11.886Z</time>
      </trkpt>
      <trkpt lat="48.915135" lon="2.296446">
        <ele>29.607610</ele>
        <time>2025-02-05T15:35:14.106Z</time>
      </trkpt>
      <trkpt lat="48.915379" lon="2.296177">
        <ele>29.483185</ele>
        <time>2025-02-05T15:35:20.286Z</time>
      </trkpt>
      <trkpt lat="48.915639" lon="2.295981">
        <ele>29.363364</ele>
        <time>2025-02-05T15:35:26.270Z</time>
      </trkpt>
      <trkpt lat="48.915675" lon="2.295955">
        <ele>29.346908</ele>
        <time>2025-02-05T15:35:27.069Z</time>
      </trkpt>
      <trkpt lat="48.915808" lon="2.295893">
        <ele>29.289467</ele>
        <time>2025-02-05T15:35:29.936Z</time>
      </trkpt>
      <trkpt lat="48.916323" lon="2.295817">
        <ele>29.075799</ele>
        <time>2025-02-05T15:35:41.255Z</time>
      </trkpt>
      <trkpt lat="48.916404" lon="2.295807">
        <ele>29.042240</ele>
        <time>2025-02-05T15:35:43.165Z</time>
      </trkpt>
      <trkpt lat="48.916911" lon="2.295735">
        <ele>29.262298</ele>
        <time>2025-02-05T15:35:56.377Z</time>
      </trkpt>
      <trkpt lat="48.916948" lon="2.295731">
        <ele>29.292475</ele>
        <time>2025-02-05T15:35:57.402Z</time>
      </trkpt>
      <trkpt lat="48.917183" lon="2.295944">
        <ele>29.515003</ele>
        <time>2025-02-05T15:36:04.831Z</time>
      </trkpt>
      <trkpt lat="48.917262" lon="2.296010">
        <ele>29.588322</ele>
        <time>2025-02-05T15:36:07.231Z</time>
      </trkpt>
      <trkpt lat="48.917293" lon="2.295942">
        <ele>29.632567</ele>
        <time>2025-02-05T15:36:08.607Z</time>
      </trkpt>
      <trkpt lat="48.917307" lon="2.295917">
        <ele>29.650127</ele>
        <time>2025-02-05T15:36:09.181Z</time>
      </trkpt>
      <trkpt lat="48.917353" lon="2.295890">
        <ele>29.690238</ele>
        <time>2025-02-05T15:36:10.462Z</time>
      </trkpt>
      <trkpt lat="48.917952" lon="2.296413">
        <ele>30.252068</ele>
        <time>2025-02-05T15:36:29.424Z</time>
      </trkpt>
      <trkpt lat="48.918049" lon="2.296499">
        <ele>30.343399</ele>
        <time>2025-02-05T15:36:32.645Z</time>
      </trkpt>
      <trkpt lat="48.918069" lon="2.296516">
        <ele>30.362036</ele>
        <time>2025-02-05T15:36:33.267Z</time>
      </trkpt>
      <trkpt lat="48.918095" lon="2.296539">
        <ele>30.386502</ele>
        <time>2025-02-05T15:36:34.104Z</time>
      </trkpt>
      <trkpt lat="48.918802" lon="2.297162">
        <ele>29.876286</ele>
        <time>2025-02-05T15:36:55.051Z</time>
      </trkpt>
      <trkpt lat="48.918834" lon="2.297190">
        <ele>29.848574</ele>
        <time>2025-02-05T15:36:55.816Z</time>
      </trkpt>
      <trkpt lat="48.918865" lon="2.297217">
        <ele>29.821759</ele>
        <time>2025-02-05T15:36:56.536Z</time>
      </trkpt>
      <trkpt lat="48.919537" lon="2.297803">
        <ele>29.240304</ele>
        <time>2025-02-05T15:37:10.782Z</time>
      </trkpt>
      <trkpt lat="48.919579" lon="2.297842">
        <ele>29.203367</ele>
        <time>2025-02-05T15:37:11.642Z</time>
      </trkpt>
      <trkpt lat="48.919693" lon="2.297828">
        <ele>29.117504</ele>
        <time>2025-02-05T15:37:13.696Z</time>
      </trkpt>
      <trkpt lat="48.919718" lon="2.297843">
        <ele>29.097330</ele>
        <time>2025-02-05T15:37:14.161Z</time>
      </trkpt>
      <trkpt lat="48.919744" lon="2.297859">
        <ele>29.086603</ele>
        <time>2025-02-05T15:37:14.666Z</time>
      </trkpt>
      <trkpt lat="48.919771" lon="2.297869">
        <ele>29.081648</ele>
        <time>2025-02-05T15:37:15.178Z</time>
      </trkpt>
      <trkpt lat="48.919786" lon="2.298210">
        <ele>29.041599</ele>
        <time>2025-02-05T15:37:19.306Z</time>
      </trkpt>
      <trkpt lat="48.919800" lon="2.298219">
        <ele>29.038889</ele>
        <time>2025-02-05T15:37:19.584Z</time>
      </trkpt>
      <trkpt lat="48.920058" lon="2.298428">
        <ele>28.986769</ele>
        <time>2025-02-05T15:37:25.181Z</time>
      </trkpt>
      <trkpt lat="48.920377" lon="2.298678">
        <ele>28.922782</ele>
        <time>2025-02-05T15:37:32.344Z</time>
      </trkpt>
      <trkpt lat="48.920396" lon="2.298693">
        <ele>28.918965</ele>
        <time>2025-02-05T15:37:32.780Z</time>
      </trkpt>
      <trkpt lat="48.920516" lon="2.298788">
        <ele>28.894844</ele>
        <time>2025-02-05T15:37:35.635Z</time>
      </trkpt>
      <trkpt lat="48.920561" lon="2.298824">
        <ele>28.885778</ele>
        <time>2025-02-05T15:37:36.817Z</time>
      </trkpt>
      <trkpt lat="48.920602" lon="2.298856">
        <ele>28.877561</ele>
        <time>2025-02-05T15:37:37.914Z</time>
      </trkpt>
      <trkpt lat="48.920742" lon="2.298964">
        <ele>28.849571</ele>
        <time>2025-02-05T15:37:42.302Z</time>
      </trkpt>
      <trkpt lat="48.921149" lon="2.299283">
        <ele>28.776750</ele>
        <time>2025-02-05T15:37:57.227Z</time>
      </trkpt>
      <trkpt lat="48.921166" lon="2.299295">
        <ele>28.799197</ele>
        <time>2025-02-05T15:37:57.816Z</time>
      </trkpt>
      <trkpt lat="48.921197" lon="2.299322">
        <ele>28.841980</ele>
        <time>2025-02-05T15:37:59.205Z</time>
      </trkpt>
      <trkpt lat="48.921230" lon="2.299350">
        <ele>28.887236</ele>
        <time>2025-02-05T15:38:00.704Z</time>
      </trkpt>
      <trkpt lat="48.921282" lon="2.299395">
        <ele>28.958887</ele>
        <time>2025-02-05T15:38:03.126Z</time>
      </trkpt>
      <trkpt lat="48.921311" lon="2.299422">
        <ele>28.999609</ele>
        <time>2025-02-05T15:38:04.234Z</time>
      </trkpt>
      <trkpt lat="48.921391" lon="2.299487">
        <ele>29.108235</ele>
        <time>2025-02-05T15:38:07.274Z</time>
      </trkpt>
      <trkpt lat="48.921755" lon="2.299726">
        <ele>29.583083</ele>
        <time>2025-02-05T15:38:20.072Z</time>
      </trkpt>
      <trkpt lat="48.921758" lon="2.299792">
        <ele>29.635154</ele>
        <time>2025-02-05T15:38:21.329Z</time>
      </trkpt>
      <trkpt lat="48.921782" lon="2.299803">
        <ele>29.665176</ele>
        <time>2025-02-05T15:38:22.109Z</time>
      </trkpt>
      <trkpt lat="48.921926" lon="2.299834">
        <ele>29.839377</ele>
        <time>2025-02-05T15:38:26.264Z</time>
      </trkpt>
      <trkpt lat="48.922071" lon="2.299858">
        <ele>30.014083</ele>
        <time>2025-02-05T15:38:30.347Z</time>
      </trkpt>
      <trkpt lat="48.922277" lon="2.299879">
        <ele>30.261383</ele>
        <time>2025-02-05T15:38:35.914Z</time>
      </trkpt>
      <trkpt lat="48.922610" lon="2.299911">
        <ele>30.661046</ele>
        <time>2025-02-05T15:38:44.408Z</time>
      </trkpt>
      <trkpt lat="48.922764" lon="2.299925">
        <ele>30.845836</ele>
        <time>2025-02-05T15:38:48.069Z</time>
      </trkpt>
      <trkpt lat="48.922953" lon="2.299941">
        <ele>30.931545</ele>
        <time>2025-02-05T15:38:52.311Z</time>
      </trkpt>
      <trkpt lat="48.923087" lon="2.299959">
        <ele>30.940246</ele>
        <time>2025-02-05T15:38:55.451Z</time>
      </trkpt>
      <trkpt lat="48.923188" lon="2.299974">
        <ele>30.946810</ele>
        <time>2025-02-05T15:38:57.936Z</time>
      </trkpt>
      <trkpt lat="48.924318" lon="2.300046">
        <ele>31.019964</ele>
        <time>2025-02-05T15:39:23.906Z</time>
      </trkpt>
      <trkpt lat="48.924404" lon="2.300054">
        <ele>31.025537</ele>
        <time>2025-02-05T15:39:25.752Z</time>
      </trkpt>
      <trkpt lat="48.924436" lon="2.300053">
        <ele>31.027608</ele>
        <time>2025-02-05T15:39:26.426Z</time>
      </trkpt>
      <trkpt lat="48.924434" lon="2.299988">
        <ele>31.030373</ele>
        <time>2025-02-05T15:39:27.370Z</time>
      </trkpt>
      <trkpt lat="48.924487" lon="2.299987">
        <ele>31.033802</ele>
        <time>2025-02-05T15:39:28.539Z</time>
      </trkpt>
      <trkpt lat="48.925067" lon="2.299983">
        <ele>30.981920</ele>
        <time>2025-02-05T15:39:41.190Z</time>
      </trkpt>
      <trkpt lat="48.925480" lon="2.299968">
        <ele>30.932766</ele>
        <time>2025-02-05T15:39:50.099Z</time>
      </trkpt>
      <trkpt lat="48.925515" lon="2.299952">
        <ele>30.928418</ele>
        <time>2025-02-05T15:39:50.880Z</time>
      </trkpt>
      <trkpt lat="48.925617" lon="2.299841">
        <ele>30.913498</ele>
        <time>2025-02-05T15:39:53.634Z</time>
      </trkpt>
      <trkpt lat="48.925673" lon="2.299825">
        <ele>30.906719</ele>
        <time>2025-02-05T15:39:54.912Z</time>
      </trkpt>
      <trkpt lat="48.925726" lon="2.299831">
        <ele>30.900395</ele>
        <time>2025-02-05T15:39:56.113Z</time>
      </trkpt>
      <trkpt lat="48.925790" lon="2.299900">
        <ele>30.891063</ele>
        <time>2025-02-05T15:39:57.902Z</time>
      </trkpt>
      <trkpt lat="48.925800" lon="2.299935">
        <ele>30.888079</ele>
        <time>2025-02-05T15:39:58.500Z</time>
      </trkpt>
      <trkpt lat="48.925856" lon="2.299945">
        <ele>30.881371</ele>
        <time>2025-02-05T15:39:59.824Z</time>
      </trkpt>
      <trkpt lat="48.926172" lon="2.299997">
        <ele>30.843552</ele>
        <time>2025-02-05T15:40:07.966Z</time>
      </trkpt>
      <trkpt lat="48.926396" lon="2.300041">
        <ele>30.827181</ele>
        <time>2025-02-05T15:40:14.150Z</time>
      </trkpt>
      <trkpt lat="48.926399" lon="2.300041">
        <ele>30.827234</ele>
        <time>2025-02-05T15:40:14.234Z</time>
      </trkpt>
      <trkpt lat="48.926402" lon="2.300083">
        <ele>30.827724</ele>
        <time>2025-02-05T15:40:14.993Z</time>
      </trkpt>
      <trkpt lat="48.926405" lon="2.300125">
        <ele>30.828214</ele>
        <time>2025-02-05T15:40:15.742Z</time>
      </trkpt>
      <trkpt lat="48.926407" lon="2.300159">
        <ele>30.828610</ele>
        <time>2025-02-05T15:40:16.351Z</time>
      </trkpt>
      <trkpt lat="48.926414" lon="2.300270">
        <ele>30.829903</ele>
        <time>2025-02-05T15:40:18.304Z</time>
      </trkpt>
      <trkpt lat="48.926701" lon="2.301519">
        <ele>30.845246</ele>
        <time>2025-02-05T15:40:40.096Z</time>
      </trkpt>
      <trkpt lat="48.926892" lon="2.302383">
        <ele>30.855817</ele>
        <time>2025-02-05T15:40:53.303Z</time>
      </trkpt>
      <trkpt lat="48.926922" lon="2.302448">
        <ele>30.856738</ele>
        <time>2025-02-05T15:40:54.403Z</time>
      </trkpt>
      <trkpt lat="48.926943" lon="2.302437">
        <ele>30.857130</ele>
        <time>2025-02-05T15:40:55.013Z</time>
      </trkpt>
      <trkpt lat="48.926979" lon="2.302419">
        <ele>30.847820</ele>
        <time>2025-02-05T15:40:56.076Z</time>
      </trkpt>
      <trkpt lat="48.927033" lon="2.302666">
        <ele>30.719800</ele>
        <time>2025-02-05T15:40:59.698Z</time>
      </trkpt>
      <trkpt lat="48.927069" lon="2.302828">
        <ele>30.635697</ele>
        <time>2025-02-05T15:41:02.020Z</time>
      </trkpt>
      <trkpt lat="48.927101" lon="2.302978">
        <ele>30.558138</ele>
        <time>2025-02-05T15:41:04.134Z</time>
      </trkpt>
      <trkpt lat="48.927037" lon="2.303062">
        <ele>30.494882</ele>
        <time>2025-02-05T15:41:05.808Z</time>
      </trkpt>
      <trkpt lat="48.927026" lon="2.303170">
        <ele>30.441135</ele>
        <time>2025-02-05T15:41:07.180Z</time>
      </trkpt>
      <trkpt lat="48.927130" lon="2.303679">
        <ele>30.178991</ele>
        <time>2025-02-05T15:41:14.099Z</time>
      </trkpt>
      <trkpt lat="48.927188" lon="2.303748">
        <ele>30.123889</ele>
        <time>2025-02-05T15:41:15.566Z</time>
      </trkpt>
      <trkpt lat="48.927284" lon="2.303737">
        <ele>30.051829</ele>
        <time>2025-02-05T15:41:17.484Z</time>
      </trkpt>
      <trkpt lat="48.927329" lon="2.303666">
        <ele>30.003314</ele>
        <time>2025-02-05T15:41:18.793Z</time>
      </trkpt>
      <trkpt lat="48.927341" lon="2.303577">
        <ele>29.958633</ele>
        <time>2025-02-05T15:41:19.980Z</time>
      </trkpt>
      <trkpt lat="48.927417" lon="2.303514">
        <ele>29.893857</ele>
        <time>2025-02-05T15:41:21.762Z</time>
      </trkpt>
      <trkpt lat="48.927491" lon="2.303450">
        <ele>29.830149</ele>
        <time>2025-02-05T15:41:23.488Z</time>
      </trkpt>
      <trkpt lat="48.928193" lon="2.303106">
        <ele>29.396389</ele>
        <time>2025-02-05T15:41:39.219Z</time>
      </trkpt>
      <trkpt lat="48.929236" lon="2.302659">
        <ele>28.996737</ele>
        <time>2025-02-05T15:42:02.039Z</time>
      </trkpt>
      <trkpt lat="48.930328" lon="2.302442">
        <ele>28.937004</ele>
        <time>2025-02-05T15:42:25.957Z</time>
      </trkpt>
      <trkpt lat="48.930493" lon="2.302433">
        <ele>28.958099</ele>
        <time>2025-02-05T15:42:29.610Z</time>
      </trkpt>
      <trkpt lat="48.930580" lon="2.302437">
        <ele>28.969220</ele>
        <time>2025-02-05T15:42:31.606Z</time>
      </trkpt>
      <trkpt lat="48.930695" lon="2.302430">
        <ele>28.983925</ele>
        <time>2025-02-05T15:42:34.252Z</time>
      </trkpt>
      <trkpt lat="48.930778" lon="2.302427">
        <ele>28.994532</ele>
        <time>2025-02-05T15:42:36.188Z</time>
      </trkpt>
      <trkpt lat="48.930777" lon="2.302379">
        <ele>28.998563</ele>
        <time>2025-02-05T15:42:36.957Z</time>
      </trkpt>
      <trkpt lat="48.930776" lon="2.302292">
        <ele>29.005867</ele>
        <time>2025-02-05T15:42:38.346Z</time>
      </trkpt>
      <trkpt lat="48.930792" lon="2.302293">
        <ele>29.007913</ele>
        <time>2025-02-05T15:42:38.743Z</time>
      </trkpt>
      <trkpt lat="48.931479" lon="2.302326">
        <ele>29.065124</ele>
        <time>2025-02-05T15:42:56.066Z</time>
      </trkpt>
      <trkpt lat="48.931501" lon="2.302327">
        <ele>29.063169</ele>
        <time>2025-02-05T15:42:56.605Z</time>
      </trkpt>
      <trkpt lat="48.931513" lon="2.302328">
        <ele>29.062102</ele>
        <time>2025-02-05T15:42:56.910Z</time>
      </trkpt>
      <trkpt lat="48.932127" lon="2.302362">
        <ele>29.007535</ele>
        <time>2025-02-05T15:43:11.198Z</time>
      </trkpt>
      <trkpt lat="48.932143" lon="2.302363">
        <ele>29.006113</ele>
        <time>2025-02-05T15:43:11.549Z</time>
      </trkpt>
      <trkpt lat="48.932153" lon="2.302363">
        <ele>29.005225</ele>
        <time>2025-02-05T15:43:11.777Z</time>
      </trkpt>
      <trkpt lat="48.932243" lon="2.302370">
        <ele>28.997221</ele>
        <time>2025-02-05T15:43:13.701Z</time>
      </trkpt>
      <trkpt lat="48.932257" lon="2.302371">
        <ele>28.995977</ele>
        <time>2025-02-05T15:43:14.004Z</time>
      </trkpt>
      <trkpt lat="48.932272" lon="2.302372">
        <ele>28.994643</ele>
        <time>2025-02-05T15:43:14.315Z</time>
      </trkpt>
      <trkpt lat="48.932761" lon="2.302409">
        <ele>28.951161</ele>
        <time>2025-02-05T15:43:24.328Z</time>
      </trkpt>
      <trkpt lat="48.932820" lon="2.302412">
        <ele>28.945918</ele>
        <time>2025-02-05T15:43:25.561Z</time>
      </trkpt>
      <trkpt lat="48.932841" lon="2.302492">
        <ele>28.940891</ele>
        <time>2025-02-05T15:43:26.833Z</time>
      </trkpt>
      <trkpt lat="48.932846" lon="2.302512">
        <ele>28.939643</ele>
        <time>2025-02-05T15:43:27.153Z</time>
      </trkpt>
      <trkpt lat="48.932870" lon="2.302581">
        <ele>28.935088</ele>
        <time>2025-02-05T15:43:28.289Z</time>
      </trkpt>
      <trkpt lat="48.932948" lon="2.302704">
        <ele>28.925113</ele>
        <time>2025-02-05T15:43:31.477Z</time>
      </trkpt>
      <trkpt lat="48.933061" lon="2.302810">
        <ele>28.917106</ele>
        <time>2025-02-05T15:43:35.269Z</time>
      </trkpt>
      <trkpt lat="48.933068" lon="2.302812">
        <ele>28.916992</ele>
        <time>2025-02-05T15:43:35.426Z</time>
      </trkpt>
      <trkpt lat="48.933096" lon="2.302820">
        <ele>28.916537</ele>
        <time>2025-02-05T15:43:36.032Z</time>
      </trkpt>
      <trkpt lat="48.933121" lon="2.302825">
        <ele>28.916134</ele>
        <time>2025-02-05T15:43:36.573Z</time>
      </trkpt>
      <trkpt lat="48.933150" lon="2.302831">
        <ele>28.915667</ele>
        <time>2025-02-05T15:43:37.195Z</time>
      </trkpt>
      <trkpt lat="48.933175" lon="2.302836">
        <ele>28.915264</ele>
        <time>2025-02-05T15:43:37.739Z</time>
      </trkpt>
      <trkpt lat="48.933211" lon="2.302843">
        <ele>28.914684</ele>
        <time>2025-02-05T15:43:38.541Z</time>
      </trkpt>
      <trkpt lat="48.933240" lon="2.302841">
        <ele>28.914221</ele>
        <time>2025-02-05T15:43:39.202Z</time>
      </trkpt>
      <trkpt lat="48.933297" lon="2.302834">
        <ele>28.913307</ele>
        <time>2025-02-05T15:43:40.426Z</time>
      </trkpt>
      <trkpt lat="48.933340" lon="2.302827">
        <ele>28.912617</ele>
        <time>2025-02-05T15:43:41.354Z</time>
      </trkpt>
      <trkpt lat="48.933340" lon="2.302873">
        <ele>28.912134</ele>
        <time>2025-02-05T15:43:42.307Z</time>
      </trkpt>
      <trkpt lat="48.933340" lon="2.302942">
        <ele>28.911410</ele>
        <time>2025-02-05T15:43:43.306Z</time>
      </trkpt>
      <trkpt lat="48.933344" lon="2.304089">
        <ele>28.899374</ele>
        <time>2025-02-05T15:43:59.948Z</time>
      </trkpt>
      <trkpt lat="48.933356" lon="2.304539">
        <ele>28.894648</ele>
        <time>2025-02-05T15:44:06.845Z</time>
      </trkpt>
      <trkpt lat="48.933456" lon="2.306222">
        <ele>28.917169</ele>
        <time>2025-02-05T15:44:32.998Z</time>
      </trkpt>
      <trkpt lat="48.933465" lon="2.306356">
        <ele>28.920385</ele>
        <time>2025-02-05T15:44:34.829Z</time>
      </trkpt>
      <trkpt lat="48.933496" lon="2.306360">
        <ele>28.921516</ele>
        <time>2025-02-05T15:44:35.733Z</time>
      </trkpt>
      <trkpt lat="48.933521" lon="2.306370">
        <ele>28.922455</ele>
        <time>2025-02-05T15:44:36.457Z</time>
      </trkpt>
      <trkpt lat="48.933548" lon="2.306437">
        <ele>28.924332</ele>
        <time>2025-02-05T15:44:37.867Z</time>
      </trkpt>
      <trkpt lat="48.933574" lon="2.306913">
        <ele>28.935736</ele>
        <time>2025-02-05T15:44:46.889Z</time>
      </trkpt>
      <trkpt lat="48.933582" lon="2.307039">
        <ele>28.938758</ele>
        <time>2025-02-05T15:44:49.347Z</time>
      </trkpt>
      <trkpt lat="48.933591" lon="2.307241">
        <ele>28.943592</ele>
        <time>2025-02-05T15:44:53.200Z</time>
      </trkpt>
      <trkpt lat="48.933570" lon="2.307334">
        <ele>28.945940</ele>
        <time>2025-02-05T15:44:55.045Z</time>
      </trkpt>
      <trkpt lat="48.933544" lon="2.307351">
        <ele>28.946968</ele>
        <time>2025-02-05T15:44:55.833Z</time>
      </trkpt>
      <trkpt lat="48.933512" lon="2.307372">
        <ele>28.948235</ele>
        <time>2025-02-05T15:44:56.849Z</time>
      </trkpt>
      <trkpt lat="48.933518" lon="2.307464">
        <ele>28.950442</ele>
        <time>2025-02-05T15:44:58.633Z</time>
      </trkpt>
      <trkpt lat="48.933560" lon="2.307986">
        <ele>29.011532</ele>
        <time>2025-02-05T15:45:08.701Z</time>
      </trkpt>
      <trkpt lat="48.933565" lon="2.308087">
        <ele>29.027885</ele>
        <time>2025-02-05T15:45:10.799Z</time>
      </trkpt>
      <trkpt lat="48.933594" lon="2.308083">
        <ele>29.035042</ele>
        <time>2025-02-05T15:45:11.541Z</time>
      </trkpt>
      <trkpt lat="48.933688" lon="2.308031">
        <ele>29.059623</ele>
        <time>2025-02-05T15:45:14.065Z</time>
      </trkpt>
      <trkpt lat="48.933705" lon="2.308253">
        <ele>29.095710</ele>
        <time>2025-02-05T15:45:17.805Z</time>
      </trkpt>
      <trkpt lat="48.933787" lon="2.308495">
        <ele>29.139674</ele>
        <time>2025-02-05T15:45:22.350Z</time>
      </trkpt>
      <trkpt lat="48.933938" lon="2.308730">
        <ele>29.192749</ele>
        <time>2025-02-05T15:45:27.488Z</time>
      </trkpt>
      <trkpt lat="48.934068" lon="2.308847">
        <ele>29.229866</ele>
        <time>2025-02-05T15:45:30.853Z</time>
      </trkpt>
      <trkpt lat="48.934475" lon="2.308767">
        <ele>29.330727</ele>
        <time>2025-02-05T15:45:40.735Z</time>
      </trkpt>
      <trkpt lat="48.934634" lon="2.308780">
        <ele>29.369862</ele>
        <time>2025-02-05T15:45:44.469Z</time>
      </trkpt>
      <trkpt lat="48.934909" lon="2.308865">
        <ele>29.476756</ele>
        <time>2025-02-05T15:45:51.050Z</time>
      </trkpt>
      <trkpt lat="48.935248" lon="2.309079">
        <ele>29.648037</ele>
        <time>2025-02-05T15:46:00.136Z</time>
      </trkpt>
      <trkpt lat="48.935892" lon="2.309624">
        <ele>29.991923</ele>
        <time>2025-02-05T15:46:18.400Z</time>
      </trkpt>
      <trkpt lat="48.936121" lon="2.309783">
        <ele>30.109392</ele>
        <time>2025-02-05T15:46:24.596Z</time>
      </trkpt>
      <trkpt lat="48.936245" lon="2.309840">
        <ele>30.169845</ele>
        <time>2025-02-05T15:46:27.813Z</time>
      </trkpt>
      <trkpt lat="48.936377" lon="2.309850">
        <ele>30.231528</ele>
        <time>2025-02-05T15:46:31.099Z</time>
      </trkpt>
      <trkpt lat="48.936462" lon="2.309812">
        <ele>30.253935</ele>
        <time>2025-02-05T15:46:33.326Z</time>
      </trkpt>
      <trkpt lat="48.936729" lon="2.309694">
        <ele>30.316886</ele>
        <time>2025-02-05T15:46:40.432Z</time>
      </trkpt>
      <trkpt lat="48.936858" lon="2.309697">
        <ele>30.346097</ele>
        <time>2025-02-05T15:46:43.621Z</time>
      </trkpt>
      <trkpt lat="48.936956" lon="2.309746">
        <ele>30.369453</ele>
        <time>2025-02-05T15:46:46.027Z</time>
      </trkpt>
      <trkpt lat="48.937185" lon="2.309938">
        <ele>30.428647</ele>
        <time>2025-02-05T15:46:51.787Z</time>
      </trkpt>
      <trkpt lat="48.937258" lon="2.309983">
        <ele>30.446479</ele>
        <time>2025-02-05T15:46:53.437Z</time>
      </trkpt>
      <trkpt lat="48.937480" lon="2.310086">
        <ele>30.499027</ele>
        <time>2025-02-05T15:46:58.432Z</time>
      </trkpt>
      <trkpt lat="48.937597" lon="2.310218">
        <ele>30.532001</ele>
        <time>2025-02-05T15:47:01.610Z</time>
      </trkpt>
      <trkpt lat="48.937672" lon="2.310445">
        <ele>30.569793</ele>
        <time>2025-02-05T15:47:05.264Z</time>
      </trkpt>
      <trkpt lat="48.937693" lon="2.310672">
        <ele>30.603888</ele>
        <time>2025-02-05T15:47:08.578Z</time>
      </trkpt>
      <trkpt lat="48.937687" lon="2.310942">
        <ele>30.646003</ele>
        <time>2025-02-05T15:47:12.630Z</time>
      </trkpt>
      <trkpt lat="48.937643" lon="2.311273">
        <ele>30.829717</ele>
        <time>2025-02-05T15:47:18.350Z</time>
      </trkpt>
      <trkpt lat="48.937447" lon="2.312405">
        <ele>31.466561</ele>
        <time>2025-02-05T15:47:40.036Z</time>
      </trkpt>
      <trkpt lat="48.937420" lon="2.312631">
        <ele>31.591523</ele>
        <time>2025-02-05T15:47:44.415Z</time>
      </trkpt>
      <trkpt lat="48.937467" lon="2.312966">
        <ele>31.777874</ele>
        <time>2025-02-05T15:47:51.037Z</time>
      </trkpt>
      <trkpt lat="48.937563" lon="2.313321">
        <ele>31.986720</ele>
        <time>2025-02-05T15:47:57.849Z</time>
      </trkpt>
      <trkpt lat="48.937774" lon="2.313794">
        <ele>32.047267</ele>
        <time>2025-02-05T15:48:07.301Z</time>
      </trkpt>
      <trkpt lat="48.937886" lon="2.313827">
        <ele>31.998190</ele>
        <time>2025-02-05T15:48:09.933Z</time>
      </trkpt>
      <trkpt lat="48.938431" lon="2.314066">
        <ele>31.754194</ele>
        <time>2025-02-05T15:48:21.675Z</time>
      </trkpt>
      <trkpt lat="48.938483" lon="2.314101">
        <ele>31.729734</ele>
        <time>2025-02-05T15:48:22.790Z</time>
      </trkpt>
      <trkpt lat="48.938592" lon="2.314324">
        <ele>31.651185</ele>
        <time>2025-02-05T15:48:26.372Z</time>
      </trkpt>
      <trkpt lat="48.938604" lon="2.314357">
        <ele>31.640526</ele>
        <time>2025-02-05T15:48:26.857Z</time>
      </trkpt>
      <trkpt lat="48.938607" lon="2.314496">
        <ele>31.601225</ele>
        <time>2025-02-05T15:48:29.960Z</time>
      </trkpt>
      <trkpt lat="48.938794" lon="2.315073">
        <ele>31.419406</ele>
        <time>2025-02-05T15:48:44.556Z</time>
      </trkpt>
      <trkpt lat="48.938811" lon="2.315365">
        <ele>31.333452</ele>
        <time>2025-02-05T15:48:51.401Z</time>
      </trkpt>
      <trkpt lat="48.938827" lon="2.315631">
        <ele>31.247541</ele>
        <time>2025-02-05T15:48:57.739Z</time>
      </trkpt>
      <trkpt lat="48.938921" lon="2.315996">
        <ele>31.121448</ele>
        <time>2025-02-05T15:49:07.048Z</time>
      </trkpt>
      <trkpt lat="48.939038" lon="2.316295">
        <ele>31.009512</ele>
        <time>2025-02-05T15:49:15.219Z</time>
      </trkpt>
      <trkpt lat="48.939123" lon="2.316694">
        <ele>30.874604</ele>
        <time>2025-02-05T15:49:20.922Z</time>
      </trkpt>
      <trkpt lat="48.939226" lon="2.317528">
        <ele>30.601670</ele>
        <time>2025-02-05T15:49:32.538Z</time>
      </trkpt>
      <trkpt lat="48.939350" lon="2.317858">
        <ele>30.479395</ele>
        <time>2025-02-05T15:49:37.913Z</time>
      </trkpt>
      <trkpt lat="48.939396" lon="2.318113">
        <ele>30.460085</ele>
        <time>2025-02-05T15:49:41.649Z</time>
      </trkpt>
      <trkpt lat="48.939418" lon="2.318811">
        <ele>30.411042</ele>
        <time>2025-02-05T15:49:51.554Z</time>
      </trkpt>
      <trkpt lat="48.939449" lon="2.319014">
        <ele>30.396415</ele>
        <time>2025-02-05T15:49:54.545Z</time>
      </trkpt>
      <trkpt lat="48.939576" lon="2.319493">
        <ele>30.360163</ele>
        <time>2025-02-05T15:50:02.033Z</time>
      </trkpt>
      <trkpt lat="48.939844" lon="2.320490">
        <ele>30.285668</ele>
        <time>2025-02-05T15:50:18.006Z</time>
      </trkpt>
      <trkpt lat="48.940300" lon="2.320311">
        <ele>30.268184</ele>
        <time>2025-02-05T15:50:28.359Z</time>
      </trkpt>
      <trkpt lat="48.940636" lon="2.320249">
        <ele>30.255617</ele>
        <time>2025-02-05T15:50:35.751Z</time>
      </trkpt>
      <trkpt lat="48.940722" lon="2.321307">
        <ele>30.229618</ele>
        <time>2025-02-05T15:50:50.943Z</time>
      </trkpt>
      <trkpt lat="48.940777" lon="2.321270">
        <ele>30.227386</ele>
        <time>2025-02-05T15:50:52.255Z</time>
      </trkpt>
      <trkpt lat="48.940818" lon="2.321191">
        <ele>30.224930</ele>
        <time>2025-02-05T15:50:53.702Z</time>
      </trkpt>
      <trkpt lat="48.940820" lon="2.320906">
        <ele>30.229064</ele>
        <time>2025-02-05T15:50:58.035Z</time>
      </trkpt>
      <trkpt lat="48.940820" lon="2.320895">
        <ele>30.230781</ele>
        <time>2025-02-05T15:50:58.209Z</time>
      </trkpt>
      <trkpt lat="48.940845" lon="2.320756">
        <ele>30.253275</ele>
        <time>2025-02-05T15:51:00.541Z</time>
      </trkpt>
      <trkpt lat="48.940813" lon="2.320319">
        <ele>30.321905</ele>
        <time>2025-02-05T15:51:07.885Z</time>
      </trkpt>
      <trkpt lat="48.941026" lon="2.319978">
        <ele>30.395352</ele>
        <time>2025-02-05T15:51:15.545Z</time>
      </trkpt>
      <trkpt lat="48.941043" lon="2.320027">
        <ele>30.404001</ele>
        <time>2025-02-05T15:51:16.450Z</time>
      </trkpt>
      <trkpt lat="48.941052" lon="2.320054">
        <ele>30.408727</ele>
        <time>2025-02-05T15:51:18.901Z</time>
      </trkpt>
      <trkpt lat="48.941069" lon="2.320102">
        <ele>30.417239</ele>
        <time>2025-02-05T15:51:19.778Z</time>
      </trkpt>
      <trkpt lat="48.940994" lon="2.320281">
        <ele>30.450377</ele>
        <time>2025-02-05T15:51:23.093Z</time>
      </trkpt>
      <trkpt lat="48.940996" lon="2.320486">
        <ele>30.482377</ele>
        <time>2025-02-05T15:51:26.214Z</time>
      </trkpt>
      <trkpt lat="48.940999" lon="2.320500">
        <ele>30.484676</ele>
        <time>2025-02-05T15:51:26.444Z</time>
      </trkpt>
      <trkpt lat="48.941038" lon="2.320629">
        <ele>30.506841</ele>
        <time>2025-02-05T15:51:28.562Z</time>
      </trkpt>
      <trkpt lat="48.941220" lon="2.320887">
        <ele>30.565933</ele>
        <time>2025-02-05T15:51:34.316Z</time>
      </trkpt>
      <trkpt lat="48.941787" lon="2.321627">
        <ele>30.459432</ele>
        <time>2025-02-05T15:51:51.447Z</time>
      </trkpt>
      <trkpt lat="48.941933" lon="2.321718">
        <ele>30.386625</ele>
        <time>2025-02-05T15:51:54.793Z</time>
      </trkpt>
      <trkpt lat="48.942165" lon="2.321612">
        <ele>30.274840</ele>
        <time>2025-02-05T15:51:59.759Z</time>
      </trkpt>
      <trkpt lat="48.942317" lon="2.321584">
        <ele>30.204181</ele>
        <time>2025-02-05T15:52:02.822Z</time>
      </trkpt>
      <trkpt lat="48.942384" lon="2.321630">
        <ele>30.170262</ele>
        <time>2025-02-05T15:52:04.304Z</time>
      </trkpt>
      <trkpt lat="48.942468" lon="2.321801">
        <ele>30.105535</ele>
        <time>2025-02-05T15:52:07.132Z</time>
      </trkpt>
      <trkpt lat="48.942470" lon="2.322011">
        <ele>30.041874</ele>
        <time>2025-02-05T15:52:09.922Z</time>
      </trkpt>
      <trkpt lat="48.942257" lon="2.322273">
        <ele>29.915501</ele>
        <time>2025-02-05T15:52:15.493Z</time>
      </trkpt>
      <trkpt lat="48.942081" lon="2.322591">
        <ele>29.804438</ele>
        <time>2025-02-05T15:52:21.154Z</time>
      </trkpt>
      <trkpt lat="48.942066" lon="2.322873">
        <ele>29.765663</ele>
        <time>2025-02-05T15:52:25.025Z</time>
      </trkpt>
      <trkpt lat="48.942089" lon="2.322932">
        <ele>29.756260</ele>
        <time>2025-02-05T15:52:25.972Z</time>
      </trkpt>
      <trkpt lat="48.942374" lon="2.323154">
        <ele>29.689461</ele>
        <time>2025-02-05T15:52:32.752Z</time>
      </trkpt>
      <trkpt lat="48.942731" lon="2.323500">
        <ele>29.601157</ele>
        <time>2025-02-05T15:52:42.042Z</time>
      </trkpt>
      <trkpt lat="48.942954" lon="2.323569">
        <ele>29.553674</ele>
        <time>2025-02-05T15:52:47.211Z</time>
      </trkpt>
      <trkpt lat="48.943043" lon="2.323592">
        <ele>29.534838</ele>
        <time>2025-02-05T15:52:49.275Z</time>
      </trkpt>
      <trkpt lat="48.943333" lon="2.323715">
        <ele>29.472023</ele>
        <time>2025-02-05T15:52:56.057Z</time>
      </trkpt>
      <trkpt lat="48.943883" lon="2.324315">
        <ele>29.307836</ele>
        <time>2025-02-05T15:53:11.005Z</time>
      </trkpt>
      <trkpt lat="48.943987" lon="2.324348">
        <ele>29.281060</ele>
        <time>2025-02-05T15:53:13.313Z</time>
      </trkpt>
      <trkpt lat="48.944279" lon="2.324348">
        <ele>29.207465</ele>
        <time>2025-02-05T15:53:19.398Z</time>
      </trkpt>
      <trkpt lat="48.945065" lon="2.324360">
        <ele>29.009352</ele>
        <time>2025-02-05T15:53:35.794Z</time>
      </trkpt>
      <trkpt lat="48.945065" lon="2.324360">
        <ele>29.009352</ele>
        <time>2025-02-05T15:53:35.794Z</time>
      </trkpt>
      <trkpt lat="48.945217" lon="2.324398">
        <ele>28.987068</ele>
        <time>2025-02-05T15:53:39.177Z</time>
      </trkpt>
      <trkpt lat="48.945321" lon="2.324371">
        <ele>28.985400</ele>
        <time>2025-02-05T15:53:41.494Z</time>
      </trkpt>
      <trkpt lat="48.945402" lon="2.324192">
        <ele>28.983143</ele>
        <time>2025-02-05T15:53:44.791Z</time>
      </trkpt>
      <trkpt lat="48.945448" lon="2.323982">
        <ele>28.980845</ele>
        <time>2025-02-05T15:53:48.223Z</time>
      </trkpt>
      <trkpt lat="48.945580" lon="2.323035">
        <ele>28.970793</ele>
        <time>2025-02-05T15:54:04.404Z</time>
      </trkpt>
      <trkpt lat="48.945699" lon="2.322195">
        <ele>28.961871</ele>
        <time>2025-02-05T15:54:18.804Z</time>
      </trkpt>
      <trkpt lat="48.945909" lon="2.321022">
        <ele>28.769660</ele>
        <time>2025-02-05T15:54:47.728Z</time>
      </trkpt>
      <trkpt lat="48.945925" lon="2.320618">
        <ele>28.693535</ele>
        <time>2025-02-05T15:54:57.132Z</time>
      </trkpt>
      <trkpt lat="48.945930" lon="2.320493">
        <ele>28.669981</ele>
        <time>2025-02-05T15:55:00.027Z</time>
      </trkpt>
      <trkpt lat="48.945969" lon="2.320310">
        <ele>28.633794</ele>
        <time>2025-02-05T15:55:04.495Z</time>
      </trkpt>
      <trkpt lat="48.946050" lon="2.320105">
        <ele>28.588796</ele>
        <time>2025-02-05T15:55:10.127Z</time>
      </trkpt>
      <trkpt lat="48.946133" lon="2.319640">
        <ele>28.498163</ele>
        <time>2025-02-05T15:55:21.657Z</time>
      </trkpt>
      <trkpt lat="48.946161" lon="2.319316">
        <ele>28.443629</ele>
        <time>2025-02-05T15:55:29.731Z</time>
      </trkpt>
      <trkpt lat="48.946360" lon="2.317677">
        <ele>28.403676</ele>
        <time>2025-02-05T15:56:10.279Z</time>
      </trkpt>
      <trkpt lat="48.946393" lon="2.317434">
        <ele>28.397728</ele>
        <time>2025-02-05T15:56:16.373Z</time>
      </trkpt>
      <trkpt lat="48.946528" lon="2.316982">
        <ele>28.385826</ele>
        <time>2025-02-05T15:56:28.456Z</time>
      </trkpt>
      <trkpt lat="48.946549" lon="2.316840">
        <ele>28.382337</ele>
        <time>2025-02-05T15:56:31.982Z</time>
      </trkpt>
      <trkpt lat="48.946599" lon="2.316189">
        <ele>28.385563</ele>
        <time>2025-02-05T15:56:47.792Z</time>
      </trkpt>
      <trkpt lat="48.946582" lon="2.315851">
        <ele>28.389876</ele>
        <time>2025-02-05T15:56:55.932Z</time>
      </trkpt>
      <trkpt lat="48.946806" lon="2.314681">
        <ele>28.405384</ele>
        <time>2025-02-05T15:57:25.973Z</time>
      </trkpt>
      <trkpt lat="48.946837" lon="2.314159">
        <ele>28.412054</ele>
        <time>2025-02-05T15:57:39.026Z</time>
      </trkpt>
      <trkpt lat="48.946949" lon="2.313665">
        <ele>28.358115</ele>
        <time>2025-02-05T15:57:51.679Z</time>
      </trkpt>
      <trkpt lat="48.946953" lon="2.313647">
        <ele>28.355341</ele>
        <time>2025-02-05T15:57:52.143Z</time>
      </trkpt>
      <trkpt lat="48.947083" lon="2.313264">
        <ele>28.292413</ele>
        <time>2025-02-05T15:58:02.408Z</time>
      </trkpt>
      <trkpt lat="48.947101" lon="2.313063">
        <ele>28.262803</ele>
        <time>2025-02-05T15:58:05.274Z</time>
      </trkpt>
      <trkpt lat="48.947103" lon="2.312752">
        <ele>28.217407</ele>
        <time>2025-02-05T15:58:09.715Z</time>
      </trkpt>
      <trkpt lat="48.947246" lon="2.312314">
        <ele>28.146012</ele>
        <time>2025-02-05T15:58:16.694Z</time>
      </trkpt>
      <trkpt lat="48.947306" lon="2.311990">
        <ele>28.096876</ele>
        <time>2025-02-05T15:58:21.450Z</time>
      </trkpt>
      <trkpt lat="48.947378" lon="2.311595">
        <ele>28.037042</ele>
        <time>2025-02-05T15:58:27.203Z</time>
      </trkpt>
      <trkpt lat="48.947537" lon="2.311058">
        <ele>27.918273</ele>
        <time>2025-02-05T15:58:35.288Z</time>
      </trkpt>
      <trkpt lat="48.947662" lon="2.310295">
        <ele>27.743788</ele>
        <time>2025-02-05T15:58:46.119Z</time>
      </trkpt>
      <trkpt lat="48.947869" lon="2.309569">
        <ele>27.568175</ele>
        <time>2025-02-05T15:58:57.153Z</time>
      </trkpt>
      <trkpt lat="48.947923" lon="2.309133">
        <ele>27.469730</ele>
        <time>2025-02-05T15:59:03.329Z</time>
      </trkpt>
      <trkpt lat="48.948076" lon="2.308742">
        <ele>27.425618</ele>
        <time>2025-02-05T15:59:09.780Z</time>
      </trkpt>
      <trkpt lat="48.948141" lon="2.308487">
        <ele>27.456521</ele>
        <time>2025-02-05T15:59:13.720Z</time>
      </trkpt>
      <trkpt lat="48.948204" lon="2.308025">
        <ele>27.509831</ele>
        <time>2025-02-05T15:59:20.972Z</time>
      </trkpt>
      <trkpt lat="48.948547" lon="2.306738">
        <ele>27.666750</ele>
        <time>2025-02-05T15:59:42.717Z</time>
      </trkpt>
      <trkpt lat="48.948519" lon="2.306612">
        <ele>27.681778</ele>
        <time>2025-02-05T15:59:44.842Z</time>
      </trkpt>
      <trkpt lat="48.948461" lon="2.306575">
        <ele>27.692596</ele>
        <time>2025-02-05T15:59:46.329Z</time>
      </trkpt>
      <trkpt lat="48.948254" lon="2.306446">
        <ele>27.726974</ele>
        <time>2025-02-05T15:59:52.303Z</time>
      </trkpt>
      <trkpt lat="48.947756" lon="2.305957">
        <ele>27.801470</ele>
        <time>2025-02-05T16:00:07.735Z</time>
      </trkpt>
      <trkpt lat="48.947586" lon="2.305854">
        <ele>27.824471</ele>
        <time>2025-02-05T16:00:12.544Z</time>
      </trkpt>
      <trkpt lat="48.947187" lon="2.305748">
        <ele>27.875389</ele>
        <time>2025-02-05T16:00:22.383Z</time>
      </trkpt>
      <trkpt lat="48.946830" lon="2.305470">
        <ele>27.925798</ele>
        <time>2025-02-05T16:00:32.085Z</time>
      </trkpt>
      <trkpt lat="48.946642" lon="2.305263">
        <ele>27.973694</ele>
        <time>2025-02-05T16:00:37.962Z</time>
      </trkpt>
      <trkpt lat="48.946560" lon="2.305210">
        <ele>28.001027</ele>
        <time>2025-02-05T16:00:40.202Z</time>
      </trkpt>
      <trkpt lat="48.946417" lon="2.305119">
        <ele>28.048581</ele>
        <time>2025-02-05T16:00:43.804Z</time>
      </trkpt>
      <trkpt lat="48.946366" lon="2.305046">
        <ele>28.070058</ele>
        <time>2025-02-05T16:00:45.474Z</time>
      </trkpt>
      <trkpt lat="48.946299" lon="2.304788">
        <ele>28.125965</ele>
        <time>2025-02-05T16:00:49.659Z</time>
      </trkpt>
      <trkpt lat="48.946304" lon="2.304728">
        <ele>28.138153</ele>
        <time>2025-02-05T16:00:50.541Z</time>
      </trkpt>
      <trkpt lat="48.946296" lon="2.304695">
        <ele>28.145241</ele>
        <time>2025-02-05T16:00:51.095Z</time>
      </trkpt>
      <trkpt lat="48.946286" lon="2.304652">
        <ele>28.154433</ele>
        <time>2025-02-05T16:00:51.805Z</time>
      </trkpt>
      <trkpt lat="48.946289" lon="2.304634">
        <ele>28.158176</ele>
        <time>2025-02-05T16:00:52.187Z</time>
      </trkpt>
      <trkpt lat="48.946292" lon="2.304615">
        <ele>28.162113</ele>
        <time>2025-02-05T16:00:52.584Z</time>
      </trkpt>
      <trkpt lat="48.946303" lon="2.304569">
        <ele>28.171978</ele>
        <time>2025-02-05T16:00:53.559Z</time>
      </trkpt>
      <trkpt lat="48.946453" lon="2.304662">
        <ele>28.221672</ele>
        <time>2025-02-05T16:00:57.381Z</time>
      </trkpt>
      <trkpt lat="48.946730" lon="2.304768">
        <ele>28.309306</ele>
        <time>2025-02-05T16:01:04.233Z</time>
      </trkpt>
      <trkpt lat="48.947673" lon="2.305306">
        <ele>28.414267</ele>
        <time>2025-02-05T16:01:29.705Z</time>
      </trkpt>
      <trkpt lat="48.947764" lon="2.305359">
        <ele>28.395154</ele>
        <time>2025-02-05T16:01:32.041Z</time>
      </trkpt>
      <trkpt lat="48.948572" lon="2.305842">
        <ele>28.224868</ele>
        <time>2025-02-05T16:01:49.764Z</time>
      </trkpt>
      <trkpt lat="48.949163" lon="2.306224">
        <ele>28.341338</ele>
        <time>2025-02-05T16:02:03.252Z</time>
      </trkpt>
      <trkpt lat="48.949573" lon="2.306472">
        <ele>28.753461</ele>
        <time>2025-02-05T16:02:14.033Z</time>
      </trkpt>
      <trkpt lat="48.949902" lon="2.306628">
        <ele>29.075359</ele>
        <time>2025-02-05T16:02:23.179Z</time>
      </trkpt>
      <trkpt lat="48.950036" lon="2.306721">
        <ele>29.212928</ele>
        <time>2025-02-05T16:02:27.518Z</time>
      </trkpt>
      <trkpt lat="48.950324" lon="2.306803">
        <ele>29.486632</ele>
        <time>2025-02-05T16:02:37.030Z</time>
      </trkpt>
      <trkpt lat="48.950491" lon="2.306849">
        <ele>29.645170</ele>
        <time>2025-02-05T16:02:42.826Z</time>
      </trkpt>
      <trkpt lat="48.950500" lon="2.306957">
        <ele>29.711957</ele>
        <time>2025-02-05T16:02:45.368Z</time>
      </trkpt>
      <trkpt lat="48.950509" lon="2.307616">
        <ele>29.719248</ele>
        <time>2025-02-05T16:02:59.268Z</time>
      </trkpt>
      <trkpt lat="48.950418" lon="2.307610">
        <ele>29.689842</ele>
        <time>2025-02-05T16:03:01.713Z</time>
      </trkpt>
      <trkpt lat="48.950203" lon="2.307661">
        <ele>29.619595</ele>
        <time>2025-02-05T16:03:06.876Z</time>
      </trkpt>
      <trkpt lat="48.950037" lon="2.307876">
        <ele>29.549240</ele>
        <time>2025-02-05T16:03:11.435Z</time>
      </trkpt>
      <trkpt lat="48.949925" lon="2.307902">
        <ele>29.512664</ele>
        <time>2025-02-05T16:03:13.789Z</time>
      </trkpt>
      <trkpt lat="48.949790" lon="2.307828">
        <ele>29.466343</ele>
        <time>2025-02-05T16:03:16.674Z</time>
      </trkpt>
      <trkpt lat="48.949756" lon="2.307824">
        <ele>29.455334</ele>
        <time>2025-02-05T16:03:17.327Z</time>
      </trkpt>
      <trkpt lat="48.949717" lon="2.307867">
        <ele>29.439790</ele>
        <time>2025-02-05T16:03:18.281Z</time>
      </trkpt>
      <trkpt lat="48.949287" lon="2.309143">
        <ele>28.943885</ele>
        <time>2025-02-05T16:03:35.740Z</time>
      </trkpt>
      <trkpt lat="48.949135" lon="2.310059">
        <ele>28.377049</ele>
        <time>2025-02-05T16:03:47.508Z</time>
      </trkpt>
      <trkpt lat="48.949002" lon="2.310233">
        <ele>28.216858</ele>
        <time>2025-02-05T16:03:50.955Z</time>
      </trkpt>
      <trkpt lat="48.948910" lon="2.310410">
        <ele>28.081429</ele>
        <time>2025-02-05T16:03:53.976Z</time>
      </trkpt>
      <trkpt lat="48.948718" lon="2.311103">
        <ele>27.630168</ele>
        <time>2025-02-05T16:04:04.761Z</time>
      </trkpt>
      <trkpt lat="48.948690" lon="2.311475">
        <ele>27.734236</ele>
        <time>2025-02-05T16:04:10.888Z</time>
      </trkpt>
      <trkpt lat="48.948594" lon="2.311725">
        <ele>27.858159</ele>
        <time>2025-02-05T16:04:15.968Z</time>
      </trkpt>
      <trkpt lat="48.948436" lon="2.312480">
        <ele>28.197237</ele>
        <time>2025-02-05T16:04:31.784Z</time>
      </trkpt>
      <trkpt lat="48.948420" lon="2.312650">
        <ele>28.270725</ele>
        <time>2025-02-05T16:04:34.864Z</time>
      </trkpt>
      <trkpt lat="48.948436" lon="2.313054">
        <ele>28.443915</ele>
        <time>2025-02-05T16:04:41.708Z</time>
      </trkpt>
      <trkpt lat="48.948560" lon="2.313335">
        <ele>28.588781</ele>
        <time>2025-02-05T16:04:47.109Z</time>
      </trkpt>
      <trkpt lat="48.948611" lon="2.313604">
        <ele>28.708589</ele>
        <time>2025-02-05T16:04:51.478Z</time>
      </trkpt>
      <trkpt lat="48.948585" lon="2.313736">
        <ele>28.767559</ele>
        <time>2025-02-05T16:04:53.551Z</time>
      </trkpt>
      <trkpt lat="48.948515" lon="2.313858">
        <ele>28.682938</ele>
        <time>2025-02-05T16:04:55.958Z</time>
      </trkpt>
      <trkpt lat="48.948414" lon="2.313865">
        <ele>28.598683</ele>
        <time>2025-02-05T16:04:58.387Z</time>
      </trkpt>
      <trkpt lat="48.948276" lon="2.313942">
        <ele>28.476202</ele>
        <time>2025-02-05T16:05:01.900Z</time>
      </trkpt>
      <trkpt lat="48.948169" lon="2.314076">
        <ele>28.360749</ele>
        <time>2025-02-05T16:05:05.178Z</time>
      </trkpt>
      <trkpt lat="48.948112" lon="2.314208">
        <ele>28.274289</ele>
        <time>2025-02-05T16:05:07.630Z</time>
      </trkpt>
      <trkpt lat="48.948025" lon="2.314583">
        <ele>28.056623</ele>
        <time>2025-02-05T16:05:13.364Z</time>
      </trkpt>
      <trkpt lat="48.947922" lon="2.315382">
        <ele>27.610986</ele>
        <time>2025-02-05T16:05:24.552Z</time>
      </trkpt>
      <trkpt lat="48.947926" lon="2.315841">
        <ele>27.359754</ele>
        <time>2025-02-05T16:05:31.255Z</time>
      </trkpt>
      <trkpt lat="48.947751" lon="2.316173">
        <ele>27.246686</ele>
        <time>2025-02-05T16:05:37.661Z</time>
      </trkpt>
      <trkpt lat="48.947702" lon="2.316297">
        <ele>27.233595</ele>
        <time>2025-02-05T16:05:39.887Z</time>
      </trkpt>
      <trkpt lat="48.947512" lon="2.317489">
        <ele>27.122638</ele>
        <time>2025-02-05T16:05:59.155Z</time>
      </trkpt>
      <trkpt lat="48.947481" lon="2.318089">
        <ele>27.068195</ele>
        <time>2025-02-05T16:06:09.835Z</time>
      </trkpt>
      <trkpt lat="48.947387" lon="2.318497">
        <ele>27.029083</ele>
        <time>2025-02-05T16:06:17.793Z</time>
      </trkpt>
      <trkpt lat="48.947283" lon="2.319114">
        <ele>27.000635</ele>
        <time>2025-02-05T16:06:28.598Z</time>
      </trkpt>
      <trkpt lat="48.947185" lon="2.319902">
        <ele>26.969400</ele>
        <time>2025-02-05T16:06:41.612Z</time>
      </trkpt>
      <trkpt lat="48.947026" lon="2.320353">
        <ele>26.949464</ele>
        <time>2025-02-05T16:06:49.701Z</time>
      </trkpt>
      <trkpt lat="48.946987" lon="2.320549">
        <ele>26.941488</ele>
        <time>2025-02-05T16:06:52.895Z</time>
      </trkpt>
      <trkpt lat="48.946378" lon="2.324312">
        <ele>26.413896</ele>
        <time>2025-02-05T16:07:53.912Z</time>
      </trkpt>
      <trkpt lat="48.946097" lon="2.325566">
        <ele>26.245340</ele>
        <time>2025-02-05T16:08:14.884Z</time>
      </trkpt>
      <trkpt lat="48.946078" lon="2.325882">
        <ele>26.204972</ele>
        <time>2025-02-05T16:08:19.862Z</time>
      </trkpt>
      <trkpt lat="48.945754" lon="2.327355">
        <ele>26.050561</ele>
        <time>2025-02-05T16:08:42.426Z</time>
      </trkpt>
      <trkpt lat="48.945754" lon="2.327355">
        <ele>26.050561</ele>
        <time>2025-02-05T16:08:42.426Z</time>
      </trkpt>
      <trkpt lat="48.945716" lon="2.327507">
        <ele>26.037343</ele>
        <time>2025-02-05T16:08:44.796Z</time>
      </trkpt>
      <trkpt lat="48.945667" lon="2.327660">
        <ele>26.023510</ele>
        <time>2025-02-05T16:08:47.257Z</time>
      </trkpt>
      <trkpt lat="48.945399" lon="2.328695">
        <ele>25.933097</ele>
        <time>2025-02-05T16:09:03.181Z</time>
      </trkpt>
      <trkpt lat="48.945284" lon="2.328985">
        <ele>25.905566</ele>
        <time>2025-02-05T16:09:07.985Z</time>
      </trkpt>
      <trkpt lat="48.945066" lon="2.329671">
        <ele>25.815208</ele>
        <time>2025-02-05T16:09:18.708Z</time>
      </trkpt>
      <trkpt lat="48.944705" lon="2.330623">
        <ele>25.684094</ele>
        <time>2025-02-05T16:09:33.949Z</time>
      </trkpt>
      <trkpt lat="48.944333" lon="2.331712">
        <ele>25.644499</ele>
        <time>2025-02-05T16:09:52.229Z</time>
      </trkpt>
      <trkpt lat="48.944215" lon="2.331942">
        <ele>25.702417</ele>
        <time>2025-02-05T16:09:56.862Z</time>
      </trkpt>
      <trkpt lat="48.943856" lon="2.332638">
        <ele>25.878038</ele>
        <time>2025-02-05T16:10:11.125Z</time>
      </trkpt>
      <trkpt lat="48.943181" lon="2.333722">
        <ele>26.287980</ele>
        <time>2025-02-05T16:10:33.840Z</time>
      </trkpt>
      <trkpt lat="48.942837" lon="2.334173">
        <ele>26.717627</ele>
        <time>2025-02-05T16:10:45.953Z</time>
      </trkpt>
      <trkpt lat="48.942822" lon="2.334265">
        <ele>26.776553</ele>
        <time>2025-02-05T16:10:47.619Z</time>
      </trkpt>
      <trkpt lat="48.942841" lon="2.334322">
        <ele>26.816287</ele>
        <time>2025-02-05T16:10:48.815Z</time>
      </trkpt>
      <trkpt lat="48.942849" lon="2.334506">
        <ele>26.930918</ele>
        <time>2025-02-05T16:10:52.534Z</time>
      </trkpt>
      <trkpt lat="48.942877" lon="2.334578">
        <ele>26.982932</ele>
        <time>2025-02-05T16:10:54.286Z</time>
      </trkpt>
      <trkpt lat="48.942563" lon="2.335085">
        <ele>27.416114</ele>
        <time>2025-02-05T16:11:09.023Z</time>
      </trkpt>
      <trkpt lat="48.942595" lon="2.335175">
        <ele>27.479732</ele>
        <time>2025-02-05T16:11:11.084Z</time>
      </trkpt>
      <trkpt lat="48.942543" lon="2.335269">
        <ele>27.556130</ele>
        <time>2025-02-05T16:11:13.421Z</time>
      </trkpt>
      <trkpt lat="48.942622" lon="2.335376">
        <ele>27.656202</ele>
        <time>2025-02-05T16:11:16.376Z</time>
      </trkpt>
      <trkpt lat="48.942691" lon="2.335512">
        <ele>27.763029</ele>
        <time>2025-02-05T16:11:19.602Z</time>
      </trkpt>
      <trkpt lat="48.942988" lon="2.335905">
        <ele>27.676036</ele>
        <time>2025-02-05T16:11:30.758Z</time>
      </trkpt>
      <trkpt lat="48.943174" lon="2.336171">
        <ele>27.561823</ele>
        <time>2025-02-05T16:11:36.960Z</time>
      </trkpt>
      <trkpt lat="48.943238" lon="2.336263">
        <ele>27.522428</ele>
        <time>2025-02-05T16:11:38.893Z</time>
      </trkpt>
      <trkpt lat="48.943249" lon="2.336279">
        <ele>27.515619</ele>
        <time>2025-02-05T16:11:40.817Z</time>
      </trkpt>
      <trkpt lat="48.943263" lon="2.336298">
        <ele>27.507225</ele>
        <time>2025-02-05T16:11:41.215Z</time>
      </trkpt>
      <trkpt lat="48.943313" lon="2.336370">
        <ele>27.476423</ele>
        <time>2025-02-05T16:11:42.703Z</time>
      </trkpt>
      <trkpt lat="48.943235" lon="2.336473">
        <ele>27.430211</ele>
        <time>2025-02-05T16:11:44.676Z</time>
      </trkpt>
      <trkpt lat="48.942716" lon="2.337128">
        <ele>27.128494</ele>
        <time>2025-02-05T16:11:57.865Z</time>
      </trkpt>
      <trkpt lat="48.942388" lon="2.337475">
        <ele>26.935442</ele>
        <time>2025-02-05T16:12:05.458Z</time>
      </trkpt>
      <trkpt lat="48.942116" lon="2.337688">
        <ele>26.770110</ele>
        <time>2025-02-05T16:12:11.674Z</time>
      </trkpt>
      <trkpt lat="48.941935" lon="2.337825">
        <ele>26.660851</ele>
        <time>2025-02-05T16:12:15.836Z</time>
      </trkpt>
      <trkpt lat="48.940317" lon="2.339001">
        <ele>25.802324</ele>
        <time>2025-02-05T16:12:54.636Z</time>
      </trkpt>
      <trkpt lat="48.939904" lon="2.339242">
        <ele>25.637821</ele>
        <time>2025-02-05T16:13:03.959Z</time>
      </trkpt>
      <trkpt lat="48.939196" lon="2.339675">
        <ele>25.368765</ele>
        <time>2025-02-05T16:13:19.650Z</time>
      </trkpt>
      <trkpt lat="48.938829" lon="2.339833">
        <ele>25.316557</ele>
        <time>2025-02-05T16:13:27.673Z</time>
      </trkpt>
      <trkpt lat="48.938461" lon="2.339992">
        <ele>25.264193</ele>
        <time>2025-02-05T16:13:35.891Z</time>
      </trkpt>
      <trkpt lat="48.937668" lon="2.340248">
        <ele>25.153228</ele>
        <time>2025-02-05T16:13:54.043Z</time>
      </trkpt>
      <trkpt lat="48.936742" lon="2.340568">
        <ele>25.483572</ele>
        <time>2025-02-05T16:14:16.980Z</time>
      </trkpt>
      <trkpt lat="48.935912" lon="2.340867">
        <ele>25.865004</ele>
        <time>2025-02-05T16:14:37.225Z</time>
      </trkpt>
      <trkpt lat="48.935859" lon="2.340845">
        <ele>25.889571</ele>
        <time>2025-02-05T16:14:38.401Z</time>
      </trkpt>
      <trkpt lat="48.935815" lon="2.340758">
        <ele>25.921827</ele>
        <time>2025-02-05T16:14:40.566Z</time>
      </trkpt>
      <trkpt lat="48.935784" lon="2.340760">
        <ele>25.936361</ele>
        <time>2025-02-05T16:14:41.340Z</time>
      </trkpt>
      <trkpt lat="48.935745" lon="2.340847">
        <ele>26.063030</ele>
        <time>2025-02-05T16:14:42.888Z</time>
      </trkpt>
      <trkpt lat="48.935760" lon="2.340900">
        <ele>26.132433</ele>
        <time>2025-02-05T16:14:44.095Z</time>
      </trkpt>
      <trkpt lat="48.935793" lon="2.340928">
        <ele>26.201599</ele>
        <time>2025-02-05T16:14:45.186Z</time>
      </trkpt>
      <trkpt lat="48.935796" lon="2.340994">
        <ele>26.281162</ele>
        <time>2025-02-05T16:14:46.200Z</time>
      </trkpt>
      <trkpt lat="48.935857" lon="2.342573">
        <ele>28.183389</ele>
        <time>2025-02-05T16:15:17.986Z</time>
      </trkpt>
      <trkpt lat="48.935859" lon="2.342605">
        <ele>28.222047</ele>
        <time>2025-02-05T16:15:18.707Z</time>
      </trkpt>
      <trkpt lat="48.935867" lon="2.342706">
        <ele>28.344392</ele>
        <time>2025-02-05T16:15:20.786Z</time>
      </trkpt>
      <trkpt lat="48.935857" lon="2.342721">
        <ele>28.370094</ele>
        <time>2025-02-05T16:15:21.248Z</time>
      </trkpt>
      <trkpt lat="48.935846" lon="2.342752">
        <ele>28.412467</ele>
        <time>2025-02-05T16:15:22.077Z</time>
      </trkpt>
      <trkpt lat="48.935847" lon="2.342823">
        <ele>28.497873</ele>
        <time>2025-02-05T16:15:23.801Z</time>
      </trkpt>
      <trkpt lat="48.935878" lon="2.342878">
        <ele>28.585028</ele>
        <time>2025-02-05T16:15:25.382Z</time>
      </trkpt>
      <trkpt lat="48.935883" lon="2.343041">
        <ele>28.781269</ele>
        <time>2025-02-05T16:15:29.423Z</time>
      </trkpt>
      <trkpt lat="48.935915" lon="2.343917">
        <ele>29.731847</ele>
        <time>2025-02-05T16:15:51.694Z</time>
      </trkpt>
      <trkpt lat="48.935918" lon="2.344101">
        <ele>29.915138</ele>
        <time>2025-02-05T16:15:56.045Z</time>
      </trkpt>
      <trkpt lat="48.935947" lon="2.344820">
        <ele>30.632496</ele>
        <time>2025-02-05T16:16:10.017Z</time>
      </trkpt>
      <trkpt lat="48.935966" lon="2.344991">
        <ele>30.805204</ele>
        <time>2025-02-05T16:16:12.940Z</time>
      </trkpt>
      <trkpt lat="48.935994" lon="2.345645">
        <ele>31.457865</ele>
        <time>2025-02-05T16:16:25.218Z</time>
      </trkpt>
      <trkpt lat="48.935916" lon="2.345962">
        <ele>31.794965</ele>
        <time>2025-02-05T16:16:31.854Z</time>
      </trkpt>
      <trkpt lat="48.935931" lon="2.346176">
        <ele>31.924348</ele>
        <time>2025-02-05T16:16:35.530Z</time>
      </trkpt>
      <trkpt lat="48.935958" lon="2.346279">
        <ele>31.861887</ele>
        <time>2025-02-05T16:16:37.169Z</time>
      </trkpt>
      <trkpt lat="48.935982" lon="2.346344">
        <ele>31.819890</ele>
        <time>2025-02-05T16:16:38.658Z</time>
      </trkpt>
      <trkpt lat="48.936104" lon="2.346678">
        <ele>31.604644</ele>
        <time>2025-02-05T16:16:45.447Z</time>
      </trkpt>
      <trkpt lat="48.936115" lon="2.346708">
        <ele>31.585293</ele>
        <time>2025-02-05T16:16:46.046Z</time>
      </trkpt>
      <trkpt lat="48.936151" lon="2.346812">
        <ele>31.519082</ele>
        <time>2025-02-05T16:16:48.081Z</time>
      </trkpt>
      <trkpt lat="48.936186" lon="2.346785">
        <ele>31.485440</ele>
        <time>2025-02-05T16:16:48.816Z</time>
      </trkpt>
      <trkpt lat="48.936261" lon="2.346729">
        <ele>31.413816</ele>
        <time>2025-02-05T16:16:50.413Z</time>
      </trkpt>
      <trkpt lat="48.936484" lon="2.346613">
        <ele>31.211760</ele>
        <time>2025-02-05T16:16:54.886Z</time>
      </trkpt>
      <trkpt lat="48.936751" lon="2.346418">
        <ele>30.957850</ele>
        <time>2025-02-05T16:17:00.689Z</time>
      </trkpt>
      <trkpt lat="48.937243" lon="2.345834">
        <ele>30.422928</ele>
        <time>2025-02-05T16:17:12.936Z</time>
      </trkpt>
      <trkpt lat="48.937418" lon="2.345616">
        <ele>30.238001</ele>
        <time>2025-02-05T16:17:17.196Z</time>
      </trkpt>
      <trkpt lat="48.937529" lon="2.345521">
        <ele>30.134136</ele>
        <time>2025-02-05T16:17:19.648Z</time>
      </trkpt>
      <trkpt lat="48.937470" lon="2.345429">
        <ele>30.065248</ele>
        <time>2025-02-05T16:17:21.844Z</time>
      </trkpt>
      <trkpt lat="48.937380" lon="2.345393">
        <ele>29.989347</ele>
        <time>2025-02-05T16:17:24.999Z</time>
      </trkpt>
      <trkpt lat="48.938050" lon="2.344517">
        <ele>29.268976</ele>
        <time>2025-02-05T16:17:42.957Z</time>
      </trkpt>
      <trkpt lat="48.939744" lon="2.342573">
        <ele>28.402810</ele>
        <time>2025-02-05T16:18:33.956Z</time>
      </trkpt>
      <trkpt lat="48.940612" lon="2.341505">
        <ele>27.685630</ele>
        <time>2025-02-05T16:18:56.854Z</time>
      </trkpt>
      <trkpt lat="48.940804" lon="2.341211">
        <ele>27.504343</ele>
        <time>2025-02-05T16:19:02.336Z</time>
      </trkpt>
      <trkpt lat="48.940859" lon="2.341151">
        <ele>27.459299</ele>
        <time>2025-02-05T16:19:03.790Z</time>
      </trkpt>
      <trkpt lat="48.941247" lon="2.341217">
        <ele>27.199391</ele>
        <time>2025-02-05T16:19:12.571Z</time>
      </trkpt>
      <trkpt lat="48.941366" lon="2.341098">
        <ele>27.146786</ele>
        <time>2025-02-05T16:19:15.963Z</time>
      </trkpt>
      <trkpt lat="48.941449" lon="2.340804">
        <ele>27.082843</ele>
        <time>2025-02-05T16:19:21.383Z</time>
      </trkpt>
      <trkpt lat="48.941458" lon="2.340576">
        <ele>27.037203</ele>
        <time>2025-02-05T16:19:25.347Z</time>
      </trkpt>
      <trkpt lat="48.941473" lon="2.340501">
        <ele>27.021537</ele>
        <time>2025-02-05T16:19:26.635Z</time>
      </trkpt>
      <trkpt lat="48.941516" lon="2.340443">
        <ele>27.004060</ele>
        <time>2025-02-05T16:19:28.089Z</time>
      </trkpt>
      <trkpt lat="48.941914" lon="2.340079">
        <ele>26.862817</ele>
        <time>2025-02-05T16:19:38.918Z</time>
      </trkpt>
      <trkpt lat="48.942224" lon="2.339824">
        <ele>26.755626</ele>
        <time>2025-02-05T16:19:46.084Z</time>
      </trkpt>
      <trkpt lat="48.942769" lon="2.339359">
        <ele>26.563981</ele>
        <time>2025-02-05T16:20:00.869Z</time>
      </trkpt>
      <trkpt lat="48.942968" lon="2.339196">
        <ele>26.493668</ele>
        <time>2025-02-05T16:20:06.011Z</time>
      </trkpt>
      <trkpt lat="48.943400" lon="2.338744">
        <ele>26.330564</ele>
        <time>2025-02-05T16:20:16.908Z</time>
      </trkpt>
      <trkpt lat="48.943687" lon="2.338465">
        <ele>26.224609</ele>
        <time>2025-02-05T16:20:24.046Z</time>
      </trkpt>
      <trkpt lat="48.943920" lon="2.338146">
        <ele>26.127106</ele>
        <time>2025-02-05T16:20:30.797Z</time>
      </trkpt>
      <trkpt lat="48.944283" lon="2.337531">
        <ele>25.948685</ele>
        <time>2025-02-05T16:20:50.210Z</time>
      </trkpt>
      <trkpt lat="48.944295" lon="2.337607">
        <ele>25.931425</ele>
        <time>2025-02-05T16:20:51.321Z</time>
      </trkpt>
      <trkpt lat="48.944908" lon="2.336637">
        <ele>25.634193</ele>
        <time>2025-02-05T16:21:52.772Z</time>
      </trkpt>
      <trkpt lat="48.945620" lon="2.335508">
        <ele>25.419308</ele>
        <time>2025-02-05T16:23:04.231Z</time>
      </trkpt>
      <trkpt lat="48.945609" lon="2.335406">
        <ele>25.412864</ele>
        <time>2025-02-05T16:23:05.847Z</time>
      </trkpt>
      <trkpt lat="48.945607" lon="2.335250">
        <ele>25.403136</ele>
        <time>2025-02-05T16:23:08.324Z</time>
      </trkpt>
      <trkpt lat="48.945600" lon="2.335152">
        <ele>25.396990</ele>
        <time>2025-02-05T16:23:09.860Z</time>
      </trkpt>
      <trkpt lat="48.946123" lon="2.333544">
        <ele>25.286943</ele>
        <time>2025-02-05T16:23:39.214Z</time>
      </trkpt>
      <trkpt lat="48.946543" lon="2.331957">
        <ele>25.193341</ele>
        <time>2025-02-05T16:24:06.860Z</time>
      </trkpt>
      <trkpt lat="48.946795" lon="2.331014">
        <ele>25.138946</ele>
        <time>2025-02-05T16:24:23.042Z</time>
      </trkpt>
      <trkpt lat="48.947207" lon="2.329525">
        <ele>25.059720</ele>
        <time>2025-02-05T16:24:48.652Z</time>
      </trkpt>
      <trkpt lat="48.948056" lon="2.326406">
        <ele>25.363175</ele>
        <time>2025-02-05T16:25:45.358Z</time>
      </trkpt>
      <trkpt lat="48.948892" lon="2.323615">
        <ele>26.091998</ele>
        <time>2025-02-05T16:26:38.892Z</time>
      </trkpt>
      <trkpt lat="48.949231" lon="2.322366">
        <ele>26.094425</ele>
        <time>2025-02-05T16:27:03.153Z</time>
      </trkpt>
      <trkpt lat="48.949257" lon="2.322130">
        <ele>26.094855</ele>
        <time>2025-02-05T16:27:07.194Z</time>
      </trkpt>
      <trkpt lat="48.949276" lon="2.321877">
        <ele>26.095312</ele>
        <time>2025-02-05T16:27:11.310Z</time>
      </trkpt>
      <trkpt lat="48.949515" lon="2.320807">
        <ele>26.006229</ele>
        <time>2025-02-05T16:27:28.187Z</time>
      </trkpt>
      <trkpt lat="48.949674" lon="2.319988">
        <ele>25.756283</ele>
        <time>2025-02-05T16:27:40.723Z</time>
      </trkpt>
      <trkpt lat="48.949785" lon="2.319237">
        <ele>25.530995</ele>
        <time>2025-02-05T16:27:52.629Z</time>
      </trkpt>
      <trkpt lat="48.949815" lon="2.318992">
        <ele>25.458057</ele>
        <time>2025-02-05T16:27:56.537Z</time>
      </trkpt>
      <trkpt lat="48.950007" lon="2.317995">
        <ele>25.374410</ele>
        <time>2025-02-05T16:28:14.219Z</time>
      </trkpt>
      <trkpt lat="48.950556" lon="2.315124">
        <ele>25.834452</ele>
        <time>2025-02-05T16:29:05.431Z</time>
      </trkpt>
      <trkpt lat="48.951179" lon="2.311920">
        <ele>26.219957</ele>
        <time>2025-02-05T16:30:01.261Z</time>
      </trkpt>
      <trkpt lat="48.951280" lon="2.310647">
        <ele>26.354208</ele>
        <time>2025-02-05T16:30:23.392Z</time>
      </trkpt>
      <trkpt lat="48.951432" lon="2.309687">
        <ele>26.085235</ele>
        <time>2025-02-05T16:30:39.563Z</time>
      </trkpt>
      <trkpt lat="48.951630" lon="2.308823">
        <ele>25.788251</ele>
        <time>2025-02-05T16:30:53.285Z</time>
      </trkpt>
      <trkpt lat="48.951764" lon="2.308054">
        <ele>25.530046</ele>
        <time>2025-02-05T16:31:04.885Z</time>
      </trkpt>
      <trkpt lat="48.951861" lon="2.307334">
        <ele>25.348715</ele>
        <time>2025-02-05T16:31:15.938Z</time>
      </trkpt>
      <trkpt lat="48.951897" lon="2.306990">
        <ele>25.270362</ele>
        <time>2025-02-05T16:31:21.064Z</time>
      </trkpt>
      <trkpt lat="48.951913" lon="2.306841">
        <ele>25.236402</ele>
        <time>2025-02-05T16:31:23.165Z</time>
      </trkpt>
      <trkpt lat="48.951957" lon="2.306428">
        <ele>25.142291</ele>
        <time>2025-02-05T16:31:28.814Z</time>
      </trkpt>
      <trkpt lat="48.952029" lon="2.305719">
        <ele>24.980920</ele>
        <time>2025-02-05T16:31:38.710Z</time>
      </trkpt>
      <trkpt lat="48.952070" lon="2.305578">
        <ele>24.946235</ele>
        <time>2025-02-05T16:31:41.121Z</time>
      </trkpt>
      <trkpt lat="48.952144" lon="2.305005">
        <ele>24.925405</ele>
        <time>2025-02-05T16:31:50.322Z</time>
      </trkpt>
      <trkpt lat="48.952468" lon="2.301721">
        <ele>25.817064</ele>
        <time>2025-02-05T16:32:44.880Z</time>
      </trkpt>
      <trkpt lat="48.952507" lon="2.300292">
        <ele>26.035178</ele>
        <time>2025-02-05T16:33:06.177Z</time>
      </trkpt>
      <trkpt lat="48.952443" lon="2.297520">
        <ele>26.400030</ele>
        <time>2025-02-05T16:33:47.262Z</time>
      </trkpt>
      <trkpt lat="48.952370" lon="2.297075">
        <ele>26.458155</ele>
        <time>2025-02-05T16:33:54.787Z</time>
      </trkpt>
      <trkpt lat="48.952320" lon="2.296364">
        <ele>26.690475</ele>
        <time>2025-02-05T16:34:06.900Z</time>
      </trkpt>
      <trkpt lat="48.952241" lon="2.294161">
        <ele>27.352409</ele>
        <time>2025-02-05T16:34:43.281Z</time>
      </trkpt>
      <trkpt lat="48.952055" lon="2.291771">
        <ele>27.073942</ele>
        <time>2025-02-05T16:35:17.085Z</time>
      </trkpt>
      <trkpt lat="48.951912" lon="2.290640">
        <ele>27.126700</ele>
        <time>2025-02-05T16:35:35.055Z</time>
      </trkpt>
      <trkpt lat="48.951780" lon="2.289159">
        <ele>27.238300</ele>
        <time>2025-02-05T16:36:00.692Z</time>
      </trkpt>
      <trkpt lat="48.951527" lon="2.287023">
        <ele>27.286580</ele>
        <time>2025-02-05T16:36:40.399Z</time>
      </trkpt>
      <trkpt lat="48.951266" lon="2.285423">
        <ele>26.620677</ele>
        <time>2025-02-05T16:37:04.273Z</time>
      </trkpt>
      <trkpt lat="48.951011" lon="2.283642">
        <ele>25.099661</ele>
        <time>2025-02-05T16:37:29.081Z</time>
      </trkpt>
      <trkpt lat="48.950771" lon="2.282124">
        <ele>27.926579</ele>
        <time>2025-02-05T16:37:58.884Z</time>
      </trkpt>
      <trkpt lat="48.950449" lon="2.280436">
        <ele>32.624654</ele>
        <time>2025-02-05T16:39:02.017Z</time>
      </trkpt>
      <trkpt lat="48.950557" lon="2.280277">
        <ele>33.650567</ele>
        <time>2025-02-05T16:39:12.016Z</time>
      </trkpt>
      <trkpt lat="48.950895" lon="2.280110">
        <ele>36.077327</ele>
        <time>2025-02-05T16:39:32.800Z</time>
      </trkpt>
      <trkpt lat="48.950923" lon="2.279949">
        <ele>36.824273</ele>
        <time>2025-02-05T16:39:38.497Z</time>
      </trkpt>
      <trkpt lat="48.950904" lon="2.279766">
        <ele>37.655189</ele>
        <time>2025-02-05T16:39:44.965Z</time>
      </trkpt>
      <trkpt lat="48.950959" lon="2.279632">
        <ele>38.363879</ele>
        <time>2025-02-05T16:39:50.998Z</time>
      </trkpt>
      <trkpt lat="48.951086" lon="2.279597">
        <ele>39.245286</ele>
        <time>2025-02-05T16:39:59.070Z</time>
      </trkpt>
      <trkpt lat="48.951152" lon="2.279540">
        <ele>39.763463</ele>
        <time>2025-02-05T16:40:03.774Z</time>
      </trkpt>
      <trkpt lat="48.951183" lon="2.279403">
        <ele>40.413330</ele>
        <time>2025-02-05T16:40:09.696Z</time>
      </trkpt>
      <trkpt lat="48.951172" lon="2.279289">
        <ele>40.930086</ele>
        <time>2025-02-05T16:40:14.604Z</time>
      </trkpt>
      <trkpt lat="48.951076" lon="2.279017">
        <ele>42.314967</ele>
        <time>2025-02-05T16:40:27.710Z</time>
      </trkpt>
      <trkpt lat="48.950998" lon="2.278679">
        <ele>43.476244</ele>
        <time>2025-02-05T16:40:42.605Z</time>
      </trkpt>
      <trkpt lat="48.951006" lon="2.278541">
        <ele>43.857631</ele>
        <time>2025-02-05T16:40:47.819Z</time>
      </trkpt>
      <trkpt lat="48.951040" lon="2.278415">
        <ele>44.232647</ele>
        <time>2025-02-05T16:40:52.667Z</time>
      </trkpt>
      <trkpt lat="48.951107" lon="2.278466">
        <ele>44.546655</ele>
        <time>2025-02-05T16:40:56.674Z</time>
      </trkpt>
      <trkpt lat="48.951192" lon="2.278470">
        <ele>44.903153</ele>
        <time>2025-02-05T16:41:01.128Z</time>
      </trkpt>
      <trkpt lat="48.951840" lon="2.278245">
        <ele>47.689359</ele>
        <time>2025-02-05T16:41:29.776Z</time>
      </trkpt>
      <trkpt lat="48.951584" lon="2.277805">
        <ele>49.307671</ele>
        <time>2025-02-05T16:41:46.786Z</time>
      </trkpt>
      <trkpt lat="48.951324" lon="2.277113">
        <ele>50.010636</ele>
        <time>2025-02-05T16:41:58.622Z</time>
      </trkpt>
      <trkpt lat="48.951190" lon="2.276737">
        <ele>49.717164</ele>
        <time>2025-02-05T16:42:03.526Z</time>
      </trkpt>
      <trkpt lat="48.951083" lon="2.276408">
        <ele>49.465307</ele>
        <time>2025-02-05T16:42:07.608Z</time>
      </trkpt>
      <trkpt lat="48.950932" lon="2.275705">
        <ele>48.957903</ele>
        <time>2025-02-05T16:42:15.931Z</time>
      </trkpt>
      <trkpt lat="48.950789" lon="2.274997">
        <ele>48.449756</ele>
        <time>2025-02-05T16:42:25.391Z</time>
      </trkpt>
      <trkpt lat="48.950689" lon="2.274166">
        <ele>51.053057</ele>
        <time>2025-02-05T16:42:43.968Z</time>
      </trkpt>
      <trkpt lat="48.951211" lon="2.273958">
        <ele>53.697968</ele>
        <time>2025-02-05T16:43:11.497Z</time>
      </trkpt>
      <trkpt lat="48.952052" lon="2.273613">
        <ele>58.097863</ele>
        <time>2025-02-05T16:44:05.198Z</time>
      </trkpt>
      <trkpt lat="48.953054" lon="2.273001">
        <ele>64.347025</ele>
        <time>2025-02-05T16:45:03.521Z</time>
      </trkpt>
      <trkpt lat="48.953329" lon="2.272830">
        <ele>66.066441</ele>
        <time>2025-02-05T16:45:16.499Z</time>
      </trkpt>
      <trkpt lat="48.953584" lon="2.272186">
        <ele>68.440544</ele>
        <time>2025-02-05T16:45:37.282Z</time>
      </trkpt>
      <trkpt lat="48.954016" lon="2.272007">
        <ele>70.041758</ele>
        <time>2025-02-05T16:45:54.948Z</time>
      </trkpt>
      <trkpt lat="48.954079" lon="2.271955">
        <ele>70.298045</ele>
        <time>2025-02-05T16:45:57.676Z</time>
      </trkpt>
      <trkpt lat="48.954423" lon="2.272870">
        <ele>72.774233</ele>
        <time>2025-02-05T16:46:23.078Z</time>
      </trkpt>
      <trkpt lat="48.954538" lon="2.273159">
        <ele>73.567853</ele>
        <time>2025-02-05T16:46:32.169Z</time>
      </trkpt>
      <trkpt lat="48.954729" lon="2.273625">
        <ele>75.086214</ele>
        <time>2025-02-05T16:46:47.864Z</time>
      </trkpt>
      <trkpt lat="48.954775" lon="2.273733">
        <ele>75.478412</ele>
        <time>2025-02-05T16:46:51.683Z</time>
      </trkpt>
      <trkpt lat="48.954815" lon="2.273695">
        <ele>75.697151</ele>
        <time>2025-02-05T16:46:54.928Z</time>
      </trkpt>
      <trkpt lat="48.954831" lon="2.273674">
        <ele>75.795153</ele>
        <time>2025-02-05T16:46:55.947Z</time>
      </trkpt>
      <trkpt lat="48.955067" lon="2.273467">
        <ele>77.058757</ele>
        <time>2025-02-05T16:47:08.733Z</time>
      </trkpt>
      <trkpt lat="48.955264" lon="2.273275">
        <ele>78.143936</ele>
        <time>2025-02-05T16:47:19.559Z</time>
      </trkpt>
      <trkpt lat="48.955348" lon="2.273132">
        <ele>78.728489</ele>
        <time>2025-02-05T16:47:25.341Z</time>
      </trkpt>
      <trkpt lat="48.955478" lon="2.272444">
        <ele>80.909638</ele>
        <time>2025-02-05T16:47:47.367Z</time>
      </trkpt>
      <trkpt lat="48.955500" lon="2.272293">
        <ele>81.380868</ele>
        <time>2025-02-05T16:47:52.344Z</time>
      </trkpt>
      <trkpt lat="48.955648" lon="2.271150">
        <ele>84.949280</ele>
        <time>2025-02-05T16:48:34.990Z</time>
      </trkpt>
      <trkpt lat="48.955754" lon="2.270721">
        <ele>86.356415</ele>
        <time>2025-02-05T16:48:50.679Z</time>
      </trkpt>
      <trkpt lat="48.955826" lon="2.270608">
        <ele>86.839782</ele>
        <time>2025-02-05T16:48:55.719Z</time>
      </trkpt>
      <trkpt lat="48.956009" lon="2.270493">
        <ele>87.765309</ele>
        <time>2025-02-05T16:49:04.912Z</time>
      </trkpt>
      <trkpt lat="48.956101" lon="2.270512">
        <ele>88.199358</ele>
        <time>2025-02-05T16:49:09.177Z</time>
      </trkpt>
      <trkpt lat="48.956219" lon="2.270614">
        <ele>88.833695</ele>
        <time>2025-02-05T16:49:15.242Z</time>
      </trkpt>
      <trkpt lat="48.956246" lon="2.270676">
        <ele>89.062080</ele>
        <time>2025-02-05T16:49:17.395Z</time>
      </trkpt>
      <trkpt lat="48.956341" lon="2.271118">
        <ele>90.489795</ele>
        <time>2025-02-05T16:49:30.298Z</time>
      </trkpt>
      <trkpt lat="48.956349" lon="2.271292">
        <ele>90.971063</ele>
        <time>2025-02-05T16:49:34.855Z</time>
      </trkpt>
      <trkpt lat="48.956310" lon="2.271710">
        <ele>91.879143</ele>
        <time>2025-02-05T16:49:46.225Z</time>
      </trkpt>
      <trkpt lat="48.956307" lon="2.271778">
        <ele>92.025730</ele>
        <time>2025-02-05T16:49:48.638Z</time>
      </trkpt>
      <trkpt lat="48.956307" lon="2.271882">
        <ele>92.249417</ele>
        <time>2025-02-05T16:49:51.284Z</time>
      </trkpt>
      <trkpt lat="48.956307" lon="2.272076">
        <ele>92.666680</ele>
        <time>2025-02-05T16:49:56.048Z</time>
      </trkpt>
      <trkpt lat="48.956358" lon="2.272491">
        <ele>93.574775</ele>
        <time>2025-02-05T16:50:05.151Z</time>
      </trkpt>
      <trkpt lat="48.956362" lon="2.272511">
        <ele>93.619743</ele>
        <time>2025-02-05T16:50:05.742Z</time>
      </trkpt>
      <trkpt lat="48.956366" lon="2.272532">
        <ele>93.666772</ele>
        <time>2025-02-05T16:50:06.390Z</time>
      </trkpt>
      <trkpt lat="48.956411" lon="2.272754">
        <ele>94.166491</ele>
        <time>2025-02-05T16:50:11.524Z</time>
      </trkpt>
      <trkpt lat="48.956453" lon="2.272855">
        <ele>94.423623</ele>
        <time>2025-02-05T16:50:14.207Z</time>
      </trkpt>
      <trkpt lat="48.956543" lon="2.272851">
        <ele>94.718548</ele>
        <time>2025-02-05T16:50:17.611Z</time>
      </trkpt>
      <trkpt lat="48.956561" lon="2.272819">
        <ele>94.809175</ele>
        <time>2025-02-05T16:50:18.635Z</time>
      </trkpt>
      <trkpt lat="48.956580" lon="2.272347">
        <ele>95.826271</ele>
        <time>2025-02-05T16:50:31.834Z</time>
      </trkpt>
      <trkpt lat="48.956649" lon="2.271644">
        <ele>97.277265</ele>
        <time>2025-02-05T16:50:55.688Z</time>
      </trkpt>
      <trkpt lat="48.956726" lon="2.271346">
        <ele>97.879486</ele>
        <time>2025-02-05T16:51:07.246Z</time>
      </trkpt>
      <trkpt lat="48.956797" lon="2.271217">
        <ele>98.196020</ele>
        <time>2025-02-05T16:51:13.147Z</time>
      </trkpt>
      <trkpt lat="48.957100" lon="2.270820">
        <ele>99.340729</ele>
        <time>2025-02-05T16:51:31.714Z</time>
      </trkpt>
      <trkpt lat="48.957290" lon="2.270638">
        <ele>99.983553</ele>
        <time>2025-02-05T16:51:40.503Z</time>
      </trkpt>
      <trkpt lat="48.957454" lon="2.270531">
        <ele>100.494517</ele>
        <time>2025-02-05T16:51:46.730Z</time>
      </trkpt>
      <trkpt lat="48.957313" lon="2.270767">
        <ele>101.094531</ele>
        <time>2025-02-05T16:51:55.527Z</time>
      </trkpt>
      <trkpt lat="48.957026" lon="2.271963">
        <ele>102.074660</ele>
        <time>2025-02-05T16:52:25.034Z</time>
      </trkpt>
      <trkpt lat="48.957014" lon="2.272020">
        <ele>102.087851</ele>
        <time>2025-02-05T16:52:26.350Z</time>
      </trkpt>
      <trkpt lat="48.957003" lon="2.272091">
        <ele>102.103928</ele>
        <time>2025-02-05T16:52:27.927Z</time>
      </trkpt>
      <trkpt lat="48.957001" lon="2.272273">
        <ele>102.144043</ele>
        <time>2025-02-05T16:52:31.946Z</time>
      </trkpt>
      <trkpt lat="48.957050" lon="2.272459">
        <ele>102.188210</ele>
        <time>2025-02-05T16:52:36.503Z</time>
      </trkpt>
      <trkpt lat="48.957114" lon="2.272595">
        <ele>102.225085</ele>
        <time>2025-02-05T16:52:40.430Z</time>
      </trkpt>
      <trkpt lat="48.957119" lon="2.272606">
        <ele>102.228033</ele>
        <time>2025-02-05T16:52:40.760Z</time>
      </trkpt>
      <trkpt lat="48.957230" lon="2.272658">
        <ele>102.267010</ele>
        <time>2025-02-05T16:52:45.058Z</time>
      </trkpt>
      <trkpt lat="48.957515" lon="2.272699">
        <ele>102.363090</ele>
        <time>2025-02-05T16:52:56.745Z</time>
      </trkpt>
      <trkpt lat="48.957831" lon="2.272620">
        <ele>102.470568</ele>
        <time>2025-02-05T16:53:11.171Z</time>
      </trkpt>
      <trkpt lat="48.957923" lon="2.272550">
        <ele>102.566460</ele>
        <time>2025-02-05T16:53:16.154Z</time>
      </trkpt>
      <trkpt lat="48.958231" lon="2.272148">
        <ele>103.278205</ele>
        <time>2025-02-05T16:53:36.892Z</time>
      </trkpt>
      <trkpt lat="48.958365" lon="2.271918">
        <ele>103.632467</ele>
        <time>2025-02-05T16:53:47.310Z</time>
      </trkpt>
      <trkpt lat="48.958589" lon="2.271534">
        <ele>104.224254</ele>
        <time>2025-02-05T16:54:04.581Z</time>
      </trkpt>
      <trkpt lat="48.959238" lon="2.270087">
        <ele>105.480871</ele>
        <time>2025-02-05T16:54:53.606Z</time>
      </trkpt>
      <trkpt lat="48.959465" lon="2.269735">
        <ele>105.323000</ele>
        <time>2025-02-05T16:55:04.669Z</time>
      </trkpt>
      <trkpt lat="48.959773" lon="2.268927">
        <ele>105.024049</ele>
        <time>2025-02-05T16:55:24.259Z</time>
      </trkpt>
      <trkpt lat="48.959795" lon="2.268729">
        <ele>104.959794</ele>
        <time>2025-02-05T16:55:28.732Z</time>
      </trkpt>
      <trkpt lat="48.959818" lon="2.268527">
        <ele>104.894194</ele>
        <time>2025-02-05T16:55:33.433Z</time>
      </trkpt>
      <trkpt lat="48.959803" lon="2.268289">
        <ele>104.817691</ele>
        <time>2025-02-05T16:55:39.249Z</time>
      </trkpt>
      <trkpt lat="48.959737" lon="2.267958">
        <ele>105.037100</ele>
        <time>2025-02-05T16:55:48.567Z</time>
      </trkpt>
      <trkpt lat="48.959658" lon="2.267814">
        <ele>105.291477</ele>
        <time>2025-02-05T16:55:54.108Z</time>
      </trkpt>
      <trkpt lat="48.959607" lon="2.267791">
        <ele>105.401290</ele>
        <time>2025-02-05T16:55:56.490Z</time>
      </trkpt>
      <trkpt lat="48.959543" lon="2.267832">
        <ele>105.544638</ele>
        <time>2025-02-05T16:55:59.900Z</time>
      </trkpt>
      <trkpt lat="48.958979" lon="2.268467">
        <ele>106.992701</ele>
        <time>2025-02-05T16:56:35.991Z</time>
      </trkpt>
      <trkpt lat="48.958952" lon="2.268498">
        <ele>107.062511</ele>
        <time>2025-02-05T16:56:38.065Z</time>
      </trkpt>
      <trkpt lat="48.958527" lon="2.268927">
        <ele>108.115191</ele>
        <time>2025-02-05T16:57:08.336Z</time>
      </trkpt>
      <trkpt lat="48.958451" lon="2.269046">
        <ele>108.340234</ele>
        <time>2025-02-05T16:57:14.097Z</time>
      </trkpt>
      <trkpt lat="48.958322" lon="2.269407">
        <ele>107.459139</ele>
        <time>2025-02-05T16:57:25.508Z</time>
      </trkpt>
      <trkpt lat="48.958399" lon="2.269046">
        <ele>106.185616</ele>
        <time>2025-02-05T16:57:33.805Z</time>
      </trkpt>
      <trkpt lat="48.958551" lon="2.268246">
        <ele>103.391366</ele>
        <time>2025-02-05T16:57:49.549Z</time>
      </trkpt>
      <trkpt lat="48.958715" lon="2.267325">
        <ele>100.189650</ele>
        <time>2025-02-05T16:58:06.191Z</time>
      </trkpt>
      <trkpt lat="48.958737" lon="2.267200">
        <ele>99.755451</ele>
        <time>2025-02-05T16:58:08.385Z</time>
      </trkpt>
      <trkpt lat="48.958998" lon="2.266487">
        <ele>94.829074</ele>
        <time>2025-02-05T16:58:21.990Z</time>
      </trkpt>
      <trkpt lat="48.959198" lon="2.266294">
        <ele>92.456462</ele>
        <time>2025-02-05T16:58:28.001Z</time>
      </trkpt>
      <trkpt lat="48.959240" lon="2.265306">
        <ele>85.942153</ele>
        <time>2025-02-05T16:58:44.638Z</time>
      </trkpt>
      <trkpt lat="48.959243" lon="2.265255">
        <ele>85.605247</ele>
        <time>2025-02-05T16:58:45.486Z</time>
      </trkpt>
      <trkpt lat="48.959507" lon="2.264405">
        <ele>79.814160</ele>
        <time>2025-02-05T16:59:01.542Z</time>
      </trkpt>
      <trkpt lat="48.959469" lon="2.263977">
        <ele>77.580233</ele>
        <time>2025-02-05T16:59:08.961Z</time>
      </trkpt>
      <trkpt lat="48.959402" lon="2.263773">
        <ele>76.400423</ele>
        <time>2025-02-05T16:59:12.888Z</time>
      </trkpt>
      <trkpt lat="48.959420" lon="2.263625">
        <ele>75.621888</ele>
        <time>2025-02-05T16:59:15.484Z</time>
      </trkpt>
      <trkpt lat="48.959410" lon="2.263503">
        <ele>74.985958</ele>
        <time>2025-02-05T16:59:17.619Z</time>
      </trkpt>
      <trkpt lat="48.959458" lon="2.263242">
        <ele>73.584009</ele>
        <time>2025-02-05T16:59:22.370Z</time>
      </trkpt>
      <trkpt lat="48.959474" lon="2.263159">
        <ele>73.136581</ele>
        <time>2025-02-05T16:59:23.897Z</time>
      </trkpt>
      <trkpt lat="48.959311" lon="2.262507">
        <ele>69.527998</ele>
        <time>2025-02-05T16:59:36.344Z</time>
      </trkpt>
      <trkpt lat="48.959295" lon="2.262442">
        <ele>69.168943</ele>
        <time>2025-02-05T16:59:37.606Z</time>
      </trkpt>
      <trkpt lat="48.959408" lon="2.262129">
        <ele>67.321394</ele>
        <time>2025-02-05T16:59:42.548Z</time>
      </trkpt>
      <trkpt lat="48.959071" lon="2.261108">
        <ele>63.615000</ele>
        <time>2025-02-05T16:59:54.780Z</time>
      </trkpt>
      <trkpt lat="48.958989" lon="2.260824">
        <ele>62.632061</ele>
        <time>2025-02-05T16:59:58.186Z</time>
      </trkpt>
      <trkpt lat="48.958709" lon="2.259971">
        <ele>59.610623</ele>
        <time>2025-02-05T17:00:08.941Z</time>
      </trkpt>
      <trkpt lat="48.958415" lon="2.259060">
        <ele>57.857356</ele>
        <time>2025-02-05T17:00:20.568Z</time>
      </trkpt>
      <trkpt lat="48.958285" lon="2.258479">
        <ele>57.316588</ele>
        <time>2025-02-05T17:00:28.175Z</time>
      </trkpt>
      <trkpt lat="48.958295" lon="2.258386">
        <ele>57.233563</ele>
        <time>2025-02-05T17:00:29.391Z</time>
      </trkpt>
      <trkpt lat="48.958392" lon="2.258063">
        <ele>56.920647</ele>
        <time>2025-02-05T17:00:34.031Z</time>
      </trkpt>
      <trkpt lat="48.958607" lon="2.257355">
        <ele>56.233418</ele>
        <time>2025-02-05T17:00:45.268Z</time>
      </trkpt>
      <trkpt lat="48.959529" lon="2.257954">
        <ele>57.660054</ele>
        <time>2025-02-05T17:01:16.444Z</time>
      </trkpt>
      <trkpt lat="48.959661" lon="2.257948">
        <ele>57.921738</ele>
        <time>2025-02-05T17:01:21.135Z</time>
      </trkpt>
      <trkpt lat="48.959811" lon="2.258011">
        <ele>58.230068</ele>
        <time>2025-02-05T17:01:26.604Z</time>
      </trkpt>
      <trkpt lat="48.960097" lon="2.258008">
        <ele>58.796811</ele>
        <time>2025-02-05T17:01:36.640Z</time>
      </trkpt>
      <trkpt lat="48.960228" lon="2.257976">
        <ele>59.059715</ele>
        <time>2025-02-05T17:01:41.304Z</time>
      </trkpt>
      <trkpt lat="48.960302" lon="2.257872">
        <ele>59.259242</ele>
        <time>2025-02-05T17:01:44.812Z</time>
      </trkpt>
      <trkpt lat="48.960355" lon="2.257682">
        <ele>59.527829</ele>
        <time>2025-02-05T17:01:50.405Z</time>
      </trkpt>
      <trkpt lat="48.960454" lon="2.257310">
        <ele>60.303971</ele>
        <time>2025-02-05T17:02:01.445Z</time>
      </trkpt>
      <trkpt lat="48.960464" lon="2.257270">
        <ele>60.389209</ele>
        <time>2025-02-05T17:02:02.620Z</time>
      </trkpt>
      <trkpt lat="48.960491" lon="2.257141">
        <ele>60.658846</ele>
        <time>2025-02-05T17:02:06.472Z</time>
      </trkpt>
      <trkpt lat="48.960471" lon="2.256878">
        <ele>61.186105</ele>
        <time>2025-02-05T17:02:14.065Z</time>
      </trkpt>
      <trkpt lat="48.960466" lon="2.256805">
        <ele>61.332272</ele>
        <time>2025-02-05T17:02:16.122Z</time>
      </trkpt>
      <trkpt lat="48.960485" lon="2.256597">
        <ele>61.750488</ele>
        <time>2025-02-05T17:02:22.264Z</time>
      </trkpt>
      <trkpt lat="48.960560" lon="2.256327">
        <ele>62.334327</ele>
        <time>2025-02-05T17:02:30.851Z</time>
      </trkpt>
      <trkpt lat="48.960632" lon="2.255907">
        <ele>63.198783</ele>
        <time>2025-02-05T17:02:44.047Z</time>
      </trkpt>
      <trkpt lat="48.960780" lon="2.255688">
        <ele>63.824659</ele>
        <time>2025-02-05T17:02:53.552Z</time>
      </trkpt>
      <trkpt lat="48.960835" lon="2.255651">
        <ele>64.007029</ele>
        <time>2025-02-05T17:02:56.349Z</time>
      </trkpt>
      <trkpt lat="48.960909" lon="2.255668">
        <ele>64.234017</ele>
        <time>2025-02-05T17:02:59.701Z</time>
      </trkpt>
      <trkpt lat="48.960933" lon="2.255562">
        <ele>64.457310</ele>
        <time>2025-02-05T17:03:02.578Z</time>
      </trkpt>
      <trkpt lat="48.961679" lon="2.255990">
        <ele>67.543233</ele>
        <time>2025-02-05T17:03:33.177Z</time>
      </trkpt>
      <trkpt lat="48.962307" lon="2.256409">
        <ele>70.374418</ele>
        <time>2025-02-05T17:04:03.014Z</time>
      </trkpt>
      <trkpt lat="48.962399" lon="2.256472">
        <ele>70.790956</ele>
        <time>2025-02-05T17:04:07.703Z</time>
      </trkpt>
      <trkpt lat="48.962747" lon="2.254955">
        <ele>75.028046</ele>
        <time>2025-02-05T17:05:13.139Z</time>
      </trkpt>
      <trkpt lat="48.962774" lon="2.254774">
        <ele>75.508928</ele>
        <time>2025-02-05T17:05:20.634Z</time>
      </trkpt>
      <trkpt lat="48.962771" lon="2.254624">
        <ele>75.897724</ele>
        <time>2025-02-05T17:05:26.582Z</time>
      </trkpt>
      <trkpt lat="48.962713" lon="2.254390">
        <ele>76.545729</ele>
        <time>2025-02-05T17:05:36.196Z</time>
      </trkpt>
      <trkpt lat="48.962623" lon="2.254249">
        <ele>77.055210</ele>
        <time>2025-02-05T17:05:43.517Z</time>
      </trkpt>
      <trkpt lat="48.962422" lon="2.254071">
        <ele>77.972687</ele>
        <time>2025-02-05T17:05:56.037Z</time>
      </trkpt>
      <trkpt lat="48.962240" lon="2.253820">
        <ele>78.941532</ele>
        <time>2025-02-05T17:06:08.534Z</time>
      </trkpt>
      <trkpt lat="48.962159" lon="2.253610">
        <ele>79.563440</ele>
        <time>2025-02-05T17:06:16.364Z</time>
      </trkpt>
      <trkpt lat="48.962057" lon="2.253085">
        <ele>80.354072</ele>
        <time>2025-02-05T17:06:33.326Z</time>
      </trkpt>
      <trkpt lat="48.962004" lon="2.252521">
        <ele>81.176827</ele>
        <time>2025-02-05T17:06:50.676Z</time>
      </trkpt>
      <trkpt lat="48.962020" lon="2.251084">
        <ele>83.252255</ele>
        <time>2025-02-05T17:07:34.177Z</time>
      </trkpt>
      <trkpt lat="48.961997" lon="2.250869">
        <ele>83.641663</ele>
        <time>2025-02-05T17:07:41.080Z</time>
      </trkpt>
      <trkpt lat="48.961748" lon="2.249517">
        <ele>88.249465</ele>
        <time>2025-02-05T17:08:31.708Z</time>
      </trkpt>
      <trkpt lat="48.961719" lon="2.249101">
        <ele>89.622238</ele>
        <time>2025-02-05T17:08:49.384Z</time>
      </trkpt>
      <trkpt lat="48.961749" lon="2.248921">
        <ele>90.231639</ele>
        <time>2025-02-05T17:08:57.743Z</time>
      </trkpt>
      <trkpt lat="48.961808" lon="2.248728">
        <ele>90.930250</ele>
        <time>2025-02-05T17:09:07.606Z</time>
      </trkpt>
      <trkpt lat="48.961860" lon="2.248647">
        <ele>91.301996</ele>
        <time>2025-02-05T17:09:12.951Z</time>
      </trkpt>
      <trkpt lat="48.962195" lon="2.248371">
        <ele>93.625649</ele>
        <time>2025-02-05T17:09:42.067Z</time>
      </trkpt>
      <trkpt lat="48.962748" lon="2.248086">
        <ele>98.274691</ele>
        <time>2025-02-05T17:10:30.628Z</time>
      </trkpt>
      <trkpt lat="48.962929" lon="2.248057">
        <ele>99.724024</ele>
        <time>2025-02-05T17:10:45.892Z</time>
      </trkpt>
      <trkpt lat="48.963077" lon="2.248070">
        <ele>100.904568</ele>
        <time>2025-02-05T17:10:57.902Z</time>
      </trkpt>
      <trkpt lat="48.963255" lon="2.248180">
        <ele>102.434286</ele>
        <time>2025-02-05T17:11:12.766Z</time>
      </trkpt>
      <trkpt lat="48.963340" lon="2.248303">
        <ele>103.367955</ele>
        <time>2025-02-05T17:11:21.468Z</time>
      </trkpt>
      <trkpt lat="48.963437" lon="2.248569">
        <ele>104.958809</ele>
        <time>2025-02-05T17:11:36.094Z</time>
      </trkpt>
      <trkpt lat="48.963482" lon="2.248880">
        <ele>106.623833</ele>
        <time>2025-02-05T17:11:51.693Z</time>
      </trkpt>
      <trkpt lat="48.963487" lon="2.249177">
        <ele>107.544537</ele>
        <time>2025-02-05T17:12:06.090Z</time>
      </trkpt>
      <trkpt lat="48.963391" lon="2.250041">
        <ele>109.988957</ele>
        <time>2025-02-05T17:12:42.859Z</time>
      </trkpt>
      <trkpt lat="48.963393" lon="2.250417">
        <ele>111.037854</ele>
        <time>2025-02-05T17:12:55.006Z</time>
      </trkpt>
      <trkpt lat="48.963418" lon="2.250644">
        <ele>111.679924</ele>
        <time>2025-02-05T17:13:01.420Z</time>
      </trkpt>
      <trkpt lat="48.963476" lon="2.251032">
        <ele>112.789959</ele>
        <time>2025-02-05T17:13:13.175Z</time>
      </trkpt>
      <trkpt lat="48.963490" lon="2.251162">
        <ele>113.157443</ele>
        <time>2025-02-05T17:13:17.661Z</time>
      </trkpt>
      <trkpt lat="48.963445" lon="2.251126">
        <ele>113.373408</ele>
        <time>2025-02-05T17:13:20.305Z</time>
      </trkpt>
      <trkpt lat="48.963446" lon="2.251330">
        <ele>113.942487</ele>
        <time>2025-02-05T17:13:28.073Z</time>
      </trkpt>
      <trkpt lat="48.963447" lon="2.251758">
        <ele>114.717053</ele>
        <time>2025-02-05T17:13:45.925Z</time>
      </trkpt>
      <trkpt lat="48.963494" lon="2.252244">
        <ele>115.233954</ele>
        <time>2025-02-05T17:14:04.775Z</time>
      </trkpt>
      <trkpt lat="48.963640" lon="2.252168">
        <ele>115.481234</ele>
        <time>2025-02-05T17:14:10.506Z</time>
      </trkpt>
      <trkpt lat="48.964014" lon="2.251974">
        <ele>116.114445</ele>
        <time>2025-02-05T17:14:22.618Z</time>
      </trkpt>
      <trkpt lat="48.964396" lon="2.251782">
        <ele>116.759142</ele>
        <time>2025-02-05T17:14:35.221Z</time>
      </trkpt>
      <trkpt lat="48.965058" lon="2.252185">
        <ele>116.538006</ele>
        <time>2025-02-05T17:14:51.993Z</time>
      </trkpt>
      <trkpt lat="48.965381" lon="2.251238">
        <ele>114.906771</ele>
        <time>2025-02-05T17:15:02.626Z</time>
      </trkpt>
      <trkpt lat="48.965581" lon="2.251062">
        <ele>114.368990</ele>
        <time>2025-02-05T17:15:06.365Z</time>
      </trkpt>
      <trkpt lat="48.965969" lon="2.250905">
        <ele>113.434287</ele>
        <time>2025-02-05T17:15:14.563Z</time>
      </trkpt>
      <trkpt lat="48.966195" lon="2.250816">
        <ele>113.499275</ele>
        <time>2025-02-05T17:15:21.295Z</time>
      </trkpt>
      <trkpt lat="48.966343" lon="2.250819">
        <ele>113.939469</ele>
        <time>2025-02-05T17:15:26.369Z</time>
      </trkpt>
      <trkpt lat="48.966373" lon="2.250568">
        <ele>114.437590</ele>
        <time>2025-02-05T17:15:32.508Z</time>
      </trkpt>
      <trkpt lat="48.966365" lon="2.250460">
        <ele>114.649793</ele>
        <time>2025-02-05T17:15:35.361Z</time>
      </trkpt>
      <trkpt lat="48.966217" lon="2.249998">
        <ele>115.653487</ele>
        <time>2025-02-05T17:15:49.220Z</time>
      </trkpt>
      <trkpt lat="48.966204" lon="2.249663">
        <ele>116.308702</ele>
        <time>2025-02-05T17:16:00.160Z</time>
      </trkpt>
      <trkpt lat="48.966220" lon="2.249355">
        <ele>116.911939</ele>
        <time>2025-02-05T17:16:11.171Z</time>
      </trkpt>
      <trkpt lat="48.966251" lon="2.249163">
        <ele>117.297981</ele>
        <time>2025-02-05T17:16:17.960Z</time>
      </trkpt>
      <trkpt lat="48.966523" lon="2.248536">
        <ele>118.261633</ele>
        <time>2025-02-05T17:16:36.781Z</time>
      </trkpt>
      <trkpt lat="48.966573" lon="2.248578">
        <ele>118.100078</ele>
        <time>2025-02-05T17:16:38.544Z</time>
      </trkpt>
      <trkpt lat="48.966729" lon="2.248516">
        <ele>117.643915</ele>
        <time>2025-02-05T17:16:43.193Z</time>
      </trkpt>
      <trkpt lat="48.967016" lon="2.248540">
        <ele>116.830654</ele>
        <time>2025-02-05T17:16:50.750Z</time>
      </trkpt>
      <trkpt lat="48.967103" lon="2.248606">
        <ele>116.555658</ele>
        <time>2025-02-05T17:16:53.148Z</time>
      </trkpt>
      <trkpt lat="48.967288" lon="2.248614">
        <ele>116.032008</ele>
        <time>2025-02-05T17:16:57.431Z</time>
      </trkpt>
      <trkpt lat="48.967490" lon="2.248549">
        <ele>115.447856</ele>
        <time>2025-02-05T17:17:01.999Z</time>
      </trkpt>
      <trkpt lat="48.967625" lon="2.248100">
        <ele>114.530546</ele>
        <time>2025-02-05T17:17:08.880Z</time>
      </trkpt>
      <trkpt lat="48.967724" lon="2.247925">
        <ele>114.101451</ele>
        <time>2025-02-05T17:17:12.027Z</time>
      </trkpt>
      <trkpt lat="48.967940" lon="2.247780">
        <ele>113.433586</ele>
        <time>2025-02-05T17:17:16.947Z</time>
      </trkpt>
      <trkpt lat="48.968235" lon="2.247628">
        <ele>112.992579</ele>
        <time>2025-02-05T17:17:21.939Z</time>
      </trkpt>
      <trkpt lat="48.968290" lon="2.247627">
        <ele>112.916077</ele>
        <time>2025-02-05T17:17:22.855Z</time>
      </trkpt>
      <trkpt lat="48.968929" lon="2.247615">
        <ele>112.027259</ele>
        <time>2025-02-05T17:17:33.612Z</time>
      </trkpt>
      <trkpt lat="48.969060" lon="2.247506">
        <ele>111.819649</ele>
        <time>2025-02-05T17:17:36.500Z</time>
      </trkpt>
      <trkpt lat="48.969281" lon="2.247232">
        <ele>111.423332</ele>
        <time>2025-02-05T17:17:43.528Z</time>
      </trkpt>
      <trkpt lat="48.969852" lon="2.247044">
        <ele>111.857015</ele>
        <time>2025-02-05T17:18:09.094Z</time>
      </trkpt>
      <trkpt lat="48.969806" lon="2.246523">
        <ele>113.333981</ele>
        <time>2025-02-05T17:18:27.957Z</time>
      </trkpt>
      <trkpt lat="48.969737" lon="2.245724">
        <ele>115.598172</ele>
        <time>2025-02-05T17:18:55.667Z</time>
      </trkpt>
      <trkpt lat="48.969767" lon="2.245615">
        <ele>115.930243</ele>
        <time>2025-02-05T17:18:59.778Z</time>
      </trkpt>
      <trkpt lat="48.970448" lon="2.243815">
        <ele>118.783414</ele>
        <time>2025-02-05T17:20:09.743Z</time>
      </trkpt>
      <trkpt lat="48.970495" lon="2.243820">
        <ele>118.794218</ele>
        <time>2025-02-05T17:20:11.366Z</time>
      </trkpt>
      <trkpt lat="48.970902" lon="2.243222">
        <ele>118.923887</ele>
        <time>2025-02-05T17:20:30.985Z</time>
      </trkpt>
      <trkpt lat="48.971057" lon="2.243089">
        <ele>118.964682</ele>
        <time>2025-02-05T17:20:36.869Z</time>
      </trkpt>
      <trkpt lat="48.972001" lon="2.242141">
        <ele>116.807262</ele>
        <time>2025-02-05T17:21:12.061Z</time>
      </trkpt>
      <trkpt lat="48.972243" lon="2.241984">
        <ele>116.127680</ele>
        <time>2025-02-05T17:21:20.023Z</time>
      </trkpt>
      <trkpt lat="48.972323" lon="2.241900">
        <ele>115.876648</ele>
        <time>2025-02-05T17:21:23.004Z</time>
      </trkpt>
      <trkpt lat="48.972408" lon="2.241746">
        <ele>115.535409</ele>
        <time>2025-02-05T17:21:27.075Z</time>
      </trkpt>
      <trkpt lat="48.972419" lon="2.241499">
        <ele>115.115541</ele>
        <time>2025-02-05T17:21:32.165Z</time>
      </trkpt>
      <trkpt lat="48.972461" lon="2.241410">
        <ele>114.929641</ele>
        <time>2025-02-05T17:21:34.418Z</time>
      </trkpt>
      <trkpt lat="48.972660" lon="2.240986">
        <ele>114.635967</ele>
        <time>2025-02-05T17:21:45.589Z</time>
      </trkpt>
      <trkpt lat="48.972757" lon="2.240733">
        <ele>115.016732</ele>
        <time>2025-02-05T17:21:52.305Z</time>
      </trkpt>
      <trkpt lat="48.972790" lon="2.240576">
        <ele>115.230969</ele>
        <time>2025-02-05T17:21:56.236Z</time>
      </trkpt>
      <trkpt lat="48.972795" lon="2.240482">
        <ele>115.353529</ele>
        <time>2025-02-05T17:21:58.654Z</time>
      </trkpt>
      <trkpt lat="48.972768" lon="2.240321">
        <ele>115.569479</ele>
        <time>2025-02-05T17:22:03.081Z</time>
      </trkpt>
      <trkpt lat="48.972665" lon="2.240112">
        <ele>115.909118</ele>
        <time>2025-02-05T17:22:10.787Z</time>
      </trkpt>
      <trkpt lat="48.972675" lon="2.239965">
        <ele>116.101178</ele>
        <time>2025-02-05T17:22:15.352Z</time>
      </trkpt>
      <trkpt lat="48.972620" lon="2.239765">
        <ele>116.382979</ele>
        <time>2025-02-05T17:22:22.624Z</time>
      </trkpt>
      <trkpt lat="48.972589" lon="2.239652">
        <ele>116.542140</ele>
        <time>2025-02-05T17:22:26.912Z</time>
      </trkpt>
      <trkpt lat="48.972339" lon="2.239069">
        <ele>117.447131</ele>
        <time>2025-02-05T17:22:53.158Z</time>
      </trkpt>
      <trkpt lat="48.972097" lon="2.238868">
        <ele>118.067578</ele>
        <time>2025-02-05T17:23:09.876Z</time>
      </trkpt>
      <trkpt lat="48.971820" lon="2.238798">
        <ele>119.422254</ele>
        <time>2025-02-05T17:23:27.427Z</time>
      </trkpt>
      <trkpt lat="48.971634" lon="2.238641">
        <ele>120.448173</ele>
        <time>2025-02-05T17:23:40.880Z</time>
      </trkpt>
      <trkpt lat="48.971592" lon="2.238629">
        <ele>120.654339</ele>
        <time>2025-02-05T17:23:43.565Z</time>
      </trkpt>
      <trkpt lat="48.971526" lon="2.238746">
        <ele>121.142904</ele>
        <time>2025-02-05T17:23:50.012Z</time>
      </trkpt>
      <trkpt lat="48.971589" lon="2.238818">
        <ele>121.522879</ele>
        <time>2025-02-05T17:23:54.928Z</time>
      </trkpt>
      <trkpt lat="48.971758" lon="2.239171">
        <ele>122.906582</ele>
        <time>2025-02-05T17:24:13.074Z</time>
      </trkpt>
      <trkpt lat="48.971803" lon="2.239362">
        <ele>123.549263</ele>
        <time>2025-02-05T17:24:21.444Z</time>
      </trkpt>
      <trkpt lat="48.971813" lon="2.239541">
        <ele>124.118208</ele>
        <time>2025-02-05T17:24:28.977Z</time>
      </trkpt>
      <trkpt lat="48.971758" lon="2.239871">
        <ele>125.196482</ele>
        <time>2025-02-05T17:24:43.071Z</time>
      </trkpt>
      <trkpt lat="48.971599" lon="2.240328">
        <ele>126.802072</ele>
        <time>2025-02-05T17:25:03.434Z</time>
      </trkpt>
      <trkpt lat="48.971542" lon="2.240435">
        <ele>127.172903</ele>
        <time>2025-02-05T17:25:08.655Z</time>
      </trkpt>
      <trkpt lat="48.971427" lon="2.240515">
        <ele>127.691180</ele>
        <time>2025-02-05T17:25:15.707Z</time>
      </trkpt>
      <trkpt lat="48.971216" lon="2.240534">
        <ele>128.557693</ele>
        <time>2025-02-05T17:25:26.969Z</time>
      </trkpt>
      <trkpt lat="48.971060" lon="2.240471">
        <ele>129.219313</ele>
        <time>2025-02-05T17:25:35.811Z</time>
      </trkpt>
      <trkpt lat="48.970923" lon="2.240363">
        <ele>129.851696</ele>
        <time>2025-02-05T17:25:44.189Z</time>
      </trkpt>
      <trkpt lat="48.970860" lon="2.240313">
        <ele>130.142916</ele>
        <time>2025-02-05T17:25:48.233Z</time>
      </trkpt>
      <trkpt lat="48.970808" lon="2.240378">
        <ele>130.418673</ele>
        <time>2025-02-05T17:25:51.830Z</time>
      </trkpt>
      <trkpt lat="48.970862" lon="2.240427">
        <ele>130.676346</ele>
        <time>2025-02-05T17:25:55.306Z</time>
      </trkpt>
      <trkpt lat="48.970957" lon="2.240631">
        <ele>131.349446</ele>
        <time>2025-02-05T17:26:04.449Z</time>
      </trkpt>
      <trkpt lat="48.970973" lon="2.240782">
        <ele>131.761063</ele>
        <time>2025-02-05T17:26:10.026Z</time>
      </trkpt>
      <trkpt lat="48.970859" lon="2.241204">
        <ele>132.989116</ele>
        <time>2025-02-05T17:26:27.702Z</time>
      </trkpt>
      <trkpt lat="48.970781" lon="2.241384">
        <ele>133.569541</ele>
        <time>2025-02-05T17:26:36.226Z</time>
      </trkpt>
      <trkpt lat="48.970649" lon="2.241510">
        <ele>134.176590</ele>
        <time>2025-02-05T17:26:45.422Z</time>
      </trkpt>
      <trkpt lat="48.970456" lon="2.241844">
        <ele>135.199150</ele>
        <time>2025-02-05T17:27:02.885Z</time>
      </trkpt>
      <trkpt lat="48.970151" lon="2.241492">
        <ele>136.538699</ele>
        <time>2025-02-05T17:27:22.158Z</time>
      </trkpt>
      <trkpt lat="48.969655" lon="2.240918">
        <ele>138.719298</ele>
        <time>2025-02-05T17:27:49.866Z</time>
      </trkpt>
      <trkpt lat="48.969550" lon="2.240842">
        <ele>139.126260</ele>
        <time>2025-02-05T17:27:54.087Z</time>
      </trkpt>
      <trkpt lat="48.969462" lon="2.240871">
        <ele>139.441452</ele>
        <time>2025-02-05T17:27:57.230Z</time>
      </trkpt>
      <trkpt lat="48.969214" lon="2.240793">
        <ele>140.257486</ele>
        <time>2025-02-05T17:28:04.502Z</time>
      </trkpt>
      <trkpt lat="48.969046" lon="2.240794">
        <ele>139.788874</ele>
        <time>2025-02-05T17:28:08.098Z</time>
      </trkpt>
      <trkpt lat="48.968912" lon="2.240709">
        <ele>139.383992</ele>
        <time>2025-02-05T17:28:10.880Z</time>
      </trkpt>
      <trkpt lat="48.968800" lon="2.240736">
        <ele>139.067699</ele>
        <time>2025-02-05T17:28:12.932Z</time>
      </trkpt>
      <trkpt lat="48.968721" lon="2.240742">
        <ele>138.847068</ele>
        <time>2025-02-05T17:28:14.339Z</time>
      </trkpt>
      <trkpt lat="48.968475" lon="2.240535">
        <ele>138.063160</ele>
        <time>2025-02-05T17:28:19.045Z</time>
      </trkpt>
      <trkpt lat="48.968668" lon="2.239729">
        <ele>136.492159</ele>
        <time>2025-02-05T17:28:28.453Z</time>
      </trkpt>
      <trkpt lat="48.968903" lon="2.238931">
        <ele>134.968146</ele>
        <time>2025-02-05T17:28:38.453Z</time>
      </trkpt>
      <trkpt lat="48.968970" lon="2.238714">
        <ele>134.618349</ele>
        <time>2025-02-05T17:28:41.269Z</time>
      </trkpt>
      <trkpt lat="48.969166" lon="2.238044">
        <ele>133.548385</ele>
        <time>2025-02-05T17:28:50.231Z</time>
      </trkpt>
      <trkpt lat="48.969451" lon="2.237100">
        <ele>132.032754</ele>
        <time>2025-02-05T17:29:03.908Z</time>
      </trkpt>
      <trkpt lat="48.969538" lon="2.236823">
        <ele>131.584838</ele>
        <time>2025-02-05T17:29:08.039Z</time>
      </trkpt>
      <trkpt lat="48.969675" lon="2.236388">
        <ele>131.205759</ele>
        <time>2025-02-05T17:29:14.268Z</time>
      </trkpt>
      <trkpt lat="48.969763" lon="2.236157">
        <ele>131.137205</ele>
        <time>2025-02-05T17:29:17.434Z</time>
      </trkpt>
      <trkpt lat="48.969777" lon="2.236144">
        <ele>131.130794</ele>
        <time>2025-02-05T17:29:17.716Z</time>
      </trkpt>
      <trkpt lat="48.969789" lon="2.236128">
        <ele>131.124559</ele>
        <time>2025-02-05T17:29:18.004Z</time>
      </trkpt>
      <trkpt lat="48.969830" lon="2.236042">
        <ele>131.097278</ele>
        <time>2025-02-05T17:29:19.244Z</time>
      </trkpt>
      <trkpt lat="48.969842" lon="2.235937">
        <ele>131.069921</ele>
        <time>2025-02-05T17:29:20.521Z</time>
      </trkpt>
      <trkpt lat="48.969808" lon="2.235800">
        <ele>131.032327</ele>
        <time>2025-02-05T17:29:22.299Z</time>
      </trkpt>
      <trkpt lat="48.969728" lon="2.235718">
        <ele>130.994625</ele>
        <time>2025-02-05T17:29:24.146Z</time>
      </trkpt>
      <trkpt lat="48.969649" lon="2.235715">
        <ele>130.963726</ele>
        <time>2025-02-05T17:29:25.696Z</time>
      </trkpt>
      <trkpt lat="48.969446" lon="2.235529">
        <ele>130.871100</ele>
        <time>2025-02-05T17:29:30.720Z</time>
      </trkpt>
      <trkpt lat="48.969330" lon="2.235488">
        <ele>130.824539</ele>
        <time>2025-02-05T17:29:33.545Z</time>
      </trkpt>
      <trkpt lat="48.969125" lon="2.235359">
        <ele>130.737813</ele>
        <time>2025-02-05T17:29:39.052Z</time>
      </trkpt>
      <trkpt lat="48.968994" lon="2.235201">
        <ele>130.672480</ele>
        <time>2025-02-05T17:29:43.410Z</time>
      </trkpt>
      <trkpt lat="48.969075" lon="2.235078">
        <ele>130.627760</ele>
        <time>2025-02-05T17:29:46.644Z</time>
      </trkpt>
      <trkpt lat="48.969223" lon="2.234893">
        <ele>130.738081</ele>
        <time>2025-02-05T17:29:51.968Z</time>
      </trkpt>
      <trkpt lat="48.969385" lon="2.234784">
        <ele>131.346803</ele>
        <time>2025-02-05T17:29:57.093Z</time>
      </trkpt>
      <trkpt lat="48.969434" lon="2.234802">
        <ele>131.520053</ele>
        <time>2025-02-05T17:29:58.631Z</time>
      </trkpt>
      <trkpt lat="48.969542" lon="2.234927">
        <ele>131.986263</ele>
        <time>2025-02-05T17:30:02.929Z</time>
      </trkpt>
      <trkpt lat="48.969677" lon="2.234916">
        <ele>132.450947</ele>
        <time>2025-02-05T17:30:07.707Z</time>
      </trkpt>
      <trkpt lat="48.969746" lon="2.234951">
        <ele>132.700916</ele>
        <time>2025-02-05T17:30:10.410Z</time>
      </trkpt>
      <trkpt lat="48.969764" lon="2.234890">
        <ele>132.851820</ele>
        <time>2025-02-05T17:30:13.449Z</time>
      </trkpt>
      <trkpt lat="48.969817" lon="2.234887">
        <ele>133.034117</ele>
        <time>2025-02-05T17:30:17.125Z</time>
      </trkpt>
      <trkpt lat="48.969843" lon="2.234885">
        <ele>133.123597</ele>
        <time>2025-02-05T17:30:20.391Z</time>
      </trkpt>
      <trkpt lat="48.969867" lon="2.234884">
        <ele>133.206121</ele>
        <time>2025-02-05T17:30:22.013Z</time>
      </trkpt>
      <trkpt lat="48.969860" lon="2.234740">
        <ele>133.531926</ele>
        <time>2025-02-05T17:30:28.580Z</time>
      </trkpt>
      <trkpt lat="48.969851" lon="2.234529">
        <ele>134.009022</ele>
        <time>2025-02-05T17:30:38.213Z</time>
      </trkpt>
      <trkpt lat="48.969842" lon="2.234292">
        <ele>134.544674</ele>
        <time>2025-02-05T17:30:49.084Z</time>
      </trkpt>
      <trkpt lat="48.969831" lon="2.233928">
        <ele>135.366860</ele>
        <time>2025-02-05T17:31:05.700Z</time>
      </trkpt>
      <trkpt lat="48.969828" lon="2.233707">
        <ele>135.865623</ele>
        <time>2025-02-05T17:31:12.322Z</time>
      </trkpt>
      <trkpt lat="48.969822" lon="2.233164">
        <ele>137.069488</ele>
        <time>2025-02-05T17:31:28.796Z</time>
      </trkpt>
      <trkpt lat="48.969813" lon="2.232715">
        <ele>138.018347</ele>
        <time>2025-02-05T17:31:42.797Z</time>
      </trkpt>
      <trkpt lat="48.969799" lon="2.232065">
        <ele>139.392072</ele>
        <time>2025-02-05T17:32:02.031Z</time>
      </trkpt>
      <trkpt lat="48.969781" lon="2.231437">
        <ele>140.719852</ele>
        <time>2025-02-05T17:32:18.513Z</time>
      </trkpt>
      <trkpt lat="48.969756" lon="2.231131">
        <ele>141.371199</ele>
        <time>2025-02-05T17:32:25.881Z</time>
      </trkpt>
      <trkpt lat="48.969668" lon="2.230742">
        <ele>142.240301</ele>
        <time>2025-02-05T17:32:34.851Z</time>
      </trkpt>
      <trkpt lat="48.969639" lon="2.230466">
        <ele>142.006967</ele>
        <time>2025-02-05T17:32:40.779Z</time>
      </trkpt>
      <trkpt lat="48.969635" lon="2.230248">
        <ele>141.155117</ele>
        <time>2025-02-05T17:32:44.636Z</time>
      </trkpt>
      <trkpt lat="48.969652" lon="2.230077">
        <ele>140.479567</ele>
        <time>2025-02-05T17:32:46.992Z</time>
      </trkpt>
      <trkpt lat="48.969926" lon="2.229274">
        <ele>136.944606</ele>
        <time>2025-02-05T17:32:56.393Z</time>
      </trkpt>
      <trkpt lat="48.969948" lon="2.229218">
        <ele>136.689691</ele>
        <time>2025-02-05T17:32:57.530Z</time>
      </trkpt>
      <trkpt lat="48.970006" lon="2.229108">
        <ele>136.138591</ele>
        <time>2025-02-05T17:32:59.950Z</time>
      </trkpt>
      <trkpt lat="48.970049" lon="2.229089">
        <ele>135.872188</ele>
        <time>2025-02-05T17:33:01.111Z</time>
      </trkpt>
      <trkpt lat="48.970140" lon="2.228945">
        <ele>135.091449</ele>
        <time>2025-02-05T17:33:04.482Z</time>
      </trkpt>
      <trkpt lat="48.970141" lon="2.227367">
        <ele>128.690354</ele>
        <time>2025-02-05T17:33:30.843Z</time>
      </trkpt>
      <trkpt lat="48.970051" lon="2.226818">
        <ele>126.299872</ele>
        <time>2025-02-05T17:33:40.406Z</time>
      </trkpt>
      <trkpt lat="48.969971" lon="2.226553">
        <ele>125.067670</ele>
        <time>2025-02-05T17:33:45.654Z</time>
      </trkpt>
      <trkpt lat="48.969728" lon="2.226062">
        <ele>122.469990</ele>
        <time>2025-02-05T17:33:57.735Z</time>
      </trkpt>
      <trkpt lat="48.969248" lon="2.225312">
        <ele>119.753189</ele>
        <time>2025-02-05T17:34:22.734Z</time>
      </trkpt>
      <trkpt lat="48.969152" lon="2.225122">
        <ele>119.519869</ele>
        <time>2025-02-05T17:34:28.479Z</time>
      </trkpt>
      <trkpt lat="48.968929" lon="2.224503">
        <ele>118.832753</ele>
        <time>2025-02-05T17:34:44.964Z</time>
      </trkpt>
      <trkpt lat="48.968715" lon="2.223791">
        <ele>118.070709</ele>
        <time>2025-02-05T17:35:02.259Z</time>
      </trkpt>
      <trkpt lat="48.969046" lon="2.224151">
        <ele>117.095742</ele>
        <time>2025-02-05T17:35:15.029Z</time>
      </trkpt>
      <trkpt lat="48.968715" lon="2.223791">
        <ele>114.771932</ele>
        <time>2025-02-05T17:35:27.131Z</time>
      </trkpt>
      <trkpt lat="48.968471" lon="2.223012">
        <ele>111.534442</ele>
        <time>2025-02-05T17:35:43.323Z</time>
      </trkpt>
      <trkpt lat="48.968424" lon="2.222869">
        <ele>110.934595</ele>
        <time>2025-02-05T17:35:46.221Z</time>
      </trkpt>
      <trkpt lat="48.967784" lon="2.221646">
        <ele>105.211977</ele>
        <time>2025-02-05T17:36:13.582Z</time>
      </trkpt>
      <trkpt lat="48.967534" lon="2.221037">
        <ele>102.689858</ele>
        <time>2025-02-05T17:36:26.051Z</time>
      </trkpt>
      <trkpt lat="48.967161" lon="2.220357">
        <ele>99.578279</ele>
        <time>2025-02-05T17:36:42.850Z</time>
      </trkpt>
      <trkpt lat="48.966979" lon="2.220102">
        <ele>98.255611</ele>
        <time>2025-02-05T17:36:50.943Z</time>
      </trkpt>
      <trkpt lat="48.966978" lon="2.220338">
        <ele>97.788276</ele>
        <time>2025-02-05T17:36:56.483Z</time>
      </trkpt>
      <trkpt lat="48.967009" lon="2.220560">
        <ele>98.043318</ele>
        <time>2025-02-05T17:37:02.351Z</time>
      </trkpt>
      <trkpt lat="48.967151" lon="2.220937">
        <ele>98.531726</ele>
        <time>2025-02-05T17:37:15.555Z</time>
      </trkpt>
      <trkpt lat="48.967310" lon="2.221331">
        <ele>99.051421</ele>
        <time>2025-02-05T17:37:30.494Z</time>
      </trkpt>
      <trkpt lat="48.967485" lon="2.221909">
        <ele>99.766659</ele>
        <time>2025-02-05T17:37:51.856Z</time>
      </trkpt>
      <trkpt lat="48.967676" lon="2.222397">
        <ele>100.405078</ele>
        <time>2025-02-05T17:38:10.909Z</time>
      </trkpt>
      <trkpt lat="48.967627" lon="2.222553">
        <ele>100.599404</ele>
        <time>2025-02-05T17:38:16.509Z</time>
      </trkpt>
      <trkpt lat="48.967390" lon="2.222870">
        <ele>101.630061</ele>
        <time>2025-02-05T17:38:31.963Z</time>
      </trkpt>
      <trkpt lat="48.967402" lon="2.222907">
        <ele>101.739671</ele>
        <time>2025-02-05T17:38:33.367Z</time>
      </trkpt>
      <trkpt lat="48.967425" lon="2.223019">
        <ele>102.051355</ele>
        <time>2025-02-05T17:38:37.062Z</time>
      </trkpt>
      <trkpt lat="48.967399" lon="2.223441">
        <ele>103.177104</ele>
        <time>2025-02-05T17:38:50.611Z</time>
      </trkpt>
      <trkpt lat="48.967425" lon="2.223911">
        <ele>104.429838</ele>
        <time>2025-02-05T17:39:05.971Z</time>
      </trkpt>
      <trkpt lat="48.967528" lon="2.224789">
        <ele>106.798726</ele>
        <time>2025-02-05T17:39:41.224Z</time>
      </trkpt>
      <trkpt lat="48.967568" lon="2.224884">
        <ele>107.098480</ele>
        <time>2025-02-05T17:39:46.456Z</time>
      </trkpt>
      <trkpt lat="48.967888" lon="2.225306">
        <ele>109.508577</ele>
        <time>2025-02-05T17:40:16.454Z</time>
      </trkpt>
      <trkpt lat="48.967976" lon="2.225187">
        <ele>110.424771</ele>
        <time>2025-02-05T17:40:24.800Z</time>
      </trkpt>
      <trkpt lat="48.968021" lon="2.225152">
        <ele>110.818167</ele>
        <time>2025-02-05T17:40:28.581Z</time>
      </trkpt>
      <trkpt lat="48.968338" lon="2.226225">
        <ele>116.832357</ele>
        <time>2025-02-05T17:41:24.989Z</time>
      </trkpt>
      <trkpt lat="48.968441" lon="2.226673">
        <ele>119.258574</ele>
        <time>2025-02-05T17:41:49.185Z</time>
      </trkpt>
      <trkpt lat="48.968512" lon="2.226806">
        <ele>120.134766</ele>
        <time>2025-02-05T17:41:58.187Z</time>
      </trkpt>
      <trkpt lat="48.968716" lon="2.227043">
        <ele>122.148410</ele>
        <time>2025-02-05T17:42:20.072Z</time>
      </trkpt>
      <trkpt lat="48.969076" lon="2.227690">
        <ele>127.452200</ele>
        <time>2025-02-05T17:43:10.443Z</time>
      </trkpt>
      <trkpt lat="48.969308" lon="2.227956">
        <ele>130.218254</ele>
        <time>2025-02-05T17:43:36.867Z</time>
      </trkpt>
      <trkpt lat="48.969365" lon="2.228134">
        <ele>131.456729</ele>
        <time>2025-02-05T17:43:49.062Z</time>
      </trkpt>
      <trkpt lat="48.969403" lon="2.228314">
        <ele>132.639112</ele>
        <time>2025-02-05T17:44:00.794Z</time>
      </trkpt>
      <trkpt lat="48.969576" lon="2.228566">
        <ele>134.919274</ele>
        <time>2025-02-05T17:44:23.273Z</time>
      </trkpt>
      <trkpt lat="48.969676" lon="2.228492">
        <ele>135.978312</ele>
        <time>2025-02-05T17:44:33.042Z</time>
      </trkpt>
      <trkpt lat="48.969872" lon="2.228906">
        <ele>139.170220</ele>
        <time>2025-02-05T17:45:00.623Z</time>
      </trkpt>
      <trkpt lat="48.969874" lon="2.229036">
        <ele>139.222113</ele>
        <time>2025-02-05T17:45:06.697Z</time>
      </trkpt>
      <trkpt lat="48.969948" lon="2.229218">
        <ele>139.269854</ele>
        <time>2025-02-05T17:45:15.999Z</time>
      </trkpt>
      <trkpt lat="48.970006" lon="2.229108">
        <ele>139.301317</ele>
        <time>2025-02-05T17:45:21.474Z</time>
      </trkpt>
      <trkpt lat="48.970049" lon="2.229089">
        <ele>139.316527</ele>
        <time>2025-02-05T17:45:23.795Z</time>
      </trkpt>
      <trkpt lat="48.970291" lon="2.229197">
        <ele>139.402191</ele>
        <time>2025-02-05T17:45:34.700Z</time>
      </trkpt>
      <trkpt lat="48.970491" lon="2.229197">
        <ele>139.470133</ele>
        <time>2025-02-05T17:45:41.372Z</time>
      </trkpt>
      <trkpt lat="48.970798" lon="2.229266">
        <ele>139.575552</ele>
        <time>2025-02-05T17:45:51.239Z</time>
      </trkpt>
      <trkpt lat="48.971022" lon="2.229367">
        <ele>139.654910</ele>
        <time>2025-02-05T17:45:58.537Z</time>
      </trkpt>
      <trkpt lat="48.971534" lon="2.229229">
        <ele>139.887020</ele>
        <time>2025-02-05T17:46:14.178Z</time>
      </trkpt>
      <trkpt lat="48.971722" lon="2.229239">
        <ele>140.084370</ele>
        <time>2025-02-05T17:46:19.902Z</time>
      </trkpt>
      <trkpt lat="48.972522" lon="2.229410">
        <ele>140.931865</ele>
        <time>2025-02-05T17:46:50.181Z</time>
      </trkpt>
      <trkpt lat="48.972866" lon="2.229009">
        <ele>141.386284</ele>
        <time>2025-02-05T17:47:16.029Z</time>
      </trkpt>
      <trkpt lat="48.972979" lon="2.229296">
        <ele>141.616751</ele>
        <time>2025-02-05T17:47:29.471Z</time>
      </trkpt>
      <trkpt lat="48.973112" lon="2.229124">
        <ele>141.878006</ele>
        <time>2025-02-05T17:47:39.771Z</time>
      </trkpt>
      <trkpt lat="48.973196" lon="2.229015">
        <ele>142.077725</ele>
        <time>2025-02-05T17:47:46.180Z</time>
      </trkpt>
      <trkpt lat="48.973503" lon="2.228616">
        <ele>142.808136</ele>
        <time>2025-02-05T17:48:08.571Z</time>
      </trkpt>
      <trkpt lat="48.975939" lon="2.224473">
        <ele>144.309778</ele>
        <time>2025-02-05T17:50:33.872Z</time>
      </trkpt>
      <trkpt lat="48.975988" lon="2.224391">
        <ele>144.138261</ele>
        <time>2025-02-05T17:50:36.277Z</time>
      </trkpt>
      <trkpt lat="48.976209" lon="2.224680">
        <ele>143.451962</ele>
        <time>2025-02-05T17:50:45.606Z</time>
      </trkpt>
      <trkpt lat="48.976451" lon="2.224910">
        <ele>142.779845</ele>
        <time>2025-02-05T17:50:54.282Z</time>
      </trkpt>
      <trkpt lat="48.976729" lon="2.225057">
        <ele>142.086424</ele>
        <time>2025-02-05T17:51:02.875Z</time>
      </trkpt>
      <trkpt lat="48.976835" lon="2.225060">
        <ele>141.836600</ele>
        <time>2025-02-05T17:51:05.971Z</time>
      </trkpt>
      <trkpt lat="48.976830" lon="2.225125">
        <ele>141.735378</ele>
        <time>2025-02-05T17:51:06.642Z</time>
      </trkpt>
      <trkpt lat="48.977035" lon="2.225218">
        <ele>140.422415</ele>
        <time>2025-02-05T17:51:09.988Z</time>
      </trkpt>
      <trkpt lat="48.977618" lon="2.225509">
        <ele>136.190365</ele>
        <time>2025-02-05T17:51:19.044Z</time>
      </trkpt>
      <trkpt lat="48.977904" lon="2.225699">
        <ele>134.038047</ele>
        <time>2025-02-05T17:51:23.610Z</time>
      </trkpt>
      <trkpt lat="48.978336" lon="2.226036">
        <ele>130.690061</ele>
        <time>2025-02-05T17:51:30.851Z</time>
      </trkpt>
      <trkpt lat="48.978533" lon="2.226083">
        <ele>129.314532</ele>
        <time>2025-02-05T17:51:33.843Z</time>
      </trkpt>
      <trkpt lat="48.978806" lon="2.226077">
        <ele>128.260692</ele>
        <time>2025-02-05T17:51:37.996Z</time>
      </trkpt>
      <trkpt lat="48.978829" lon="2.226076">
        <ele>128.174623</ele>
        <time>2025-02-05T17:51:38.359Z</time>
      </trkpt>
      <trkpt lat="48.978854" lon="2.226053">
        <ele>128.065381</ele>
        <time>2025-02-05T17:51:38.814Z</time>
      </trkpt>
      <trkpt lat="48.978947" lon="2.225882">
        <ele>127.520158</ele>
        <time>2025-02-05T17:51:41.079Z</time>
      </trkpt>
      <trkpt lat="48.979072" lon="2.225753">
        <ele>126.955419</ele>
        <time>2025-02-05T17:51:43.470Z</time>
      </trkpt>
      <trkpt lat="48.979266" lon="2.225444">
        <ele>125.905603</ele>
        <time>2025-02-05T17:51:51.646Z</time>
      </trkpt>
      <trkpt lat="48.979348" lon="2.225028">
        <ele>124.839226</ele>
        <time>2025-02-05T17:52:00.244Z</time>
      </trkpt>
      <trkpt lat="48.979353" lon="2.224904">
        <ele>124.534222</ele>
        <time>2025-02-05T17:52:02.849Z</time>
      </trkpt>
      <trkpt lat="48.979295" lon="2.224831">
        <ele>124.252816</ele>
        <time>2025-02-05T17:52:05.204Z</time>
      </trkpt>
      <trkpt lat="48.979218" lon="2.224626">
        <ele>123.672935</ele>
        <time>2025-02-05T17:52:10.255Z</time>
      </trkpt>
      <trkpt lat="48.979126" lon="2.224511">
        <ele>123.227804</ele>
        <time>2025-02-05T17:52:14.181Z</time>
      </trkpt>
      <trkpt lat="48.979076" lon="2.224448">
        <ele>122.985104</ele>
        <time>2025-02-05T17:52:16.321Z</time>
      </trkpt>
      <trkpt lat="48.979099" lon="2.224315">
        <ele>122.647433</ele>
        <time>2025-02-05T17:52:19.376Z</time>
      </trkpt>
      <trkpt lat="48.979200" lon="2.224198">
        <ele>122.715350</ele>
        <time>2025-02-05T17:52:23.831Z</time>
      </trkpt>
      <trkpt lat="48.979256" lon="2.224019">
        <ele>122.999479</ele>
        <time>2025-02-05T17:52:28.967Z</time>
      </trkpt>
      <trkpt lat="48.979283" lon="2.223833">
        <ele>123.272432</ele>
        <time>2025-02-05T17:52:34.364Z</time>
      </trkpt>
      <trkpt lat="48.979298" lon="2.223455">
        <ele>123.815042</ele>
        <time>2025-02-05T17:52:45.993Z</time>
      </trkpt>
      <trkpt lat="48.979281" lon="2.223218">
        <ele>124.156651</ele>
        <time>2025-02-05T17:52:54.059Z</time>
      </trkpt>
      <trkpt lat="48.979237" lon="2.223134">
        <ele>124.310644</ele>
        <time>2025-02-05T17:52:57.711Z</time>
      </trkpt>
      <trkpt lat="48.979220" lon="2.223025">
        <ele>124.471175</ele>
        <time>2025-02-05T17:53:01.697Z</time>
      </trkpt>
      <trkpt lat="48.979252" lon="2.222899">
        <ele>124.664760</ele>
        <time>2025-02-05T17:53:06.216Z</time>
      </trkpt>
      <trkpt lat="48.979264" lon="2.222697">
        <ele>124.955381</ele>
        <time>2025-02-05T17:53:13.008Z</time>
      </trkpt>
      <trkpt lat="48.979093" lon="2.222465">
        <ele>125.455252</ele>
        <time>2025-02-05T17:53:23.335Z</time>
      </trkpt>
      <trkpt lat="48.979200" lon="2.222336">
        <ele>125.753132</ele>
        <time>2025-02-05T17:53:30.754Z</time>
      </trkpt>
      <trkpt lat="48.979276" lon="2.222204">
        <ele>126.004730</ele>
        <time>2025-02-05T17:53:37.037Z</time>
      </trkpt>
      <trkpt lat="48.979409" lon="2.221825">
        <ele>126.582635</ele>
        <time>2025-02-05T17:53:52.731Z</time>
      </trkpt>
      <trkpt lat="48.979496" lon="2.221805">
        <ele>126.733922</ele>
        <time>2025-02-05T17:53:57.644Z</time>
      </trkpt>
      <trkpt lat="48.980019" lon="2.221698">
        <ele>127.641277</ele>
        <time>2025-02-05T17:54:27.804Z</time>
      </trkpt>
      <trkpt lat="48.980259" lon="2.221612">
        <ele>128.065209</ele>
        <time>2025-02-05T17:54:40.880Z</time>
      </trkpt>
      <trkpt lat="48.980305" lon="2.221555">
        <ele>128.167160</ele>
        <time>2025-02-05T17:54:43.984Z</time>
      </trkpt>
      <trkpt lat="48.980743" lon="2.220874">
        <ele>129.243183</ele>
        <time>2025-02-05T17:55:09.891Z</time>
      </trkpt>
      <trkpt lat="48.980888" lon="2.220607">
        <ele>129.226271</ele>
        <time>2025-02-05T17:55:17.446Z</time>
      </trkpt>
      <trkpt lat="48.981271" lon="2.219987">
        <ele>126.245812</ele>
        <time>2025-02-05T17:55:34.403Z</time>
      </trkpt>
      <trkpt lat="48.981448" lon="2.219794">
        <ele>125.084929</ele>
        <time>2025-02-05T17:55:40.360Z</time>
      </trkpt>
      <trkpt lat="48.981574" lon="2.219748">
        <ele>124.393873</ele>
        <time>2025-02-05T17:55:43.831Z</time>
      </trkpt>
      <trkpt lat="48.981673" lon="2.219851">
        <ele>123.754493</ele>
        <time>2025-02-05T17:55:47.004Z</time>
      </trkpt>
      <trkpt lat="48.981759" lon="2.219867">
        <ele>123.292396</ele>
        <time>2025-02-05T17:55:49.308Z</time>
      </trkpt>
      <trkpt lat="48.981760" lon="2.219867">
        <ele>123.287063</ele>
        <time>2025-02-05T17:55:49.336Z</time>
      </trkpt>
      <trkpt lat="48.981906" lon="2.219851">
        <ele>122.506345</ele>
        <time>2025-02-05T17:55:53.230Z</time>
      </trkpt>
      <trkpt lat="48.981970" lon="2.219768">
        <ele>122.058091</ele>
        <time>2025-02-05T17:55:55.458Z</time>
      </trkpt>
      <trkpt lat="48.982116" lon="2.219817">
        <ele>121.260718</ele>
        <time>2025-02-05T17:55:59.476Z</time>
      </trkpt>
      <trkpt lat="48.982186" lon="2.219794">
        <ele>120.878784</ele>
        <time>2025-02-05T17:56:01.412Z</time>
      </trkpt>
      <trkpt lat="48.982381" lon="2.219468">
        <ele>119.756017</ele>
        <time>2025-02-05T17:56:09.342Z</time>
      </trkpt>
      <trkpt lat="48.982428" lon="2.219441">
        <ele>119.674097</ele>
        <time>2025-02-05T17:56:10.769Z</time>
      </trkpt>
      <trkpt lat="48.982488" lon="2.219494">
        <ele>119.560988</ele>
        <time>2025-02-05T17:56:12.807Z</time>
      </trkpt>
      <trkpt lat="48.982547" lon="2.219387">
        <ele>119.411404</ele>
        <time>2025-02-05T17:56:14.319Z</time>
      </trkpt>
      <trkpt lat="48.982543" lon="2.219085">
        <ele>119.088092</ele>
        <time>2025-02-05T17:56:17.693Z</time>
      </trkpt>
      <trkpt lat="48.982575" lon="2.218761">
        <ele>118.737394</ele>
        <time>2025-02-05T17:56:21.546Z</time>
      </trkpt>
      <trkpt lat="48.982769" lon="2.218068">
        <ele>117.930982</ele>
        <time>2025-02-05T17:56:32.480Z</time>
      </trkpt>
      <trkpt lat="48.982729" lon="2.218038">
        <ele>117.858272</ele>
        <time>2025-02-05T17:56:34.010Z</time>
      </trkpt>
      <trkpt lat="48.983188" lon="2.216765">
        <ele>116.868456</ele>
        <time>2025-02-05T17:57:03.998Z</time>
      </trkpt>
      <trkpt lat="48.983639" lon="2.215590">
        <ele>116.579616</ele>
        <time>2025-02-05T17:57:24.178Z</time>
      </trkpt>
      <trkpt lat="48.983838" lon="2.215559">
        <ele>116.514938</ele>
        <time>2025-02-05T17:57:28.563Z</time>
      </trkpt>
      <trkpt lat="48.983916" lon="2.215484">
        <ele>116.485117</ele>
        <time>2025-02-05T17:57:30.522Z</time>
      </trkpt>
      <trkpt lat="48.983972" lon="2.215374">
        <ele>116.455576</ele>
        <time>2025-02-05T17:57:32.493Z</time>
      </trkpt>
      <trkpt lat="48.984119" lon="2.214899">
        <ele>116.553091</ele>
        <time>2025-02-05T17:57:40.038Z</time>
      </trkpt>
      <trkpt lat="48.984207" lon="2.214446">
        <ele>116.706966</ele>
        <time>2025-02-05T17:57:47.362Z</time>
      </trkpt>
      <trkpt lat="48.984182" lon="2.214314">
        <ele>116.751715</ele>
        <time>2025-02-05T17:57:49.719Z</time>
      </trkpt>
      <trkpt lat="48.984384" lon="2.213572">
        <ele>117.013361</ele>
        <time>2025-02-05T17:58:04.111Z</time>
      </trkpt>
      <trkpt lat="48.984486" lon="2.213107">
        <ele>117.173052</ele>
        <time>2025-02-05T17:58:14.194Z</time>
      </trkpt>
      <trkpt lat="48.984827" lon="2.212061">
        <ele>118.201919</ele>
        <time>2025-02-05T17:58:50.343Z</time>
      </trkpt>
      <trkpt lat="48.984923" lon="2.211846">
        <ele>118.521119</ele>
        <time>2025-02-05T17:58:58.789Z</time>
      </trkpt>
      <trkpt lat="48.985002" lon="2.210599">
        <ele>120.058889</ele>
        <time>2025-02-05T17:59:36.890Z</time>
      </trkpt>
      <trkpt lat="48.985022" lon="2.210361">
        <ele>120.353411</ele>
        <time>2025-02-05T17:59:43.987Z</time>
      </trkpt>
      <trkpt lat="48.985208" lon="2.209633">
        <ele>122.157154</ele>
        <time>2025-02-05T18:00:07.107Z</time>
      </trkpt>
      <trkpt lat="48.985295" lon="2.209421">
        <ele>122.876354</ele>
        <time>2025-02-05T18:00:14.724Z</time>
      </trkpt>
      <trkpt lat="48.985409" lon="2.209001">
        <ele>124.183677</ele>
        <time>2025-02-05T18:00:29.519Z</time>
      </trkpt>
      <trkpt lat="48.985474" lon="2.208546">
        <ele>125.523066</ele>
        <time>2025-02-05T18:00:46.872Z</time>
      </trkpt>
      <trkpt lat="48.985669" lon="2.207852">
        <ele>127.694524</ele>
        <time>2025-02-05T18:01:21.170Z</time>
      </trkpt>
      <trkpt lat="48.985599" lon="2.207724">
        <ele>128.173776</ele>
        <time>2025-02-05T18:01:29.678Z</time>
      </trkpt>
      <trkpt lat="48.985287" lon="2.207350">
        <ele>130.335922</ele>
        <time>2025-02-05T18:02:01.850Z</time>
      </trkpt>
      <trkpt lat="48.985201" lon="2.207208">
        <ele>131.065966</ele>
        <time>2025-02-05T18:02:11.969Z</time>
      </trkpt>
      <trkpt lat="48.985204" lon="2.207036">
        <ele>131.716036</ele>
        <time>2025-02-05T18:02:20.662Z</time>
      </trkpt>
      <trkpt lat="48.985297" lon="2.206270">
        <ele>134.659198</ele>
        <time>2025-02-05T18:02:56.989Z</time>
      </trkpt>
      <trkpt lat="48.985393" lon="2.205694">
        <ele>136.904486</ele>
        <time>2025-02-05T18:03:21.981Z</time>
      </trkpt>
      <trkpt lat="48.985433" lon="2.205633">
        <ele>137.230286</ele>
        <time>2025-02-05T18:03:25.156Z</time>
      </trkpt>
      <trkpt lat="48.985629" lon="2.205195">
        <ele>138.969722</ele>
        <time>2025-02-05T18:03:43.234Z</time>
      </trkpt>
      <trkpt lat="48.985647" lon="2.204926">
        <ele>139.126561</ele>
        <time>2025-02-05T18:03:51.180Z</time>
      </trkpt>
      <trkpt lat="48.985592" lon="2.204486">
        <ele>139.386366</ele>
        <time>2025-02-05T18:04:02.195Z</time>
      </trkpt>
      <trkpt lat="48.985595" lon="2.204156">
        <ele>139.577796</ele>
        <time>2025-02-05T18:04:09.965Z</time>
      </trkpt>
      <trkpt lat="48.985916" lon="2.203404">
        <ele>140.098138</ele>
        <time>2025-02-05T18:04:31.678Z</time>
      </trkpt>
      <trkpt lat="48.985939" lon="2.203266">
        <ele>140.180724</ele>
        <time>2025-02-05T18:04:35.759Z</time>
      </trkpt>
      <trkpt lat="48.986039" lon="2.202756">
        <ele>140.489463</ele>
        <time>2025-02-05T18:04:51.763Z</time>
      </trkpt>
      <trkpt lat="48.986102" lon="2.202586">
        <ele>140.221265</ele>
        <time>2025-02-05T18:04:57.514Z</time>
      </trkpt>
      <trkpt lat="48.986205" lon="2.202400">
        <ele>139.770779</ele>
        <time>2025-02-05T18:05:04.665Z</time>
      </trkpt>
      <trkpt lat="48.985979" lon="2.201618">
        <ele>138.189139</ele>
        <time>2025-02-05T18:05:24.157Z</time>
      </trkpt>
      <trkpt lat="48.985961" lon="2.201464">
        <ele>137.899597</ele>
        <time>2025-02-05T18:05:27.270Z</time>
      </trkpt>
      <trkpt lat="48.985963" lon="2.200868">
        <ele>136.796378</ele>
        <time>2025-02-05T18:05:38.559Z</time>
      </trkpt>
      <trkpt lat="48.986014" lon="2.200593">
        <ele>136.267413</ele>
        <time>2025-02-05T18:05:43.824Z</time>
      </trkpt>
      <trkpt lat="48.986158" lon="2.200525">
        <ele>135.842188</ele>
        <time>2025-02-05T18:05:48.000Z</time>
      </trkpt>
      <trkpt lat="48.986320" lon="2.200499">
        <ele>135.374789</ele>
        <time>2025-02-05T18:05:52.513Z</time>
      </trkpt>
      <trkpt lat="48.986615" lon="2.200453">
        <ele>134.419235</ele>
        <time>2025-02-05T18:06:00.734Z</time>
      </trkpt>
      <trkpt lat="48.986882" lon="2.200373">
        <ele>133.542397</ele>
        <time>2025-02-05T18:06:08.582Z</time>
      </trkpt>
      <trkpt lat="48.986990" lon="2.200285">
        <ele>133.147757</ele>
        <time>2025-02-05T18:06:12.167Z</time>
      </trkpt>
      <trkpt lat="48.987071" lon="2.200112">
        <ele>132.698365</ele>
        <time>2025-02-05T18:06:16.282Z</time>
      </trkpt>
      <trkpt lat="48.987163" lon="2.199601">
        <ele>131.577880</ele>
        <time>2025-02-05T18:06:26.819Z</time>
      </trkpt>
      <trkpt lat="48.987191" lon="2.199264">
        <ele>130.859574</ele>
        <time>2025-02-05T18:06:34.099Z</time>
      </trkpt>
      <trkpt lat="48.987169" lon="2.199040">
        <ele>130.380631</ele>
        <time>2025-02-05T18:06:39.390Z</time>
      </trkpt>
      <trkpt lat="48.987214" lon="2.198654">
        <ele>129.633925</ele>
        <time>2025-02-05T18:06:49.768Z</time>
      </trkpt>
      <trkpt lat="48.987446" lon="2.198036">
        <ele>129.490856</ele>
        <time>2025-02-05T18:07:11.263Z</time>
      </trkpt>
      <trkpt lat="48.987787" lon="2.197184">
        <ele>129.290321</ele>
        <time>2025-02-05T18:07:33.062Z</time>
      </trkpt>
      <trkpt lat="48.987854" lon="2.196951">
        <ele>129.239203</ele>
        <time>2025-02-05T18:07:38.098Z</time>
      </trkpt>
      <trkpt lat="48.987970" lon="2.196685">
        <ele>129.175026</ele>
        <time>2025-02-05T18:07:44.918Z</time>
      </trkpt>
      <trkpt lat="48.988057" lon="2.196490">
        <ele>129.127643</ele>
        <time>2025-02-05T18:07:50.816Z</time>
      </trkpt>
      <trkpt lat="48.988186" lon="2.196092">
        <ele>130.117971</ele>
        <time>2025-02-05T18:08:03.905Z</time>
      </trkpt>
      <trkpt lat="48.988275" lon="2.195584">
        <ele>132.150086</ele>
        <time>2025-02-05T18:08:22.040Z</time>
      </trkpt>
      <trkpt lat="48.988276" lon="2.195422">
        <ele>132.776220</ele>
        <time>2025-02-05T18:08:28.083Z</time>
      </trkpt>
      <trkpt lat="48.987778" lon="2.195210">
        <ele>135.821549</ele>
        <time>2025-02-05T18:09:03.536Z</time>
      </trkpt>
      <trkpt lat="48.987463" lon="2.194869">
        <ele>138.097254</ele>
        <time>2025-02-05T18:09:34.196Z</time>
      </trkpt>
      <trkpt lat="48.987385" lon="2.194737">
        <ele>138.783776</ele>
        <time>2025-02-05T18:09:44.427Z</time>
      </trkpt>
      <trkpt lat="48.987279" lon="2.194382">
        <ele>140.650048</ele>
        <time>2025-02-05T18:10:07.681Z</time>
      </trkpt>
      <trkpt lat="48.987192" lon="2.194373">
        <ele>141.467738</ele>
        <time>2025-02-05T18:10:15.805Z</time>
      </trkpt>
      <trkpt lat="48.987141" lon="2.194411">
        <ele>142.000080</ele>
        <time>2025-02-05T18:10:20.929Z</time>
      </trkpt>
      <trkpt lat="48.987095" lon="2.194496">
        <ele>142.678051</ele>
        <time>2025-02-05T18:10:27.498Z</time>
      </trkpt>
      <trkpt lat="48.986996" lon="2.193866">
        <ele>146.664400</ele>
        <time>2025-02-05T18:11:06.179Z</time>
      </trkpt>
      <trkpt lat="48.986693" lon="2.194573">
        <ele>151.860598</ele>
        <time>2025-02-05T18:11:55.195Z</time>
      </trkpt>
      <trkpt lat="48.986528" lon="2.194669">
        <ele>153.516770</ele>
        <time>2025-02-05T18:12:08.524Z</time>
      </trkpt>
      <trkpt lat="48.986437" lon="2.194656">
        <ele>154.373832</ele>
        <time>2025-02-05T18:12:15.135Z</time>
      </trkpt>
      <trkpt lat="48.986363" lon="2.194690">
        <ele>155.098598</ele>
        <time>2025-02-05T18:12:20.595Z</time>
      </trkpt>
      <trkpt lat="48.986220" lon="2.194607">
        <ele>156.533509</ele>
        <time>2025-02-05T18:12:31.797Z</time>
      </trkpt>
      <trkpt lat="48.986069" lon="2.194469">
        <ele>157.205271</ele>
        <time>2025-02-05T18:12:45.115Z</time>
      </trkpt>
      <trkpt lat="48.985897" lon="2.194383">
        <ele>157.884950</ele>
        <time>2025-02-05T18:12:58.536Z</time>
      </trkpt>
      <trkpt lat="48.985772" lon="2.194435">
        <ele>158.371458</ele>
        <time>2025-02-05T18:13:07.809Z</time>
      </trkpt>
      <trkpt lat="48.985749" lon="2.194435">
        <ele>158.457816</ele>
        <time>2025-02-05T18:13:09.410Z</time>
      </trkpt>
      <trkpt lat="48.985653" lon="2.194446">
        <ele>158.819281</ele>
        <time>2025-02-05T18:13:15.992Z</time>
      </trkpt>
      <trkpt lat="48.985569" lon="2.194046">
        <ele>159.854112</ele>
        <time>2025-02-05T18:13:34.272Z</time>
      </trkpt>
      <trkpt lat="48.985493" lon="2.193928">
        <ele>160.261498</ele>
        <time>2025-02-05T18:13:40.721Z</time>
      </trkpt>
      <trkpt lat="48.985417" lon="2.193878">
        <ele>160.572313</ele>
        <time>2025-02-05T18:13:45.352Z</time>
      </trkpt>
      <trkpt lat="48.985064" lon="2.193985">
        <ele>161.923678</ele>
        <time>2025-02-05T18:14:02.380Z</time>
      </trkpt>
      <trkpt lat="48.985077" lon="2.194068">
        <ele>162.133936</ele>
        <time>2025-02-05T18:14:04.714Z</time>
      </trkpt>
      <trkpt lat="48.984960" lon="2.194022">
        <ele>162.587618</ele>
        <time>2025-02-05T18:14:13.139Z</time>
      </trkpt>
      <trkpt lat="48.984794" lon="2.193957">
        <ele>163.231142</ele>
        <time>2025-02-05T18:14:25.075Z</time>
      </trkpt>
      <trkpt lat="48.984375" lon="2.193792">
        <ele>161.850299</ele>
        <time>2025-02-05T18:14:38.703Z</time>
      </trkpt>
      <trkpt lat="48.984273" lon="2.193627">
        <ele>161.326732</ele>
        <time>2025-02-05T18:14:43.098Z</time>
      </trkpt>
      <trkpt lat="48.984295" lon="2.193585">
        <ele>161.202610</ele>
        <time>2025-02-05T18:14:44.169Z</time>
      </trkpt>
      <trkpt lat="48.984287" lon="2.193481">
        <ele>160.960750</ele>
        <time>2025-02-05T18:14:46.159Z</time>
      </trkpt>
      <trkpt lat="48.984253" lon="2.193351">
        <ele>160.637514</ele>
        <time>2025-02-05T18:14:48.827Z</time>
      </trkpt>
      <trkpt lat="48.984296" lon="2.193243">
        <ele>160.345741</ele>
        <time>2025-02-05T18:14:51.158Z</time>
      </trkpt>
      <trkpt lat="48.984385" lon="2.193195">
        <ele>160.013458</ele>
        <time>2025-02-05T18:14:53.785Z</time>
      </trkpt>
      <trkpt lat="48.984462" lon="2.193059">
        <ele>159.598585</ele>
        <time>2025-02-05T18:14:56.992Z</time>
      </trkpt>
      <trkpt lat="48.984371" lon="2.192920">
        <ele>159.145092</ele>
        <time>2025-02-05T18:15:05.954Z</time>
      </trkpt>
      <trkpt lat="48.984250" lon="2.192519">
        <ele>158.125663</ele>
        <time>2025-02-05T18:15:26.115Z</time>
      </trkpt>
      <trkpt lat="48.984185" lon="2.192386">
        <ele>157.742638</ele>
        <time>2025-02-05T18:15:33.700Z</time>
      </trkpt>
      <trkpt lat="48.984065" lon="2.192559">
        <ele>157.161219</ele>
        <time>2025-02-05T18:15:38.794Z</time>
      </trkpt>
      <trkpt lat="48.983955" lon="2.192552">
        <ele>156.903681</ele>
        <time>2025-02-05T18:15:42.335Z</time>
      </trkpt>
      <trkpt lat="48.983906" lon="2.192506">
        <ele>156.832447</ele>
        <time>2025-02-05T18:15:44.143Z</time>
      </trkpt>
      <trkpt lat="48.983872" lon="2.192419">
        <ele>156.750198</ele>
        <time>2025-02-05T18:15:46.452Z</time>
      </trkpt>
      <trkpt lat="48.983896" lon="2.192270">
        <ele>156.625578</ele>
        <time>2025-02-05T18:15:49.628Z</time>
      </trkpt>
      <trkpt lat="48.983843" lon="2.192277">
        <ele>156.559733</ele>
        <time>2025-02-05T18:15:53.332Z</time>
      </trkpt>
      <trkpt lat="48.983740" lon="2.192356">
        <ele>156.417009</ele>
        <time>2025-02-05T18:16:01.330Z</time>
      </trkpt>
      <trkpt lat="48.983694" lon="2.192420">
        <ele>156.339912</ele>
        <time>2025-02-05T18:16:05.683Z</time>
      </trkpt>
      <trkpt lat="48.983530" lon="2.192843">
        <ele>155.940838</ele>
        <time>2025-02-05T18:16:28.091Z</time>
      </trkpt>
      <trkpt lat="48.983480" lon="2.192971">
        <ele>155.819843</ele>
        <time>2025-02-05T18:16:34.870Z</time>
      </trkpt>
      <trkpt lat="48.983388" lon="2.193089">
        <ele>155.671003</ele>
        <time>2025-02-05T18:16:43.226Z</time>
      </trkpt>
      <trkpt lat="48.983264" lon="2.193162">
        <ele>155.506470</ele>
        <time>2025-02-05T18:16:52.463Z</time>
      </trkpt>
      <trkpt lat="48.983185" lon="2.193289">
        <ele>155.364334</ele>
        <time>2025-02-05T18:17:00.458Z</time>
      </trkpt>
      <trkpt lat="48.983155" lon="2.193210">
        <ele>155.290195</ele>
        <time>2025-02-05T18:17:02.354Z</time>
      </trkpt>
      <trkpt lat="48.982991" lon="2.193380">
        <ele>155.044693</ele>
        <time>2025-02-05T18:17:09.080Z</time>
      </trkpt>
      <trkpt lat="48.982685" lon="2.193431">
        <ele>154.623004</ele>
        <time>2025-02-05T18:17:30.487Z</time>
      </trkpt>
      <trkpt lat="48.982590" lon="2.193282">
        <ele>154.372785</ele>
        <time>2025-02-05T18:17:34.697Z</time>
      </trkpt>
      <trkpt lat="48.982501" lon="2.193229">
        <ele>154.197410</ele>
        <time>2025-02-05T18:17:37.547Z</time>
      </trkpt>
      <trkpt lat="48.982441" lon="2.193143">
        <ele>154.046227</ele>
        <time>2025-02-05T18:17:40.101Z</time>
      </trkpt>
      <trkpt lat="48.982377" lon="2.193323">
        <ele>153.799643</ele>
        <time>2025-02-05T18:17:44.284Z</time>
      </trkpt>
      <trkpt lat="48.982289" lon="2.193327">
        <ele>153.638063</ele>
        <time>2025-02-05T18:17:50.462Z</time>
      </trkpt>
      <trkpt lat="48.982193" lon="2.193372">
        <ele>153.453724</ele>
        <time>2025-02-05T18:17:57.425Z</time>
      </trkpt>
      <trkpt lat="48.982152" lon="2.193236">
        <ele>153.273454</ele>
        <time>2025-02-05T18:18:00.474Z</time>
      </trkpt>
      <trkpt lat="48.982039" lon="2.193294">
        <ele>153.054613</ele>
        <time>2025-02-05T18:18:03.962Z</time>
      </trkpt>
      <trkpt lat="48.982062" lon="2.193313">
        <ele>153.006596</ele>
        <time>2025-02-05T18:18:04.801Z</time>
      </trkpt>
      <trkpt lat="48.982055" lon="2.193469">
        <ele>152.818254</ele>
        <time>2025-02-05T18:18:07.798Z</time>
      </trkpt>
      <trkpt lat="48.982090" lon="2.193613">
        <ele>152.633291</ele>
        <time>2025-02-05T18:18:10.932Z</time>
      </trkpt>
      <trkpt lat="48.982060" lon="2.193770">
        <ele>152.436331</ele>
        <time>2025-02-05T18:18:18.372Z</time>
      </trkpt>
      <trkpt lat="48.982022" lon="2.193846">
        <ele>152.321248</ele>
        <time>2025-02-05T18:18:22.723Z</time>
      </trkpt>
      <trkpt lat="48.981973" lon="2.193945">
        <ele>152.171892</ele>
        <time>2025-02-05T18:18:28.415Z</time>
      </trkpt>
      <trkpt lat="48.981924" lon="2.194167">
        <ele>151.889773</ele>
        <time>2025-02-05T18:18:39.072Z</time>
      </trkpt>
      <trkpt lat="48.981882" lon="2.194359">
        <ele>151.645998</ele>
        <time>2025-02-05T18:18:48.288Z</time>
      </trkpt>
      <trkpt lat="48.981822" lon="2.194415">
        <ele>151.516862</ele>
        <time>2025-02-05T18:18:53.176Z</time>
      </trkpt>
      <trkpt lat="48.981742" lon="2.194432">
        <ele>151.662555</ele>
        <time>2025-02-05T18:18:58.836Z</time>
      </trkpt>
      <trkpt lat="48.981619" lon="2.194511">
        <ele>152.337568</ele>
        <time>2025-02-05T18:19:08.081Z</time>
      </trkpt>
      <trkpt lat="48.981566" lon="2.194609">
        <ele>152.759025</ele>
        <time>2025-02-05T18:19:13.874Z</time>
      </trkpt>
      <trkpt lat="48.981508" lon="2.194713">
        <ele>153.211981</ele>
        <time>2025-02-05T18:19:20.097Z</time>
      </trkpt>
      <trkpt lat="48.981486" lon="2.195002">
        <ele>154.177580</ele>
        <time>2025-02-05T18:19:33.415Z</time>
      </trkpt>
      <trkpt lat="48.981392" lon="2.195203">
        <ele>154.996722</ele>
        <time>2025-02-05T18:19:44.641Z</time>
      </trkpt>
      <trkpt lat="48.981015" lon="2.195851">
        <ele>157.870762</ele>
        <time>2025-02-05T18:20:24.261Z</time>
      </trkpt>
      <trkpt lat="48.980962" lon="2.196014">
        <ele>158.474505</ele>
        <time>2025-02-05T18:20:32.559Z</time>
      </trkpt>
      <trkpt lat="48.980985" lon="2.196111">
        <ele>158.816810</ele>
        <time>2025-02-05T18:20:37.231Z</time>
      </trkpt>
      <trkpt lat="48.981050" lon="2.196182">
        <ele>159.221255</ele>
        <time>2025-02-05T18:20:42.802Z</time>
      </trkpt>
      <trkpt lat="48.981364" lon="2.196382">
        <ele>160.852828</ele>
        <time>2025-02-05T18:21:06.528Z</time>
      </trkpt>
      <trkpt lat="48.981394" lon="2.196415">
        <ele>160.998049</ele>
        <time>2025-02-05T18:21:09.099Z</time>
      </trkpt>
      <trkpt lat="48.981594" lon="2.196636">
        <ele>161.967702</ele>
        <time>2025-02-05T18:21:26.320Z</time>
      </trkpt>
      <trkpt lat="48.981635" lon="2.196678">
        <ele>162.161605</ele>
        <time>2025-02-05T18:21:29.713Z</time>
      </trkpt>
      <trkpt lat="48.981721" lon="2.196779">
        <ele>162.587766</ele>
        <time>2025-02-05T18:21:37.363Z</time>
      </trkpt>
      <trkpt lat="48.981845" lon="2.196931">
        <ele>163.212384</ele>
        <time>2025-02-05T18:21:48.905Z</time>
      </trkpt>
      <trkpt lat="48.981997" lon="2.197121">
        <ele>163.984017</ele>
        <time>2025-02-05T18:22:01.236Z</time>
      </trkpt>
      <trkpt lat="48.982085" lon="2.197231">
        <ele>164.430752</ele>
        <time>2025-02-05T18:22:07.625Z</time>
      </trkpt>
      <trkpt lat="48.982448" lon="2.197683">
        <ele>166.270673</ele>
        <time>2025-02-05T18:22:26.947Z</time>
      </trkpt>
      <trkpt lat="48.982930" lon="2.198310">
        <ele>167.418205</ele>
        <time>2025-02-05T18:22:44.003Z</time>
      </trkpt>
      <trkpt lat="48.983322" lon="2.198803">
        <ele>167.101143</ele>
        <time>2025-02-05T18:22:57.756Z</time>
      </trkpt>
      <trkpt lat="48.983492" lon="2.199005">
        <ele>166.966666</ele>
        <time>2025-02-05T18:23:03.944Z</time>
      </trkpt>
      <trkpt lat="48.983572" lon="2.199108">
        <ele>166.901333</ele>
        <time>2025-02-05T18:23:06.949Z</time>
      </trkpt>
      <trkpt lat="48.983908" lon="2.199538">
        <ele>166.627621</ele>
        <time>2025-02-05T18:23:19.294Z</time>
      </trkpt>
      <trkpt lat="48.983982" lon="2.199630">
        <ele>166.568045</ele>
        <time>2025-02-05T18:23:21.897Z</time>
      </trkpt>
      <trkpt lat="48.983905" lon="2.199820">
        <ele>166.471347</ele>
        <time>2025-02-05T18:23:24.886Z</time>
      </trkpt>
      <trkpt lat="48.983821" lon="2.200301">
        <ele>165.945195</ele>
        <time>2025-02-05T18:23:31.257Z</time>
      </trkpt>
      <trkpt lat="48.983863" lon="2.200366">
        <ele>165.848770</ele>
        <time>2025-02-05T18:23:33.220Z</time>
      </trkpt>
      <trkpt lat="48.984011" lon="2.200385">
        <ele>165.609536</ele>
        <time>2025-02-05T18:23:37.952Z</time>
      </trkpt>
      <trkpt lat="48.984011" lon="2.200577">
        <ele>165.406576</ele>
        <time>2025-02-05T18:23:41.934Z</time>
      </trkpt>
      <trkpt lat="48.984030" lon="2.200666">
        <ele>165.307644</ele>
        <time>2025-02-05T18:23:43.874Z</time>
      </trkpt>
      <trkpt lat="48.984152" lon="2.200824">
        <ele>165.049745</ele>
        <time>2025-02-05T18:23:48.969Z</time>
      </trkpt>
      <trkpt lat="48.984189" lon="2.201062">
        <ele>164.791198</ele>
        <time>2025-02-05T18:23:54.197Z</time>
      </trkpt>
      <trkpt lat="48.984248" lon="2.201268">
        <ele>164.553607</ele>
        <time>2025-02-05T18:23:59.078Z</time>
      </trkpt>
      <trkpt lat="48.984377" lon="2.201558">
        <ele>164.183271</ele>
        <time>2025-02-05T18:24:06.870Z</time>
      </trkpt>
      <trkpt lat="48.984493" lon="2.201906">
        <ele>163.770678</ele>
        <time>2025-02-05T18:24:15.494Z</time>
      </trkpt>
      <trkpt lat="48.984460" lon="2.202322">
        <ele>163.525497</ele>
        <time>2025-02-05T18:24:24.540Z</time>
      </trkpt>
      <trkpt lat="48.984460" lon="2.202326">
        <ele>163.524547</ele>
        <time>2025-02-05T18:24:24.625Z</time>
      </trkpt>
      <trkpt lat="48.984325" lon="2.202753">
        <ele>163.411963</ele>
        <time>2025-02-05T18:24:34.947Z</time>
      </trkpt>
      <trkpt lat="48.984222" lon="2.202986">
        <ele>163.345232</ele>
        <time>2025-02-05T18:24:41.153Z</time>
      </trkpt>
      <trkpt lat="48.984232" lon="2.203089">
        <ele>163.320499</ele>
        <time>2025-02-05T18:24:43.540Z</time>
      </trkpt>
      <trkpt lat="48.984319" lon="2.203268">
        <ele>163.267590</ele>
        <time>2025-02-05T18:24:48.749Z</time>
      </trkpt>
      <trkpt lat="48.984305" lon="2.203374">
        <ele>163.241906</ele>
        <time>2025-02-05T18:24:51.499Z</time>
      </trkpt>
      <trkpt lat="48.984358" lon="2.203489">
        <ele>163.208527</ele>
        <time>2025-02-05T18:24:55.363Z</time>
      </trkpt>
      <trkpt lat="48.984449" lon="2.203555">
        <ele>163.172049</ele>
        <time>2025-02-05T18:24:59.752Z</time>
      </trkpt>
      <trkpt lat="48.984534" lon="2.203674">
        <ele>163.130269</ele>
        <time>2025-02-05T18:25:04.843Z</time>
      </trkpt>
      <trkpt lat="48.984541" lon="2.203814">
        <ele>163.096918</ele>
        <time>2025-02-05T18:25:08.770Z</time>
      </trkpt>
      <trkpt lat="48.984540" lon="2.204190">
        <ele>163.007604</ele>
        <time>2025-02-05T18:25:18.588Z</time>
      </trkpt>
      <trkpt lat="48.984487" lon="2.204682">
        <ele>162.869546</ele>
        <time>2025-02-05T18:25:30.553Z</time>
      </trkpt>
      <trkpt lat="48.984344" lon="2.205208">
        <ele>162.672031</ele>
        <time>2025-02-05T18:25:44.279Z</time>
      </trkpt>
      <trkpt lat="48.984326" lon="2.205362">
        <ele>162.617766</ele>
        <time>2025-02-05T18:25:48.224Z</time>
      </trkpt>
      <trkpt lat="48.984337" lon="2.205676">
        <ele>162.508679</ele>
        <time>2025-02-05T18:25:56.387Z</time>
      </trkpt>
      <trkpt lat="48.984303" lon="2.205845">
        <ele>162.447358</ele>
        <time>2025-02-05T18:26:00.866Z</time>
      </trkpt>
      <trkpt lat="48.983720" lon="2.207497">
        <ele>161.804210</ele>
        <time>2025-02-05T18:26:42.615Z</time>
      </trkpt>
      <trkpt lat="48.983804" lon="2.207783">
        <ele>161.699970</ele>
        <time>2025-02-05T18:26:49.376Z</time>
      </trkpt>
      <trkpt lat="48.983835" lon="2.207973">
        <ele>161.634838</ele>
        <time>2025-02-05T18:26:53.684Z</time>
      </trkpt>
      <trkpt lat="48.983821" lon="2.208086">
        <ele>161.596581</ele>
        <time>2025-02-05T18:26:56.242Z</time>
      </trkpt>
      <trkpt lat="48.983665" lon="2.208448">
        <ele>161.452508</ele>
        <time>2025-02-05T18:27:06.061Z</time>
      </trkpt>
      <trkpt lat="48.983600" lon="2.208671">
        <ele>161.371333</ele>
        <time>2025-02-05T18:27:11.660Z</time>
      </trkpt>
      <trkpt lat="48.983541" lon="2.209297">
        <ele>161.160939</ele>
        <time>2025-02-05T18:27:26.449Z</time>
      </trkpt>
      <trkpt lat="48.983422" lon="2.209582">
        <ele>161.148768</ele>
        <time>2025-02-05T18:27:36.028Z</time>
      </trkpt>
      <trkpt lat="48.983335" lon="2.209730">
        <ele>161.403148</ele>
        <time>2025-02-05T18:27:42.481Z</time>
      </trkpt>
      <trkpt lat="48.983124" lon="2.210058">
        <ele>161.991181</ele>
        <time>2025-02-05T18:27:57.893Z</time>
      </trkpt>
      <trkpt lat="48.982963" lon="2.210253">
        <ele>162.392402</ele>
        <time>2025-02-05T18:28:08.380Z</time>
      </trkpt>
      <trkpt lat="48.982862" lon="2.210359">
        <ele>162.631651</ele>
        <time>2025-02-05T18:28:14.611Z</time>
      </trkpt>
      <trkpt lat="48.982735" lon="2.210376">
        <ele>162.880361</ele>
        <time>2025-02-05T18:28:21.163Z</time>
      </trkpt>
      <trkpt lat="48.982658" lon="2.210334">
        <ele>163.039910</ele>
        <time>2025-02-05T18:28:25.520Z</time>
      </trkpt>
      <trkpt lat="48.982632" lon="2.210228">
        <ele>163.184791</ele>
        <time>2025-02-05T18:28:29.250Z</time>
      </trkpt>
      <trkpt lat="48.982555" lon="2.210141">
        <ele>163.371798</ele>
        <time>2025-02-05T18:28:34.138Z</time>
      </trkpt>
      <trkpt lat="48.982397" lon="2.210118">
        <ele>163.681433</ele>
        <time>2025-02-05T18:28:41.626Z</time>
      </trkpt>
      <trkpt lat="48.982183" lon="2.210532">
        <ele>164.356150</ele>
        <time>2025-02-05T18:28:57.018Z</time>
      </trkpt>
      <trkpt lat="48.982095" lon="2.210661">
        <ele>164.581064</ele>
        <time>2025-02-05T18:29:02.519Z</time>
      </trkpt>
      <trkpt lat="48.982016" lon="2.210698">
        <ele>164.610556</ele>
        <time>2025-02-05T18:29:06.147Z</time>
      </trkpt>
      <trkpt lat="48.981895" lon="2.210706">
        <ele>164.653775</ele>
        <time>2025-02-05T18:29:11.468Z</time>
      </trkpt>
      <trkpt lat="48.981823" lon="2.210781">
        <ele>164.684899</ele>
        <time>2025-02-05T18:29:15.458Z</time>
      </trkpt>
      <trkpt lat="48.981762" lon="2.210907">
        <ele>164.721568</ele>
        <time>2025-02-05T18:29:19.659Z</time>
      </trkpt>
      <trkpt lat="48.981799" lon="2.211034">
        <ele>164.754110</ele>
        <time>2025-02-05T18:29:23.226Z</time>
      </trkpt>
      <trkpt lat="48.981912" lon="2.211132">
        <ele>164.800508</ele>
        <time>2025-02-05T18:29:28.025Z</time>
      </trkpt>
      <trkpt lat="48.981977" lon="2.211204">
        <ele>164.829184</ele>
        <time>2025-02-05T18:29:30.858Z</time>
      </trkpt>
      <trkpt lat="48.982033" lon="2.211412">
        <ele>164.881837</ele>
        <time>2025-02-05T18:29:36.126Z</time>
      </trkpt>
      <trkpt lat="48.981984" lon="2.211697">
        <ele>164.950836</ele>
        <time>2025-02-05T18:29:43.171Z</time>
      </trkpt>
      <trkpt lat="48.981818" lon="2.212290">
        <ele>165.101821</ele>
        <time>2025-02-05T18:29:58.488Z</time>
      </trkpt>
      <trkpt lat="48.981588" lon="2.212891">
        <ele>165.237910</ele>
        <time>2025-02-05T18:30:15.749Z</time>
      </trkpt>
      <trkpt lat="48.981599" lon="2.213143">
        <ele>165.261638</ele>
        <time>2025-02-05T18:30:22.654Z</time>
      </trkpt>
      <trkpt lat="48.981542" lon="2.213413">
        <ele>165.288285</ele>
        <time>2025-02-05T18:30:30.496Z</time>
      </trkpt>
      <trkpt lat="48.981490" lon="2.213494">
        <ele>165.298931</ele>
        <time>2025-02-05T18:30:33.546Z</time>
      </trkpt>
      <trkpt lat="48.981445" lon="2.213672">
        <ele>165.316852</ele>
        <time>2025-02-05T18:30:38.707Z</time>
      </trkpt>
      <trkpt lat="48.981394" lon="2.214160">
        <ele>165.363279</ele>
        <time>2025-02-05T18:30:51.628Z</time>
      </trkpt>
      <trkpt lat="48.981364" lon="2.214262">
        <ele>165.373780</ele>
        <time>2025-02-05T18:30:54.479Z</time>
      </trkpt>
      <trkpt lat="48.981321" lon="2.214403">
        <ele>165.388388</ele>
        <time>2025-02-05T18:30:58.290Z</time>
      </trkpt>
      <trkpt lat="48.981148" lon="2.214856">
        <ele>165.437630</ele>
        <time>2025-02-05T18:31:10.855Z</time>
      </trkpt>
      <trkpt lat="48.980943" lon="2.215607">
        <ele>165.221027</ele>
        <time>2025-02-05T18:31:29.809Z</time>
      </trkpt>
      <trkpt lat="48.980796" lon="2.215889">
        <ele>164.984268</ele>
        <time>2025-02-05T18:31:38.079Z</time>
      </trkpt>
      <trkpt lat="48.980693" lon="2.216001">
        <ele>164.857512</ele>
        <time>2025-02-05T18:31:42.462Z</time>
      </trkpt>
      <trkpt lat="48.980555" lon="2.216087">
        <ele>164.708161</ele>
        <time>2025-02-05T18:31:47.619Z</time>
      </trkpt>
      <trkpt lat="48.980400" lon="2.216259">
        <ele>164.516082</ele>
        <time>2025-02-05T18:31:54.231Z</time>
      </trkpt>
      <trkpt lat="48.980213" lon="2.216591">
        <ele>164.228452</ele>
        <time>2025-02-05T18:32:04.043Z</time>
      </trkpt>
      <trkpt lat="48.980092" lon="2.216976">
        <ele>163.947813</ele>
        <time>2025-02-05T18:32:13.455Z</time>
      </trkpt>
      <trkpt lat="48.980026" lon="2.217175">
        <ele>163.801226</ele>
        <time>2025-02-05T18:32:18.269Z</time>
      </trkpt>
      <trkpt lat="48.979825" lon="2.217540">
        <ele>163.497914</ele>
        <time>2025-02-05T18:32:28.680Z</time>
      </trkpt>
      <trkpt lat="48.979665" lon="2.217787">
        <ele>163.281829</ele>
        <time>2025-02-05T18:32:36.496Z</time>
      </trkpt>
      <trkpt lat="48.979442" lon="2.218662">
        <ele>162.697378</ele>
        <time>2025-02-05T18:32:58.387Z</time>
      </trkpt>
      <trkpt lat="48.979393" lon="2.218734">
        <ele>162.632797</ele>
        <time>2025-02-05T18:33:00.790Z</time>
      </trkpt>
      <trkpt lat="48.979290" lon="2.218803">
        <ele>162.526054</ele>
        <time>2025-02-05T18:33:04.668Z</time>
      </trkpt>
      <trkpt lat="48.979198" lon="2.218815">
        <ele>162.438456</ele>
        <time>2025-02-05T18:33:07.821Z</time>
      </trkpt>
      <trkpt lat="48.979056" lon="2.218795">
        <ele>162.303168</ele>
        <time>2025-02-05T18:33:12.649Z</time>
      </trkpt>
      <trkpt lat="48.978879" lon="2.218693">
        <ele>162.123641</ele>
        <time>2025-02-05T18:33:18.986Z</time>
      </trkpt>
      <trkpt lat="48.978738" lon="2.218671">
        <ele>161.989177</ele>
        <time>2025-02-05T18:33:23.792Z</time>
      </trkpt>
      <trkpt lat="48.978544" lon="2.218704">
        <ele>161.982398</ele>
        <time>2025-02-05T18:33:30.572Z</time>
      </trkpt>
      <trkpt lat="48.978449" lon="2.218755">
        <ele>161.989943</ele>
        <time>2025-02-05T18:33:34.161Z</time>
      </trkpt>
      <trkpt lat="48.978256" lon="2.218964">
        <ele>162.007682</ele>
        <time>2025-02-05T18:33:42.851Z</time>
      </trkpt>
      <trkpt lat="48.978120" lon="2.219265">
        <ele>162.025649</ele>
        <time>2025-02-05T18:33:52.018Z</time>
      </trkpt>
      <trkpt lat="48.978016" lon="2.219382">
        <ele>162.035334</ele>
        <time>2025-02-05T18:33:56.924Z</time>
      </trkpt>
      <trkpt lat="48.977910" lon="2.219433">
        <ele>162.043662</ele>
        <time>2025-02-05T18:34:00.872Z</time>
      </trkpt>
      <trkpt lat="48.977729" lon="2.219425">
        <ele>162.057227</ele>
        <time>2025-02-05T18:34:07.162Z</time>
      </trkpt>
      <trkpt lat="48.977517" lon="2.219483">
        <ele>162.073362</ele>
        <time>2025-02-05T18:34:15.213Z</time>
      </trkpt>
      <trkpt lat="48.977456" lon="2.219525">
        <ele>162.078377</ele>
        <time>2025-02-05T18:34:17.909Z</time>
      </trkpt>
      <trkpt lat="48.977391" lon="2.219522">
        <ele>162.083249</ele>
        <time>2025-02-05T18:34:20.481Z</time>
      </trkpt>
      <trkpt lat="48.977187" lon="2.219310">
        <ele>162.101748</ele>
        <time>2025-02-05T18:34:31.047Z</time>
      </trkpt>
      <trkpt lat="48.977049" lon="2.219109">
        <ele>161.749350</ele>
        <time>2025-02-05T18:34:39.789Z</time>
      </trkpt>
      <trkpt lat="48.976998" lon="2.219072">
        <ele>161.623907</ele>
        <time>2025-02-05T18:34:42.415Z</time>
      </trkpt>
      <trkpt lat="48.976746" lon="2.218995">
        <ele>161.053135</ele>
        <time>2025-02-05T18:34:55.082Z</time>
      </trkpt>
      <trkpt lat="48.976739" lon="2.218802">
        <ele>160.771386</ele>
        <time>2025-02-05T18:35:01.223Z</time>
      </trkpt>
      <trkpt lat="48.976738" lon="2.218711">
        <ele>160.638724</ele>
        <time>2025-02-05T18:35:03.850Z</time>
      </trkpt>
      <trkpt lat="48.976738" lon="2.218508">
        <ele>160.342827</ele>
        <time>2025-02-05T18:35:09.113Z</time>
      </trkpt>
      <trkpt lat="48.976721" lon="2.218264">
        <ele>159.985170</ele>
        <time>2025-02-05T18:35:14.591Z</time>
      </trkpt>
      <trkpt lat="48.977044" lon="2.217943">
        <ele>159.128756</ele>
        <time>2025-02-05T18:35:23.730Z</time>
      </trkpt>
      <trkpt lat="48.977158" lon="2.217821">
        <ele>158.819377</ele>
        <time>2025-02-05T18:35:26.814Z</time>
      </trkpt>
      <trkpt lat="48.977227" lon="2.217746">
        <ele>158.631146</ele>
        <time>2025-02-05T18:35:28.725Z</time>
      </trkpt>
      <trkpt lat="48.977134" lon="2.217558">
        <ele>158.288004</ele>
        <time>2025-02-05T18:35:33.122Z</time>
      </trkpt>
      <trkpt lat="48.976985" lon="2.217366">
        <ele>156.735723</ele>
        <time>2025-02-05T18:35:38.319Z</time>
      </trkpt>
      <trkpt lat="48.976944" lon="2.217257">
        <ele>155.749491</ele>
        <time>2025-02-05T18:35:40.423Z</time>
      </trkpt>
      <trkpt lat="48.976759" lon="2.217266">
        <ele>153.535710</ele>
        <time>2025-02-05T18:35:45.152Z</time>
      </trkpt>
      <trkpt lat="48.976578" lon="2.217308">
        <ele>151.345933</ele>
        <time>2025-02-05T18:35:49.687Z</time>
      </trkpt>
      <trkpt lat="48.976590" lon="2.217010">
        <ele>149.002132</ele>
        <time>2025-02-05T18:35:54.485Z</time>
      </trkpt>
      <trkpt lat="48.976666" lon="2.217051">
        <ele>148.037848</ele>
        <time>2025-02-05T18:35:56.466Z</time>
      </trkpt>
      <trkpt lat="48.976651" lon="2.216868">
        <ele>146.590079</ele>
        <time>2025-02-05T18:35:59.390Z</time>
      </trkpt>
      <trkpt lat="48.976675" lon="2.216665">
        <ele>144.970816</ele>
        <time>2025-02-05T18:36:02.679Z</time>
      </trkpt>
      <trkpt lat="48.976658" lon="2.216598">
        <ele>144.406912</ele>
        <time>2025-02-05T18:36:03.833Z</time>
      </trkpt>
      <trkpt lat="48.976720" lon="2.215963">
        <ele>139.367103</ele>
        <time>2025-02-05T18:36:14.168Z</time>
      </trkpt>
      <trkpt lat="48.976731" lon="2.215824">
        <ele>138.268005</ele>
        <time>2025-02-05T18:36:16.433Z</time>
      </trkpt>
      <trkpt lat="48.976703" lon="2.215427">
        <ele>135.330741</ele>
        <time>2025-02-05T18:36:22.896Z</time>
      </trkpt>
      <trkpt lat="48.976518" lon="2.215297">
        <ele>133.222387</ele>
        <time>2025-02-05T18:36:27.935Z</time>
      </trkpt>
      <trkpt lat="48.976245" lon="2.215084">
        <ele>130.048247</ele>
        <time>2025-02-05T18:36:32.400Z</time>
      </trkpt>
      <trkpt lat="48.975916" lon="2.214828">
        <ele>126.225137</ele>
        <time>2025-02-05T18:36:37.969Z</time>
      </trkpt>
      <trkpt lat="48.975685" lon="2.214712">
        <ele>123.708059</ele>
        <time>2025-02-05T18:36:41.650Z</time>
      </trkpt>
      <trkpt lat="48.975611" lon="2.214605">
        <ele>122.652249</ele>
        <time>2025-02-05T18:36:43.176Z</time>
      </trkpt>
      <trkpt lat="48.975508" lon="2.213995">
        <ele>118.373770</ele>
        <time>2025-02-05T18:36:49.378Z</time>
      </trkpt>
      <trkpt lat="48.975509" lon="2.213612">
        <ele>116.309427</ele>
        <time>2025-02-05T18:36:53.213Z</time>
      </trkpt>
      <trkpt lat="48.975482" lon="2.213605">
        <ele>116.094852</ele>
        <time>2025-02-05T18:36:53.933Z</time>
      </trkpt>
      <trkpt lat="48.975392" lon="2.213577">
        <ele>115.375190</ele>
        <time>2025-02-05T18:37:05.321Z</time>
      </trkpt>
      <trkpt lat="48.975168" lon="2.213505">
        <ele>113.581615</ele>
        <time>2025-02-05T18:37:11.411Z</time>
      </trkpt>
      <trkpt lat="48.974285" lon="2.213328">
        <ele>106.604073</ele>
        <time>2025-02-05T18:37:35.344Z</time>
      </trkpt>
      <trkpt lat="48.973432" lon="2.213107">
        <ele>100.480995</ele>
        <time>2025-02-05T18:37:59.003Z</time>
      </trkpt>
      <trkpt lat="48.972200" lon="2.212608">
        <ele>92.103906</ele>
        <time>2025-02-05T18:38:34.337Z</time>
      </trkpt>
      <trkpt lat="48.972111" lon="2.212572">
        <ele>91.596626</ele>
        <time>2025-02-05T18:38:36.888Z</time>
      </trkpt>
      <trkpt lat="48.971689" lon="2.212401">
        <ele>89.216257</ele>
        <time>2025-02-05T18:38:48.955Z</time>
      </trkpt>
      <trkpt lat="48.971593" lon="2.212296">
        <ele>88.572037</ele>
        <time>2025-02-05T18:38:52.236Z</time>
      </trkpt>
      <trkpt lat="48.971553" lon="2.212207">
        <ele>88.186075</ele>
        <time>2025-02-05T18:38:54.224Z</time>
      </trkpt>
      <trkpt lat="48.971546" lon="2.212059">
        <ele>87.655112</ele>
        <time>2025-02-05T18:38:56.949Z</time>
      </trkpt>
      <trkpt lat="48.971261" lon="2.211136">
        <ele>84.005177</ele>
        <time>2025-02-05T18:39:15.913Z</time>
      </trkpt>
      <trkpt lat="48.971154" lon="2.210928">
        <ele>83.059567</ele>
        <time>2025-02-05T18:39:20.918Z</time>
      </trkpt>
      <trkpt lat="48.970617" lon="2.210372">
        <ele>80.850159</ele>
        <time>2025-02-05T18:39:40.681Z</time>
      </trkpt>
      <trkpt lat="48.970330" lon="2.211004">
        <ele>79.431197</ele>
        <time>2025-02-05T18:39:56.934Z</time>
      </trkpt>
      <trkpt lat="48.970284" lon="2.211049">
        <ele>79.277428</ele>
        <time>2025-02-05T18:39:58.693Z</time>
      </trkpt>
      <trkpt lat="48.970280" lon="2.211139">
        <ele>79.110867</ele>
        <time>2025-02-05T18:40:00.641Z</time>
      </trkpt>
      <trkpt lat="48.970161" lon="2.211284">
        <ele>78.682242</ele>
        <time>2025-02-05T18:40:05.540Z</time>
      </trkpt>
      <trkpt lat="48.969987" lon="2.211495">
        <ele>78.056682</ele>
        <time>2025-02-05T18:40:12.671Z</time>
      </trkpt>
      <trkpt lat="48.969848" lon="2.211761">
        <ele>77.428909</ele>
        <time>2025-02-05T18:40:19.903Z</time>
      </trkpt>
      <trkpt lat="48.969557" lon="2.211909">
        <ele>76.568623</ele>
        <time>2025-02-05T18:40:29.650Z</time>
      </trkpt>
      <trkpt lat="48.969280" lon="2.211622">
        <ele>75.630220</ele>
        <time>2025-02-05T18:40:40.083Z</time>
      </trkpt>
      <trkpt lat="48.969100" lon="2.211428">
        <ele>75.012562</ele>
        <time>2025-02-05T18:40:46.864Z</time>
      </trkpt>
      <trkpt lat="48.968550" lon="2.210836">
        <ele>73.126097</ele>
        <time>2025-02-05T18:41:07.735Z</time>
      </trkpt>
      <trkpt lat="48.967351" lon="2.209623">
        <ele>69.288190</ele>
        <time>2025-02-05T18:41:34.408Z</time>
      </trkpt>
      <trkpt lat="48.966791" lon="2.209004">
        <ele>67.472235</ele>
        <time>2025-02-05T18:41:47.128Z</time>
      </trkpt>
      <trkpt lat="48.966307" lon="2.208441">
        <ele>66.565949</ele>
        <time>2025-02-05T18:41:58.447Z</time>
      </trkpt>
      <trkpt lat="48.966478" lon="2.208078">
        <ele>66.134177</ele>
        <time>2025-02-05T18:42:03.827Z</time>
      </trkpt>
      <trkpt lat="48.966307" lon="2.208441">
        <ele>65.702405</ele>
        <time>2025-02-05T18:42:09.535Z</time>
      </trkpt>
      <trkpt lat="48.966185" lon="2.208663">
        <ele>65.422617</ele>
        <time>2025-02-05T18:42:13.403Z</time>
      </trkpt>
      <trkpt lat="48.966015" lon="2.208997">
        <ele>65.014191</ele>
        <time>2025-02-05T18:42:19.313Z</time>
      </trkpt>
      <trkpt lat="48.965853" lon="2.209314">
        <ele>64.857655</ele>
        <time>2025-02-05T18:42:25.034Z</time>
      </trkpt>
      <trkpt lat="48.965519" lon="2.209979">
        <ele>65.112460</ele>
        <time>2025-02-05T18:42:37.235Z</time>
      </trkpt>
      <trkpt lat="48.965420" lon="2.210181">
        <ele>65.189174</ele>
        <time>2025-02-05T18:42:41.251Z</time>
      </trkpt>
      <trkpt lat="48.965410" lon="2.210198">
        <ele>65.196120</ele>
        <time>2025-02-05T18:42:41.608Z</time>
      </trkpt>
      <trkpt lat="48.965382" lon="2.210230">
        <ele>65.212347</ele>
        <time>2025-02-05T18:42:42.519Z</time>
      </trkpt>
      <trkpt lat="48.965358" lon="2.210247">
        <ele>65.224616</ele>
        <time>2025-02-05T18:42:43.190Z</time>
      </trkpt>
      <trkpt lat="48.965273" lon="2.210154">
        <ele>65.273129</ele>
        <time>2025-02-05T18:42:46.033Z</time>
      </trkpt>
      <trkpt lat="48.964939" lon="2.210399">
        <ele>65.444971</ele>
        <time>2025-02-05T18:42:56.584Z</time>
      </trkpt>
      <trkpt lat="48.964965" lon="2.210441">
        <ele>65.462538</ele>
        <time>2025-02-05T18:42:57.632Z</time>
      </trkpt>
      <trkpt lat="48.965011" lon="2.210531">
        <ele>65.497249</ele>
        <time>2025-02-05T18:42:59.785Z</time>
      </trkpt>
      <trkpt lat="48.965032" lon="2.210573">
        <ele>65.513316</ele>
        <time>2025-02-05T18:43:00.755Z</time>
      </trkpt>
      <trkpt lat="48.965048" lon="2.210603">
        <ele>65.525078</ele>
        <time>2025-02-05T18:43:01.459Z</time>
      </trkpt>
      <trkpt lat="48.965064" lon="2.210696">
        <ele>65.554336</ele>
        <time>2025-02-05T18:43:03.212Z</time>
      </trkpt>
      <trkpt lat="48.965051" lon="2.210781">
        <ele>65.580897</ele>
        <time>2025-02-05T18:43:04.872Z</time>
      </trkpt>
      <trkpt lat="48.965030" lon="2.210815">
        <ele>65.595103</ele>
        <time>2025-02-05T18:43:05.698Z</time>
      </trkpt>
      <trkpt lat="48.964985" lon="2.210900">
        <ele>65.628334</ele>
        <time>2025-02-05T18:43:07.697Z</time>
      </trkpt>
      <trkpt lat="48.964964" lon="2.210929">
        <ele>65.637910</ele>
        <time>2025-02-05T18:43:08.526Z</time>
      </trkpt>
      <trkpt lat="48.964916" lon="2.211024">
        <ele>65.650983</ele>
        <time>2025-02-05T18:43:10.688Z</time>
      </trkpt>
      <trkpt lat="48.964850" lon="2.211048">
        <ele>65.662254</ele>
        <time>2025-02-05T18:43:12.578Z</time>
      </trkpt>
      <trkpt lat="48.964828" lon="2.211047">
        <ele>65.665910</ele>
        <time>2025-02-05T18:43:13.218Z</time>
      </trkpt>
      <trkpt lat="48.964753" lon="2.211044">
        <ele>65.678372</ele>
        <time>2025-02-05T18:43:15.205Z</time>
      </trkpt>
      <trkpt lat="48.964764" lon="2.211428">
        <ele>65.720287</ele>
        <time>2025-02-05T18:43:22.121Z</time>
      </trkpt>
      <trkpt lat="48.964742" lon="2.211479">
        <ele>65.726942</ele>
        <time>2025-02-05T18:43:23.218Z</time>
      </trkpt>
      <trkpt lat="48.964559" lon="2.211824">
        <ele>65.775310</ele>
        <time>2025-02-05T18:43:30.766Z</time>
      </trkpt>
      <trkpt lat="48.964055" lon="2.212777">
        <ele>65.908761</ele>
        <time>2025-02-05T18:43:48.450Z</time>
      </trkpt>
      <trkpt lat="48.964006" lon="2.212735">
        <ele>65.918101</ele>
        <time>2025-02-05T18:43:50.412Z</time>
      </trkpt>
      <trkpt lat="48.963259" lon="2.212058">
        <ele>64.776008</ele>
        <time>2025-02-05T18:44:19.797Z</time>
      </trkpt>
      <trkpt lat="48.962921" lon="2.211864">
        <ele>64.232060</ele>
        <time>2025-02-05T18:44:31.626Z</time>
      </trkpt>
      <trkpt lat="48.962690" lon="2.211642">
        <ele>63.820730</ele>
        <time>2025-02-05T18:44:40.577Z</time>
      </trkpt>
      <trkpt lat="48.962308" lon="2.211175">
        <ele>63.087144</ele>
        <time>2025-02-05T18:44:56.588Z</time>
      </trkpt>
      <trkpt lat="48.962306" lon="2.211175">
        <ele>63.084218</ele>
        <time>2025-02-05T18:44:56.659Z</time>
      </trkpt>
      <trkpt lat="48.962256" lon="2.211164">
        <ele>63.010304</ele>
        <time>2025-02-05T18:44:58.319Z</time>
      </trkpt>
      <trkpt lat="48.962166" lon="2.211252">
        <ele>62.853828</ele>
        <time>2025-02-05T18:45:01.811Z</time>
      </trkpt>
      <trkpt lat="48.962105" lon="2.211370">
        <ele>62.709558</ele>
        <time>2025-02-05T18:45:05.034Z</time>
      </trkpt>
      <trkpt lat="48.961107" lon="2.210332">
        <ele>60.941420</ele>
        <time>2025-02-05T18:45:45.218Z</time>
      </trkpt>
      <trkpt lat="48.960965" lon="2.210277">
        <ele>60.727049</ele>
        <time>2025-02-05T18:45:50.326Z</time>
      </trkpt>
      <trkpt lat="48.960634" lon="2.210907">
        <ele>60.591609</ele>
        <time>2025-02-05T18:46:09.271Z</time>
      </trkpt>
      <trkpt lat="48.960469" lon="2.211100">
        <ele>60.590255</ele>
        <time>2025-02-05T18:46:16.958Z</time>
      </trkpt>
      <trkpt lat="48.960394" lon="2.211253">
        <ele>60.589439</ele>
        <time>2025-02-05T18:46:21.699Z</time>
      </trkpt>
      <trkpt lat="48.960166" lon="2.211991">
        <ele>60.585954</ele>
        <time>2025-02-05T18:46:42.583Z</time>
      </trkpt>
      <trkpt lat="48.959375" lon="2.214127">
        <ele>61.158278</ele>
        <time>2025-02-05T18:47:45.184Z</time>
      </trkpt>
      <trkpt lat="48.958476" lon="2.216663">
        <ele>61.760522</ele>
        <time>2025-02-05T18:49:02.204Z</time>
      </trkpt>
      <trkpt lat="48.957404" lon="2.219622">
        <ele>60.479898</ele>
        <time>2025-02-05T18:50:19.748Z</time>
      </trkpt>
      <trkpt lat="48.957105" lon="2.219372">
        <ele>60.188017</ele>
        <time>2025-02-05T18:50:31.313Z</time>
      </trkpt>
      <trkpt lat="48.956962" lon="2.219659">
        <ele>59.986242</ele>
        <time>2025-02-05T18:50:39.319Z</time>
      </trkpt>
      <trkpt lat="48.956493" lon="2.220098">
        <ele>59.516696</ele>
        <time>2025-02-05T18:50:58.047Z</time>
      </trkpt>
      <trkpt lat="48.956580" lon="2.220177">
        <ele>59.430301</ele>
        <time>2025-02-05T18:51:01.522Z</time>
      </trkpt>
      <trkpt lat="48.956855" lon="2.220944">
        <ele>58.940866</ele>
        <time>2025-02-05T18:51:21.715Z</time>
      </trkpt>
      <trkpt lat="48.956857" lon="2.221038">
        <ele>58.888193</ele>
        <time>2025-02-05T18:51:23.942Z</time>
      </trkpt>
      <trkpt lat="48.956948" lon="2.221193">
        <ele>58.825400</ele>
        <time>2025-02-05T18:51:28.850Z</time>
      </trkpt>
      <trkpt lat="48.957526" lon="2.222182">
        <ele>59.313077</ele>
        <time>2025-02-05T18:52:01.988Z</time>
      </trkpt>
      <trkpt lat="48.957655" lon="2.222122">
        <ele>59.388740</ele>
        <time>2025-02-05T18:52:07.716Z</time>
      </trkpt>
      <trkpt lat="48.957757" lon="2.221908">
        <ele>59.486141</ele>
        <time>2025-02-05T18:52:15.247Z</time>
      </trkpt>
      <trkpt lat="48.957768" lon="2.221702">
        <ele>59.562268</ele>
        <time>2025-02-05T18:52:21.183Z</time>
      </trkpt>
      <trkpt lat="48.957870" lon="2.221282">
        <ele>59.727209</ele>
        <time>2025-02-05T18:52:34.040Z</time>
      </trkpt>
      <trkpt lat="48.957887" lon="2.221212">
        <ele>59.754699</ele>
        <time>2025-02-05T18:52:36.169Z</time>
      </trkpt>
      <trkpt lat="48.958078" lon="2.221041">
        <ele>59.787464</ele>
        <time>2025-02-05T18:52:45.594Z</time>
      </trkpt>
      <trkpt lat="48.958298" lon="2.220560">
        <ele>59.703584</ele>
        <time>2025-02-05T18:53:01.085Z</time>
      </trkpt>
      <trkpt lat="48.958406" lon="2.220689">
        <ele>59.673673</ele>
        <time>2025-02-05T18:53:06.385Z</time>
      </trkpt>
      <trkpt lat="48.958514" lon="2.220915">
        <ele>59.633676</ele>
        <time>2025-02-05T18:53:13.209Z</time>
      </trkpt>
      <trkpt lat="48.958421" lon="2.221214">
        <ele>59.586334</ele>
        <time>2025-02-05T18:53:21.042Z</time>
      </trkpt>
      <trkpt lat="48.958302" lon="2.221159">
        <ele>59.559233</ele>
        <time>2025-02-05T18:53:25.447Z</time>
      </trkpt>
      <trkpt lat="48.958172" lon="2.221304">
        <ele>59.524117</ele>
        <time>2025-02-05T18:53:31.094Z</time>
      </trkpt>
      <trkpt lat="48.957999" lon="2.221845">
        <ele>59.438012</ele>
        <time>2025-02-05T18:53:44.539Z</time>
      </trkpt>
      <trkpt lat="48.957855" lon="2.222140">
        <ele>59.303776</ele>
        <time>2025-02-05T18:53:52.600Z</time>
      </trkpt>
      <trkpt lat="48.957751" lon="2.222266">
        <ele>59.208563</ele>
        <time>2025-02-05T18:53:57.036Z</time>
      </trkpt>
      <trkpt lat="48.957447" lon="2.222371">
        <ele>58.985229</ele>
        <time>2025-02-05T18:54:07.579Z</time>
      </trkpt>
      <trkpt lat="48.957133" lon="2.222532">
        <ele>58.747853</ele>
        <time>2025-02-05T18:54:19.049Z</time>
      </trkpt>
      <trkpt lat="48.956986" lon="2.222678">
        <ele>58.622116</ele>
        <time>2025-02-05T18:54:25.226Z</time>
      </trkpt>
      <trkpt lat="48.956950" lon="2.222714">
        <ele>58.591261</ele>
        <time>2025-02-05T18:54:26.766Z</time>
      </trkpt>
      <trkpt lat="48.956920" lon="2.222873">
        <ele>58.513433</ele>
        <time>2025-02-05T18:54:30.610Z</time>
      </trkpt>
      <trkpt lat="48.956956" lon="2.224494">
        <ele>58.305048</ele>
        <time>2025-02-05T18:55:10.057Z</time>
      </trkpt>
      <trkpt lat="48.956880" lon="2.224515">
        <ele>58.330049</ele>
        <time>2025-02-05T18:55:13.024Z</time>
      </trkpt>
      <trkpt lat="48.956271" lon="2.224681">
        <ele>58.530305</ele>
        <time>2025-02-05T18:55:37.185Z</time>
      </trkpt>
      <trkpt lat="48.955746" lon="2.224903">
        <ele>58.706668</ele>
        <time>2025-02-05T18:55:59.273Z</time>
      </trkpt>
      <trkpt lat="48.955674" lon="2.224972">
        <ele>58.752060</ele>
        <time>2025-02-05T18:56:02.734Z</time>
      </trkpt>
      <trkpt lat="48.955953" lon="2.225683">
        <ele>59.088777</ele>
        <time>2025-02-05T18:56:17.072Z</time>
      </trkpt>
      <trkpt lat="48.956022" lon="2.226423">
        <ele>59.392623</ele>
        <time>2025-02-05T18:56:29.692Z</time>
      </trkpt>
      <trkpt lat="48.956074" lon="2.226818">
        <ele>59.556394</ele>
        <time>2025-02-05T18:56:36.427Z</time>
      </trkpt>
      <trkpt lat="48.956348" lon="2.228526">
        <ele>60.651257</ele>
        <time>2025-02-05T18:57:07.047Z</time>
      </trkpt>
      <trkpt lat="48.956347" lon="2.230509">
        <ele>61.948975</ele>
        <time>2025-02-05T18:57:47.256Z</time>
      </trkpt>
      <trkpt lat="48.956347" lon="2.230607">
        <ele>61.964192</ele>
        <time>2025-02-05T18:57:49.212Z</time>
      </trkpt>
      <trkpt lat="48.956347" lon="2.230918">
        <ele>62.012483</ele>
        <time>2025-02-05T18:57:55.276Z</time>
      </trkpt>
      <trkpt lat="48.956432" lon="2.231043">
        <ele>62.040425</ele>
        <time>2025-02-05T18:57:58.538Z</time>
      </trkpt>
      <trkpt lat="48.956359" lon="2.231078">
        <ele>62.058523</ele>
        <time>2025-02-05T18:58:00.580Z</time>
      </trkpt>
      <trkpt lat="48.956102" lon="2.231348">
        <ele>62.132354</ele>
        <time>2025-02-05T18:58:08.103Z</time>
      </trkpt>
      <trkpt lat="48.955986" lon="2.231475">
        <ele>62.166138</ele>
        <time>2025-02-05T18:58:11.501Z</time>
      </trkpt>
      <trkpt lat="48.955320" lon="2.232298">
        <ele>61.899307</ele>
        <time>2025-02-05T18:58:29.153Z</time>
      </trkpt>
      <trkpt lat="48.955275" lon="2.232344">
        <ele>61.782495</ele>
        <time>2025-02-05T18:58:30.183Z</time>
      </trkpt>
      <trkpt lat="48.955244" lon="2.232380">
        <ele>61.698471</ele>
        <time>2025-02-05T18:58:30.903Z</time>
      </trkpt>
      <trkpt lat="48.955104" lon="2.232539">
        <ele>61.322058</ele>
        <time>2025-02-05T18:58:34.037Z</time>
      </trkpt>
      <trkpt lat="48.955045" lon="2.232569">
        <ele>61.187994</ele>
        <time>2025-02-05T18:58:35.180Z</time>
      </trkpt>
      <trkpt lat="48.954414" lon="2.233332">
        <ele>59.451417</ele>
        <time>2025-02-05T18:58:50.377Z</time>
      </trkpt>
      <trkpt lat="48.953737" lon="2.234027">
        <ele>57.462790</ele>
        <time>2025-02-05T18:59:05.265Z</time>
      </trkpt>
      <trkpt lat="48.952834" lon="2.234784">
        <ele>54.566866</ele>
        <time>2025-02-05T18:59:23.955Z</time>
      </trkpt>
      <trkpt lat="48.952790" lon="2.234853">
        <ele>54.389424</ele>
        <time>2025-02-05T18:59:25.104Z</time>
      </trkpt>
      <trkpt lat="48.952678" lon="2.234938">
        <ele>54.037856</ele>
        <time>2025-02-05T18:59:27.288Z</time>
      </trkpt>
      <trkpt lat="48.952127" lon="2.235484">
        <ele>52.547384</ele>
        <time>2025-02-05T18:59:38.946Z</time>
      </trkpt>
      <trkpt lat="48.950719" lon="2.236641">
        <ele>49.582390</ele>
        <time>2025-02-05T19:00:08.829Z</time>
      </trkpt>
      <trkpt lat="48.949851" lon="2.237283">
        <ele>48.504551</ele>
        <time>2025-02-05T19:00:27.154Z</time>
      </trkpt>
      <trkpt lat="48.949238" lon="2.237583">
        <ele>47.879447</ele>
        <time>2025-02-05T19:00:40.323Z</time>
      </trkpt>
      <trkpt lat="48.948980" lon="2.237598">
        <ele>48.209831</ele>
        <time>2025-02-05T19:00:46.279Z</time>
      </trkpt>
      <trkpt lat="48.948414" lon="2.237763">
        <ele>48.947251</ele>
        <time>2025-02-05T19:01:02.378Z</time>
      </trkpt>
      <trkpt lat="48.948388" lon="2.237750">
        <ele>48.982269</ele>
        <time>2025-02-05T19:01:03.280Z</time>
      </trkpt>
      <trkpt lat="48.948337" lon="2.237784">
        <ele>49.053511</ele>
        <time>2025-02-05T19:01:05.087Z</time>
      </trkpt>
      <trkpt lat="48.947144" lon="2.238048">
        <ele>50.217491</ele>
        <time>2025-02-05T19:01:45.052Z</time>
      </trkpt>
      <trkpt lat="48.946928" lon="2.238093">
        <ele>50.269466</ele>
        <time>2025-02-05T19:01:51.297Z</time>
      </trkpt>
      <trkpt lat="48.946827" lon="2.238117">
        <ele>50.293836</ele>
        <time>2025-02-05T19:01:54.022Z</time>
      </trkpt>
      <trkpt lat="48.946690" lon="2.238162">
        <ele>50.327248</ele>
        <time>2025-02-05T19:01:57.515Z</time>
      </trkpt>
      <trkpt lat="48.946506" lon="2.238248">
        <ele>50.373134</ele>
        <time>2025-02-05T19:02:01.867Z</time>
      </trkpt>
      <trkpt lat="48.946083" lon="2.238525">
        <ele>50.482908</ele>
        <time>2025-02-05T19:02:11.315Z</time>
      </trkpt>
      <trkpt lat="48.945811" lon="2.238824">
        <ele>50.532588</ele>
        <time>2025-02-05T19:02:17.698Z</time>
      </trkpt>
      <trkpt lat="48.945732" lon="2.238922">
        <ele>50.333400</ele>
        <time>2025-02-05T19:02:19.626Z</time>
      </trkpt>
      <trkpt lat="48.945713" lon="2.239013">
        <ele>50.210812</ele>
        <time>2025-02-05T19:02:20.803Z</time>
      </trkpt>
      <trkpt lat="48.945656" lon="2.239099">
        <ele>50.053954</ele>
        <time>2025-02-05T19:02:22.334Z</time>
      </trkpt>
      <trkpt lat="48.945637" lon="2.239126">
        <ele>50.003152</ele>
        <time>2025-02-05T19:02:22.825Z</time>
      </trkpt>
      <trkpt lat="48.945554" lon="2.239218">
        <ele>49.802471</ele>
        <time>2025-02-05T19:02:24.742Z</time>
      </trkpt>
      <trkpt lat="48.945412" lon="2.239406">
        <ele>49.434640</ele>
        <time>2025-02-05T19:02:28.255Z</time>
      </trkpt>
      <trkpt lat="48.945236" lon="2.239637">
        <ele>48.980429</ele>
        <time>2025-02-05T19:02:32.521Z</time>
      </trkpt>
      <trkpt lat="48.945048" lon="2.239892">
        <ele>48.488267</ele>
        <time>2025-02-05T19:02:37.349Z</time>
      </trkpt>
      <trkpt lat="48.944400" lon="2.240751">
        <ele>46.756638</ele>
        <time>2025-02-05T19:02:53.556Z</time>
      </trkpt>
      <trkpt lat="48.944006" lon="2.241251">
        <ele>45.531478</ele>
        <time>2025-02-05T19:03:03.270Z</time>
      </trkpt>
      <trkpt lat="48.943426" lon="2.242054">
        <ele>43.658938</ele>
        <time>2025-02-05T19:03:17.916Z</time>
      </trkpt>
      <trkpt lat="48.943108" lon="2.242513">
        <ele>42.614659</ele>
        <time>2025-02-05T19:03:26.075Z</time>
      </trkpt>
      <trkpt lat="48.942724" lon="2.243076">
        <ele>41.363825</ele>
        <time>2025-02-05T19:03:36.009Z</time>
      </trkpt>
      <trkpt lat="48.942580" lon="2.243127">
        <ele>41.016931</ele>
        <time>2025-02-05T19:03:38.661Z</time>
      </trkpt>
      <trkpt lat="48.942217" lon="2.243624">
        <ele>39.871470</ele>
        <time>2025-02-05T19:03:47.475Z</time>
      </trkpt>
      <trkpt lat="48.941969" lon="2.244026">
        <ele>39.021519</ele>
        <time>2025-02-05T19:03:54.006Z</time>
      </trkpt>
      <trkpt lat="48.941624" lon="2.244364">
        <ele>38.048854</ele>
        <time>2025-02-05T19:04:01.343Z</time>
      </trkpt>
      <trkpt lat="48.941346" lon="2.244600">
        <ele>37.285979</ele>
        <time>2025-02-05T19:04:07.000Z</time>
      </trkpt>
      <trkpt lat="48.940871" lon="2.244904">
        <ele>36.051027</ele>
        <time>2025-02-05T19:04:16.264Z</time>
      </trkpt>
      <trkpt lat="48.940507" lon="2.245061">
        <ele>35.144277</ele>
        <time>2025-02-05T19:04:23.074Z</time>
      </trkpt>
      <trkpt lat="48.940114" lon="2.245175">
        <ele>34.190572</ele>
        <time>2025-02-05T19:04:30.081Z</time>
      </trkpt>
      <trkpt lat="48.940248" lon="2.245348">
        <ele>33.839724</ele>
        <time>2025-02-05T19:04:33.339Z</time>
      </trkpt>
      <trkpt lat="48.940038" lon="2.245759">
        <ele>33.156732</ele>
        <time>2025-02-05T19:04:39.801Z</time>
      </trkpt>
      <trkpt lat="48.939664" lon="2.246385">
        <ele>32.046779</ele>
        <time>2025-02-05T19:04:50.584Z</time>
      </trkpt>
      <trkpt lat="48.939334" lon="2.246944">
        <ele>31.060937</ele>
        <time>2025-02-05T19:05:00.189Z</time>
      </trkpt>
      <trkpt lat="48.939276" lon="2.247042">
        <ele>30.887910</ele>
        <time>2025-02-05T19:05:01.851Z</time>
      </trkpt>
      <trkpt lat="48.939015" lon="2.247600">
        <ele>30.276264</ele>
        <time>2025-02-05T19:05:10.687Z</time>
      </trkpt>
      <trkpt lat="48.939126" lon="2.247735">
        <ele>30.120686</ele>
        <time>2025-02-05T19:05:13.431Z</time>
      </trkpt>
      <trkpt lat="48.939290" lon="2.247946">
        <ele>29.885552</ele>
        <time>2025-02-05T19:05:17.610Z</time>
      </trkpt>
      <trkpt lat="48.939756" lon="2.248551">
        <ele>29.214893</ele>
        <time>2025-02-05T19:05:29.782Z</time>
      </trkpt>
      <trkpt lat="48.939863" lon="2.248689">
        <ele>29.061328</ele>
        <time>2025-02-05T19:05:32.602Z</time>
      </trkpt>
      <trkpt lat="48.940367" lon="2.249484">
        <ele>28.705607</ele>
        <time>2025-02-05T19:05:47.515Z</time>
      </trkpt>
      <trkpt lat="48.940836" lon="2.250333">
        <ele>28.809617</ele>
        <time>2025-02-05T19:06:05.185Z</time>
      </trkpt>
      <trkpt lat="48.941099" lon="2.250840">
        <ele>28.870188</ele>
        <time>2025-02-05T19:06:15.651Z</time>
      </trkpt>
      <trkpt lat="48.941318" lon="2.251325">
        <ele>28.871135</ele>
        <time>2025-02-05T19:06:24.991Z</time>
      </trkpt>
      <trkpt lat="48.941437" lon="2.251713">
        <ele>28.751740</ele>
        <time>2025-02-05T19:06:31.850Z</time>
      </trkpt>
      <trkpt lat="48.941508" lon="2.251866">
        <ele>28.699508</ele>
        <time>2025-02-05T19:06:34.889Z</time>
      </trkpt>
      <trkpt lat="48.941576" lon="2.252015">
        <ele>28.648920</ele>
        <time>2025-02-05T19:06:37.702Z</time>
      </trkpt>
      <trkpt lat="48.941851" lon="2.252610">
        <ele>28.446067</ele>
        <time>2025-02-05T19:06:47.572Z</time>
      </trkpt>
      <trkpt lat="48.941850" lon="2.253064">
        <ele>28.319483</ele>
        <time>2025-02-05T19:06:53.328Z</time>
      </trkpt>
      <trkpt lat="48.941797" lon="2.253297">
        <ele>28.250733</ele>
        <time>2025-02-05T19:06:56.486Z</time>
      </trkpt>
      <trkpt lat="48.941701" lon="2.253489">
        <ele>28.183454</ele>
        <time>2025-02-05T19:06:59.595Z</time>
      </trkpt>
      <trkpt lat="48.941199" lon="2.254034">
        <ele>28.056054</ele>
        <time>2025-02-05T19:07:12.070Z</time>
      </trkpt>
      <trkpt lat="48.940100" lon="2.255192">
        <ele>27.844402</ele>
        <time>2025-02-05T19:07:42.622Z</time>
      </trkpt>
      <trkpt lat="48.939284" lon="2.256054">
        <ele>27.939869</ele>
        <time>2025-02-05T19:08:06.710Z</time>
      </trkpt>
      <trkpt lat="48.939233" lon="2.256106">
        <ele>27.945769</ele>
        <time>2025-02-05T19:08:08.058Z</time>
      </trkpt>
      <trkpt lat="48.939209" lon="2.256051">
        <ele>27.949938</ele>
        <time>2025-02-05T19:08:09.013Z</time>
      </trkpt>
      <trkpt lat="48.939098" lon="2.255810">
        <ele>27.968522</ele>
        <time>2025-02-05T19:08:13.218Z</time>
      </trkpt>
      <trkpt lat="48.938868" lon="2.255161">
        <ele>28.015902</ele>
        <time>2025-02-05T19:08:23.581Z</time>
      </trkpt>
      <trkpt lat="48.938660" lon="2.254414">
        <ele>28.076151</ele>
        <time>2025-02-05T19:08:34.851Z</time>
      </trkpt>
      <trkpt lat="48.938356" lon="2.253598">
        <ele>28.145814</ele>
        <time>2025-02-05T19:08:48.472Z</time>
      </trkpt>
      <trkpt lat="48.937952" lon="2.252350">
        <ele>28.294792</ele>
        <time>2025-02-05T19:09:12.137Z</time>
      </trkpt>
      <trkpt lat="48.937859" lon="2.252129">
        <ele>28.339439</ele>
        <time>2025-02-05T19:09:16.739Z</time>
      </trkpt>
      <trkpt lat="48.937092" lon="2.250314">
        <ele>28.608283</ele>
        <time>2025-02-05T19:09:49.640Z</time>
      </trkpt>
      <trkpt lat="48.936912" lon="2.249888">
        <ele>28.380985</ele>
        <time>2025-02-05T19:09:56.416Z</time>
      </trkpt>
      <trkpt lat="48.936521" lon="2.249131">
        <ele>27.948848</ele>
        <time>2025-02-05T19:10:08.968Z</time>
      </trkpt>
      <trkpt lat="48.935995" lon="2.248108">
        <ele>27.455703</ele>
        <time>2025-02-05T19:10:26.043Z</time>
      </trkpt>
      <trkpt lat="48.935866" lon="2.247851">
        <ele>27.464030</ele>
        <time>2025-02-05T19:10:33.761Z</time>
      </trkpt>
      <trkpt lat="48.935755" lon="2.247640">
        <ele>27.470989</ele>
        <time>2025-02-05T19:10:38.116Z</time>
      </trkpt>
      <trkpt lat="48.934980" lon="2.246428">
        <ele>27.514534</ele>
        <time>2025-02-05T19:11:07.467Z</time>
      </trkpt>
      <trkpt lat="48.934003" lon="2.245135">
        <ele>27.542240</ele>
        <time>2025-02-05T19:11:41.189Z</time>
      </trkpt>
      <trkpt lat="48.933084" lon="2.244139">
        <ele>27.532079</ele>
        <time>2025-02-05T19:12:07.987Z</time>
      </trkpt>
      <trkpt lat="48.932866" lon="2.243842">
        <ele>27.517291</ele>
        <time>2025-02-05T19:12:14.934Z</time>
      </trkpt>
      <trkpt lat="48.932225" lon="2.242791">
        <ele>27.469671</ele>
        <time>2025-02-05T19:12:38.084Z</time>
      </trkpt>
      <trkpt lat="48.931990" lon="2.242314">
        <ele>27.581958</ele>
        <time>2025-02-05T19:12:48.707Z</time>
      </trkpt>
      <trkpt lat="48.931908" lon="2.242148">
        <ele>27.639729</ele>
        <time>2025-02-05T19:12:52.503Z</time>
      </trkpt>
      <trkpt lat="48.931736" lon="2.242540">
        <ele>27.770849</ele>
        <time>2025-02-05T19:13:01.207Z</time>
      </trkpt>
      <trkpt lat="48.931253" lon="2.243642">
        <ele>28.139336</ele>
        <time>2025-02-05T19:13:25.820Z</time>
      </trkpt>
      <trkpt lat="48.931136" lon="2.243823">
        <ele>28.209968</ele>
        <time>2025-02-05T19:13:29.968Z</time>
      </trkpt>
      <trkpt lat="48.931085" lon="2.243905">
        <ele>28.206579</ele>
        <time>2025-02-05T19:13:31.580Z</time>
      </trkpt>
      <trkpt lat="48.931079" lon="2.243943">
        <ele>28.193610</ele>
        <time>2025-02-05T19:13:32.128Z</time>
      </trkpt>
      <trkpt lat="48.931072" lon="2.243987">
        <ele>28.178587</ele>
        <time>2025-02-05T19:13:32.777Z</time>
      </trkpt>
      <trkpt lat="48.931069" lon="2.244019">
        <ele>28.167861</ele>
        <time>2025-02-05T19:13:33.233Z</time>
      </trkpt>
      <trkpt lat="48.931103" lon="2.244120">
        <ele>28.130202</ele>
        <time>2025-02-05T19:13:34.824Z</time>
      </trkpt>
      <trkpt lat="48.931125" lon="2.244188">
        <ele>28.105050</ele>
        <time>2025-02-05T19:13:35.887Z</time>
      </trkpt>
      <trkpt lat="48.931148" lon="2.244247">
        <ele>28.082284</ele>
        <time>2025-02-05T19:13:36.843Z</time>
      </trkpt>
      <trkpt lat="48.931165" lon="2.244294">
        <ele>28.064481</ele>
        <time>2025-02-05T19:13:37.603Z</time>
      </trkpt>
      <trkpt lat="48.931231" lon="2.244471">
        <ele>27.996945</ele>
        <time>2025-02-05T19:13:40.405Z</time>
      </trkpt>
      <trkpt lat="48.931242" lon="2.244496">
        <ele>27.986961</ele>
        <time>2025-02-05T19:13:40.831Z</time>
      </trkpt>
      <trkpt lat="48.931259" lon="2.244537">
        <ele>27.970872</ele>
        <time>2025-02-05T19:13:41.501Z</time>
      </trkpt>
      <trkpt lat="48.931225" lon="2.244569">
        <ele>27.950681</ele>
        <time>2025-02-05T19:13:42.330Z</time>
      </trkpt>
      <trkpt lat="48.931177" lon="2.244615">
        <ele>27.922032</ele>
        <time>2025-02-05T19:13:43.501Z</time>
      </trkpt>
      <trkpt lat="48.931073" lon="2.244714">
        <ele>27.860075</ele>
        <time>2025-02-05T19:13:46.020Z</time>
      </trkpt>
      <trkpt lat="48.931035" lon="2.244742">
        <ele>27.838750</ele>
        <time>2025-02-05T19:13:46.890Z</time>
      </trkpt>
      <trkpt lat="48.930992" lon="2.244773">
        <ele>27.814718</ele>
        <time>2025-02-05T19:13:47.884Z</time>
      </trkpt>
      <trkpt lat="48.930973" lon="2.244792">
        <ele>27.803236</ele>
        <time>2025-02-05T19:13:48.336Z</time>
      </trkpt>
      <trkpt lat="48.930956" lon="2.244872">
        <ele>27.775335</ele>
        <time>2025-02-05T19:13:49.453Z</time>
      </trkpt>
      <trkpt lat="48.930950" lon="2.244911">
        <ele>27.762043</ele>
        <time>2025-02-05T19:13:49.993Z</time>
      </trkpt>
      <trkpt lat="48.930945" lon="2.244946">
        <ele>27.750157</ele>
        <time>2025-02-05T19:13:50.471Z</time>
      </trkpt>
      <trkpt lat="48.930929" lon="2.244959">
        <ele>27.740997</ele>
        <time>2025-02-05T19:13:50.846Z</time>
      </trkpt>
      <trkpt lat="48.930783" lon="2.244999">
        <ele>27.666067</ele>
        <time>2025-02-05T19:13:53.857Z</time>
      </trkpt>
      <trkpt lat="48.930637" lon="2.245112">
        <ele>27.583337</ele>
        <time>2025-02-05T19:13:57.189Z</time>
      </trkpt>
      <trkpt lat="48.930460" lon="2.245302">
        <ele>27.473938</ele>
        <time>2025-02-05T19:14:01.507Z</time>
      </trkpt>
      <trkpt lat="48.930317" lon="2.245534">
        <ele>27.368373</ele>
        <time>2025-02-05T19:14:05.618Z</time>
      </trkpt>
      <trkpt lat="48.930155" lon="2.245680">
        <ele>27.323672</ele>
        <time>2025-02-05T19:14:09.415Z</time>
      </trkpt>
      <trkpt lat="48.929926" lon="2.245984">
        <ele>27.347032</ele>
        <time>2025-02-05T19:14:15.967Z</time>
      </trkpt>
      <trkpt lat="48.929880" lon="2.246090">
        <ele>27.353448</ele>
        <time>2025-02-05T19:14:17.830Z</time>
      </trkpt>
      <trkpt lat="48.929839" lon="2.246126">
        <ele>27.357087</ele>
        <time>2025-02-05T19:14:18.944Z</time>
      </trkpt>
      <trkpt lat="48.929778" lon="2.246208">
        <ele>27.363344</ele>
        <time>2025-02-05T19:14:20.860Z</time>
      </trkpt>
      <trkpt lat="48.929581" lon="2.246410">
        <ele>27.381605</ele>
        <time>2025-02-05T19:14:26.382Z</time>
      </trkpt>
      <trkpt lat="48.929390" lon="2.246527">
        <ele>27.397433</ele>
        <time>2025-02-05T19:14:31.292Z</time>
      </trkpt>
      <trkpt lat="48.928236" lon="2.246916">
        <ele>27.952216</ele>
        <time>2025-02-05T19:14:59.833Z</time>
      </trkpt>
      <trkpt lat="48.928133" lon="2.246949">
        <ele>28.074036</ele>
        <time>2025-02-05T19:15:02.583Z</time>
      </trkpt>
      <trkpt lat="48.928066" lon="2.246960">
        <ele>28.152029</ele>
        <time>2025-02-05T19:15:04.390Z</time>
      </trkpt>
      <trkpt lat="48.927544" lon="2.247091">
        <ele>28.764329</ele>
        <time>2025-02-05T19:15:19.782Z</time>
      </trkpt>
      <trkpt lat="48.927491" lon="2.247107">
        <ele>28.826864</ele>
        <time>2025-02-05T19:15:21.469Z</time>
      </trkpt>
      <trkpt lat="48.927432" lon="2.247124">
        <ele>28.896361</ele>
        <time>2025-02-05T19:15:23.377Z</time>
      </trkpt>
      <trkpt lat="48.927262" lon="2.247169">
        <ele>29.096065</ele>
        <time>2025-02-05T19:15:28.871Z</time>
      </trkpt>
      <trkpt lat="48.926577" lon="2.247293">
        <ele>30.174681</ele>
        <time>2025-02-05T19:15:48.652Z</time>
      </trkpt>
      <trkpt lat="48.926269" lon="2.247304">
        <ele>30.810768</ele>
        <time>2025-02-05T19:15:58.701Z</time>
      </trkpt>
      <trkpt lat="48.925960" lon="2.247353">
        <ele>31.452198</ele>
        <time>2025-02-05T19:16:09.172Z</time>
      </trkpt>
      <trkpt lat="48.925688" lon="2.247317">
        <ele>32.015903</ele>
        <time>2025-02-05T19:16:17.995Z</time>
      </trkpt>
      <trkpt lat="48.925634" lon="2.247302">
        <ele>32.129235</ele>
        <time>2025-02-05T19:16:19.770Z</time>
      </trkpt>
      <trkpt lat="48.925554" lon="2.247316">
        <ele>32.295496</ele>
        <time>2025-02-05T19:16:22.287Z</time>
      </trkpt>
      <trkpt lat="48.925242" lon="2.247446">
        <ele>32.963370</ele>
        <time>2025-02-05T19:16:32.360Z</time>
      </trkpt>
      <trkpt lat="48.925082" lon="2.247472">
        <ele>33.315702</ele>
        <time>2025-02-05T19:16:37.582Z</time>
      </trkpt>
      <trkpt lat="48.924563" lon="2.247753">
        <ele>34.960693</ele>
        <time>2025-02-05T19:16:59.460Z</time>
      </trkpt>
      <trkpt lat="48.924509" lon="2.247843">
        <ele>35.199831</ele>
        <time>2025-02-05T19:17:02.987Z</time>
      </trkpt>
      <trkpt lat="48.924472" lon="2.247866">
        <ele>35.319182</ele>
        <time>2025-02-05T19:17:04.676Z</time>
      </trkpt>
      <trkpt lat="48.924344" lon="2.247935">
        <ele>35.724685</ele>
        <time>2025-02-05T19:17:10.352Z</time>
      </trkpt>
      <trkpt lat="48.924291" lon="2.247948">
        <ele>35.884996</ele>
        <time>2025-02-05T19:17:12.528Z</time>
      </trkpt>
      <trkpt lat="48.924186" lon="2.247983">
        <ele>36.205981</ele>
        <time>2025-02-05T19:17:16.908Z</time>
      </trkpt>
      <trkpt lat="48.923951" lon="2.248209">
        <ele>37.036104</ele>
        <time>2025-02-05T19:17:27.717Z</time>
      </trkpt>
      <trkpt lat="48.923707" lon="2.248616">
        <ele>38.117144</ele>
        <time>2025-02-05T19:17:41.004Z</time>
      </trkpt>
      <trkpt lat="48.923285" lon="2.249678">
        <ele>39.462999</ele>
        <time>2025-02-05T19:18:06.862Z</time>
      </trkpt>
      <trkpt lat="48.923271" lon="2.249712">
        <ele>39.497307</ele>
        <time>2025-02-05T19:18:07.797Z</time>
      </trkpt>
      <trkpt lat="48.923182" lon="2.249901">
        <ele>39.696126</ele>
        <time>2025-02-05T19:18:12.140Z</time>
      </trkpt>
      <trkpt lat="48.923159" lon="2.249946">
        <ele>39.744873</ele>
        <time>2025-02-05T19:18:13.141Z</time>
      </trkpt>
      <trkpt lat="48.923149" lon="2.249984">
        <ele>39.779873</ele>
        <time>2025-02-05T19:18:13.872Z</time>
      </trkpt>
      <trkpt lat="48.923088" lon="2.249998">
        <ele>39.860150</ele>
        <time>2025-02-05T19:18:15.330Z</time>
      </trkpt>
      <trkpt lat="48.923052" lon="2.250006">
        <ele>39.907493</ele>
        <time>2025-02-05T19:18:16.432Z</time>
      </trkpt>
      <trkpt lat="48.923009" lon="2.250015">
        <ele>39.963976</ele>
        <time>2025-02-05T19:18:17.455Z</time>
      </trkpt>
      <trkpt lat="48.922938" lon="2.250032">
        <ele>40.057504</ele>
        <time>2025-02-05T19:18:19.096Z</time>
      </trkpt>
      <trkpt lat="48.922942" lon="2.250076">
        <ele>40.095485</ele>
        <time>2025-02-05T19:18:20.017Z</time>
      </trkpt>
      <trkpt lat="48.923013" lon="2.250910">
        <ele>40.814554</ele>
        <time>2025-02-05T19:18:33.452Z</time>
      </trkpt>
      <trkpt lat="48.923024" lon="2.251264">
        <ele>41.009590</ele>
        <time>2025-02-05T19:18:39.852Z</time>
      </trkpt>
      <trkpt lat="48.923043" lon="2.252221">
        <ele>41.259147</ele>
        <time>2025-02-05T19:18:57.632Z</time>
      </trkpt>
      <trkpt lat="48.923059" lon="2.252441">
        <ele>41.316841</ele>
        <time>2025-02-05T19:19:01.218Z</time>
      </trkpt>
      <trkpt lat="48.922885" lon="2.252546">
        <ele>41.391092</ele>
        <time>2025-02-05T19:19:05.442Z</time>
      </trkpt>
      <trkpt lat="48.922930" lon="2.252762">
        <ele>41.450155</ele>
        <time>2025-02-05T19:19:08.560Z</time>
      </trkpt>
      <trkpt lat="48.922933" lon="2.252776">
        <ele>41.453993</ele>
        <time>2025-02-05T19:19:08.769Z</time>
      </trkpt>
      <trkpt lat="48.922984" lon="2.253024">
        <ele>41.521726</ele>
        <time>2025-02-05T19:19:12.310Z</time>
      </trkpt>
      <trkpt lat="48.922999" lon="2.253095">
        <ele>41.541166</ele>
        <time>2025-02-05T19:19:13.360Z</time>
      </trkpt>
      <trkpt lat="48.923073" lon="2.253449">
        <ele>41.637993</ele>
        <time>2025-02-05T19:19:18.672Z</time>
      </trkpt>
      <trkpt lat="48.923142" lon="2.253780">
        <ele>41.675731</ele>
        <time>2025-02-05T19:19:24.007Z</time>
      </trkpt>
      <trkpt lat="48.923105" lon="2.254036">
        <ele>41.675731</ele>
        <time>2025-02-05T19:19:28.145Z</time>
      </trkpt>
      <trkpt lat="48.922886" lon="2.254031">
        <ele>41.675731</ele>
        <time>2025-02-05T19:19:32.997Z</time>
      </trkpt>
      <trkpt lat="48.922869" lon="2.254031">
        <ele>41.675731</ele>
        <time>2025-02-05T19:19:33.368Z</time>
      </trkpt>
      <trkpt lat="48.922853" lon="2.254073">
        <ele>41.675731</ele>
        <time>2025-02-05T19:19:34.121Z</time>
      </trkpt>
      <trkpt lat="48.922855" lon="2.254031">
        <ele>41.675731</ele>
        <time>2025-02-05T19:19:34.718Z</time>
      </trkpt>
      <trkpt lat="48.922624" lon="2.254032">
        <ele>41.675731</ele>
        <time>2025-02-05T19:19:41.476Z</time>
      </trkpt>
      <trkpt lat="48.922328" lon="2.254035">
        <ele>41.675731</ele>
        <time>2025-02-05T19:19:50.183Z</time>
      </trkpt>
      <trkpt lat="48.922098" lon="2.254036">
        <ele>41.675731</ele>
        <time>2025-02-05T19:19:55.681Z</time>
      </trkpt>
      <trkpt lat="48.922041" lon="2.254037">
        <ele>41.675731</ele>
        <time>2025-02-05T19:19:57.066Z</time>
      </trkpt>
    </trkseg>
  </trk>
</gpx>